[[{"header":{"parameterUnit":"m.s-1","parameterCategory":1,"la1":30.6,"la2":28.766,"lo1":-90.7593,"lo2":-88.6598,"dy":0.0162,"dx":0.0183,"nx":116,"ny":114,"refTime":"2024-05-16T18:00:00:Z","depth":0,"parameterNumber":2,"parameterNumberName":"U-component_of_WINDS"},"data":[0.0,0.0,0.0,0.0,0.0,0.0,0.0,0.0,0.0,0.0,0.0,0.0,0.0,0.0,0.0,0.0,0.0,0.0,0.0,0.0,0.0,0.0,0.0,0.0,0.0,0.0,0.0,0.0,0.0,0.0,0.0,0.0,0.0,0.0,0.0,0.0,0.0,0.0,0.0,0.0,0.0,0.0,0.0,0.0,0.0,0.0,0.0,0.0,0.0,0.0,0.0,0.0,0.0,0.0,0.0,0.0,0.0,0.0,0.0,0.0,0.0,0.0,0.0,0.0,0.0,0.0,0.0,0.0,0.0,0.0,0.0,0.0,0.0,0.0,0.0,0.0,0.0,0.0,0.0,0.0,0.0,0.0,0.0,0.0,0.0,0.0,0.0,0.0,0.0,0.0,0.0,0.0,0.0,0.0,0.0,0.0,0.0,0.0,0.0,0.0,0.0,0.0,0.0,0.0,0.0,0.0,0.0,0.0,0.0,0.0,0.0,0.0,0.0,0.0,0.0,0.0,0.0,0.0,0.0,0.0,0.0,0.0,0.0,0.0,0.0,0.0,0.0,0.0,0.0,0.0,0.0,0.0,0.0,0.0,0.0,0.0,0.0,0.0,0.0,0.0,0.0,0.0,0.0,0.0,0.0,0.0,0.0,0.0,0.0,0.0,0.0,0.0,0.0,0.0,0.0,0.0,0.0,0.0,0.0,0.0,0.0,0.0,0.0,0.0,0.0,0.0,0.0,0.0,0.0,0.0,0.0,0.0,0.0,0.0,0.0,0.0,0.0,0.0,0.0,0.0,0.0,0.0,0.0,0.0,0.0,0.0,0.0,0.0,0.0,0.0,0.0,0.0,0.0,0.0,0.0,0.0,0.0,0.0,0.0,0.0,0.0,0.0,0.0,0.0,0.0,0.0,0.0,0.0,0.0,0.0,0.0,0.0,0.0,0.0,0.0,0.0,0.0,0.0,0.0,0.0,0.0,0.0,0.0,0.0,0.0,0.0,0.0,0.0,0.0,0.0,0.0,0.0,0.0,0.0,0.0,0.0,0.0,0.0,0.0,0.0,0.0,0.0,0.0,0.0,0.0,0.0,0.0,0.0,0.0,0.0,0.0,0.0,0.0,0.0,0.0,0.0,0.0,0.0,0.0,0.0,0.0,0.0,0.0,0.0,0.0,0.0,0.0,0.0,0.0,0.0,0.0,0.0,0.0,0.0,0.0,0.0,0.0,0.0,0.0,0.0,0.0,0.0,0.0,0.0,0.0,0.0,0.0,0.0,0.0,0.0,0.0,0.0,0.0,0.0,0.0,0.0,0.0,0.0,0.0,0.0,0.0,0.0,0.0,0.0,0.0,0.0,0.0,0.0,0.0,0.0,0.0,0.0,0.0,0.0,0.0,0.0,0.0,0.0,0.0,0.0,0.0,0.0,0.0,0.0,0.0,0.0,0.0,0.0,0.0,0.0,0.0,0.0,0.0,0.0,0.0,0.0,0.0,0.0,0.0,0.0,0.0,0.0,0.0,0.0,0.0,0.0,0.0,0.0,0.0,0.0,0.0,0.0,0.0,0.0,0.0,0.0,0.0,0.0,0.0,0.0,0.0,0.0,0.0,0.0,0.0,0.0,0.0,0.0,0.0,0.0,0.0,0.0,0.0,0.0,0.0,0.0,0.0,0.0,0.0,0.0,0.0,0.0,0.0,0.0,0.0,0.0,0.0,0.0,0.0,0.0,0.0,0.0,0.0,0.0,0.0,0.0,0.0,0.0,0.0,0.0,0.0,0.0,0.0,0.0,0.0,0.0,0.0,0.0,0.0,0.0,0.0,0.0,0.0,0.0,0.0,0.0,0.0,0.0,0.0,0.0,0.0,0.0,0.0,0.0,0.0,0.0,0.0,0.0,0.0,0.0,0.0,0.0,0.0,0.0,0.0,0.0,0.0,0.0,0.0,0.0,0.0,0.0,0.0,0.0,0.0,0.0,0.0,0.0,0.0,0.0,0.0,0.0,0.0,0.0,0.0,0.0,0.0,0.0,0.0,0.0,0.0,0.0,0.0,0.0,0.0,0.0,0.0,0.0,0.0,0.0,0.0,0.0,0.0,0.0,0.0,0.0,0.0,0.0,0.0,0.0,0.0,0.0,0.0,0.0,0.0,0.0,0.0,0.0,0.0,0.0,0.0,0.0,0.0,0.0,0.0,0.0,0.0,0.0,0.0,0.0,0.0,0.0,0.0,0.0,0.0,0.0,0.0,0.0,0.0,0.0,0.0,0.0,0.0,0.0,0.0,0.0,0.0,0.0,0.0,0.0,0.0,0.0,0.0,0.0,0.0,0.0,0.0,0.0,0.0,0.0,0.0,0.0,0.0,0.0,0.0,0.0,0.0,0.0,0.0,0.0,0.0,0.0,0.0,0.0,0.0,0.0,0.0,0.0,0.0,0.0,0.0,0.0,0.0,0.0,0.0,0.0,0.0,0.0,0.0,0.0,0.0,0.0,0.0,0.0,0.0,0.0,0.0,0.0,0.0,0.0,0.0,0.0,0.0,0.0,0.0,0.0,0.0,0.0,0.0,0.0,0.0,0.0,0.0,0.0,0.0,0.0,0.0,0.0,0.0,0.0,0.0,0.0,0.0,0.0,0.0,0.0,0.0,0.0,0.0,0.0,0.0,0.0,0.0,0.0,0.0,0.0,0.0,0.0,0.0,0.0,0.0,0.0,0.0,0.0,0.0,0.0,0.0,0.0,0.0,0.0,0.0,0.0,0.0,0.0,0.0,0.0,0.0,0.0,0.0,0.0,0.0,0.0,0.0,0.0,0.0,0.0,0.0,0.0,0.0,0.0,0.0,0.0,0.0,0.0,0.0,0.0,0.0,0.0,0.0,0.0,0.0,0.0,0.0,0.0,0.0,0.0,0.0,0.0,0.0,0.0,0.0,0.0,0.0,0.0,0.0,0.0,0.0,0.0,0.0,0.0,0.0,0.0,0.0,0.0,0.0,0.0,0.0,0.0,0.0,0.0,0.0,0.0,0.0,0.0,0.0,0.0,0.0,0.0,0.0,0.0,0.0,0.0,0.0,0.0,0.0,0.0,0.0,0.0,0.0,0.0,0.0,0.0,0.0,0.0,0.0,0.0,0.0,0.0,0.0,0.0,0.0,0.0,0.0,0.0,0.0,0.0,0.0,0.0,0.0,0.0,0.0,0.0,0.0,0.0,0.0,0.0,0.0,0.0,0.0,0.0,0.0,0.0,0.0,0.0,0.0,0.0,0.0,0.0,0.0,0.0,0.0,0.0,0.0,0.0,0.0,0.0,0.0,0.0,0.0,0.0,0.0,0.0,0.0,0.0,0.0,0.0,0.0,0.0,0.0,0.0,0.0,0.0,0.0,0.0,0.0,0.0,0.0,0.0,0.0,0.0,0.0,0.0,0.0,0.0,0.0,0.0,0.0,0.0,0.0,0.0,0.0,0.0,0.0,0.0,0.0,0.0,0.0,0.0,0.0,0.0,0.0,0.0,0.0,0.0,0.0,0.0,0.0,0.0,0.0,0.0,0.0,0.0,0.0,0.0,0.0,0.0,0.0,0.0,0.0,0.0,0.0,0.0,0.0,0.0,0.0,0.0,0.0,0.0,0.0,0.0,0.0,0.0,0.0,0.0,0.0,0.0,0.0,0.0,0.0,0.0,0.0,0.0,0.0,0.0,0.0,0.0,0.0,0.0,0.0,0.0,0.0,0.0,0.0,0.0,0.0,0.0,0.0,0.0,0.0,0.0,0.0,0.0,0.0,0.0,0.0,0.0,0.0,0.0,0.0,0.0,0.0,0.0,0.0,0.0,0.0,0.0,0.0,0.0,0.0,0.0,0.0,0.0,0.0,0.0,0.0,0.0,0.0,0.0,0.0,0.0,0.0,0.0,0.0,0.0,0.0,0.0,0.0,0.0,0.0,0.0,0.0,0.0,0.0,0.0,0.0,0.0,0.0,0.0,0.0,0.0,0.0,0.0,0.0,0.0,0.0,0.0,0.0,0.0,0.0,0.0,0.0,0.0,0.0,0.0,0.0,0.0,0.0,0.0,0.0,0.0,0.0,0.0,0.0,0.0,0.0,0.0,0.0,0.0,0.0,0.0,0.0,0.0,0.0,0.0,0.0,0.0,0.0,0.0,0.0,0.0,0.0,0.0,0.0,0.0,0.0,0.0,0.0,0.0,0.0,0.0,0.0,0.0,0.0,0.0,0.0,0.0,0.0,0.0,0.0,0.0,0.0,0.0,0.0,0.0,0.0,0.0,0.0,0.0,0.0,0.0,0.0,0.0,0.0,0.0,0.0,0.0,0.0,0.0,0.0,0.0,0.0,0.0,0.0,0.0,0.0,0.0,0.0,0.0,0.0,0.0,0.0,0.0,0.0,0.0,0.0,0.0,0.0,0.0,0.0,0.0,0.0,0.0,0.0,0.0,0.0,0.0,0.0,0.0,0.0,0.0,0.0,0.0,0.0,0.0,0.0,0.0,0.0,0.0,0.0,0.0,0.0,0.0,0.0,0.0,0.0,0.0,0.0,0.0,0.0,0.0,0.0,0.0,0.0,0.0,0.0,0.0,0.0,0.0,0.0,0.0,0.0,0.0,0.0,0.0,0.0,0.0,0.0,0.0,0.0,0.0,0.0,0.0,0.0,0.0,0.0,0.0,0.0,0.0,0.0,0.0,0.0,0.0,0.0,0.0,0.0,0.0,0.0,0.0,0.0,0.0,0.0,0.0,0.0,0.0,0.0,0.0,0.0,0.0,0.0,0.0,0.0,0.0,0.0,0.0,0.0,0.0,0.0,0.0,0.0,0.0,0.0,0.0,0.0,0.0,0.0,0.0,0.0,0.0,0.0,0.0,0.0,0.0,0.0,0.0,0.0,0.0,0.0,0.0,0.0,0.0,0.0,0.0,0.0,0.0,0.0,0.0,0.0,0.0,0.0,0.0,0.0,0.0,0.0,0.0,0.0,0.0,0.0,0.0,0.0,0.0,0.0,0.0,0.0,0.0,0.0,0.0,0.0,0.0,0.0,0.0,0.0,0.0,0.0,0.0,0.0,0.0,0.0,0.0,0.0,0.0,0.0,0.0,0.0,0.0,0.0,0.0,0.0,0.0,0.0,0.0,0.0,0.0,0.0,0.0,0.0,0.0,0.0,0.0,0.0,0.0,0.0,0.0,0.0,0.0,0.0,0.0,0.0,0.0,0.0,0.0,0.0,0.0,0.0,0.0,0.0,0.0,0.0,0.0,0.0,0.0,0.0,0.0,0.0,0.0,0.0,0.0,0.0,0.0,0.0,0.0,0.0,0.0,0.0,0.0,0.0,0.0,0.0,0.0,0.0,0.0,0.0,0.0,0.0,0.0,0.0,0.0,0.0,0.0,0.0,0.0,0.0,0.0,0.0,0.0,0.0,0.0,0.0,0.0,0.0,0.0,0.0,0.0,0.0,0.0,0.0,0.0,0.0,0.0,0.0,0.0,0.0,0.0,0.0,0.0,0.0,0.0,0.0,0.0,0.0,0.0,0.0,0.0,0.0,0.0,0.0,0.0,0.0,0.0,0.0,0.0,0.0,0.0,0.0,0.0,0.0,0.0,0.0,0.0,0.0,0.0,0.0,0.0,0.0,0.0,0.0,0.0,0.0,0.0,0.0,0.0,0.0,0.0,0.0,0.0,0.0,0.0,0.0,0.0,0.0,0.0,0.0,0.0,0.0,0.0,0.0,0.0,0.0,0.0,0.0,0.0,0.0,0.0,0.0,0.0,0.0,0.0,0.0,0.0,0.0,0.0,0.0,0.0,0.0,0.0,0.0,0.0,0.0,0.0,0.0,0.0,0.0,0.0,0.0,0.0,0.0,0.0,0.0,0.0,0.0,0.0,0.0,0.0,0.0,0.0,0.0,0.0,0.0,0.0,0.0,0.0,0.0,0.0,0.0,0.0,0.0,0.0,0.0,0.0,0.0,0.0,0.0,0.0,0.0,0.0,0.0,0.0,0.0,0.0,0.0,0.0,0.0,0.0,0.0,0.0,0.0,0.0,0.0,0.0,0.0,0.0,0.0,0.0,0.0,0.0,0.0,0.0,0.0,0.0,0.0,0.0,-3.5719,0.0,0.0,0.0,0.0,0.0,0.0,0.0,0.0,0.0,0.0,0.0,0.0,0.0,0.0,0.0,0.0,0.0,0.0,0.0,0.0,0.0,0.0,0.0,0.0,-0.7516,-0.7238,-0.6574,-0.6483,-0.6474,-0.6373,0.0,0.0,0.0,0.0,0.0,-1.359,-1.5352,-1.7731,-2.0761,-2.1302,-2.2128,-2.3182,-2.2062,-2.1268,-2.0812,0.0,0.0,0.0,0.0,0.0,0.0,0.0,0.0,0.0,0.0,0.0,0.0,0.0,0.0,0.0,0.0,0.0,0.0,0.0,0.0,0.0,0.0,0.0,0.0,0.0,0.0,0.0,0.0,0.0,0.0,0.0,0.0,0.0,0.0,0.0,0.0,0.0,0.0,0.0,0.0,0.0,0.0,0.0,0.0,0.0,0.0,0.0,0.0,0.0,0.0,0.0,0.0,0.0,0.0,0.0,0.0,0.0,0.0,0.0,0.0,0.0,0.0,0.0,0.0,0.0,0.0,0.0,0.0,0.0,0.0,0.0,-3.8663,0.0,0.0,0.0,0.0,0.0,0.0,0.0,0.0,0.0,0.0,0.0,0.0,0.0,0.0,0.0,0.0,0.0,0.0,0.0,0.0,0.0,-0.7882,-0.7272,-0.7131,-0.7027,-0.6837,-0.6653,-0.6701,-0.7012,-0.6754,0.0,0.0,0.0,-1.2244,-1.5371,-1.7046,-1.9383,-2.2411,-2.3328,-2.4384,-2.5445,-2.5467,-2.4947,-2.4063,-2.4413,0.0,0.0,0.0,0.0,0.0,0.0,0.0,0.0,0.0,0.0,0.0,0.0,0.0,0.0,0.0,0.0,0.0,0.0,0.0,0.0,0.0,0.0,0.0,0.0,0.0,0.0,0.0,0.0,0.0,0.0,0.0,0.0,0.0,0.0,0.0,0.0,0.0,0.0,0.0,0.0,0.0,0.0,0.0,0.0,0.0,0.0,0.0,0.0,0.0,0.0,0.0,0.0,0.0,0.0,0.0,0.0,0.0,0.0,0.0,0.0,0.0,0.0,0.0,-4.811,-4.9181,-4.9815,-5.0423,-5.0838,-5.0928,-4.7103,-4.5231,-4.4585,-4.0832,0.0,0.0,0.0,0.0,0.0,0.0,0.0,0.0,0.0,0.0,0.0,0.0,0.0,0.0,0.0,0.0,0.0,0.0,0.0,-0.8424,-0.815,-0.7788,-0.7616,-0.7779,-0.7434,-0.7375,-0.779,-0.7522,0.0,0.0,-1.1841,-1.4112,-1.7908,-1.892,-2.0661,-2.3223,-2.5483,-2.6984,-2.781,-2.8537,-2.9486,-3.0568,-2.8545,-2.8977,-3.1164,0.0,0.0,0.0,0.0,0.0,0.0,0.0,0.0,0.0,0.0,0.0,0.0,0.0,0.0,0.0,0.0,0.0,0.0,0.0,0.0,0.0,0.0,0.0,0.0,0.0,0.0,0.0,0.0,0.0,0.0,0.0,0.0,0.0,0.0,0.0,0.0,0.0,0.0,0.0,0.0,0.0,-3.5447,-3.5089,0.0,0.0,0.0,0.0,0.0,0.0,0.0,0.0,0.0,0.0,0.0,0.0,0.0,-4.7347,-4.9169,-5.0257,-5.1152,-5.1911,-5.3324,-5.3894,-5.3699,-5.453,-5.4868,-5.476,-5.4585,0.0,-4.8042,-4.5597,0.0,0.0,0.0,0.0,0.0,0.0,0.0,0.0,0.0,0.0,0.0,0.0,0.0,0.0,0.0,0.0,0.0,0.0,0.0,0.0,0.0,-0.8716,-0.8803,-0.9342,-0.9565,-0.9689,-0.9779,-1.056,-1.1471,-1.2458,-1.475,-1.7042,-1.9354,-2.0966,-2.3143,-2.5944,-2.7487,-2.8661,-2.9505,-3.0028,-3.1222,-3.2916,-3.2271,-3.2349,-3.2829,-3.16,0.0,0.0,0.0,0.0,0.0,0.0,0.0,0.0,0.0,0.0,0.0,0.0,0.0,0.0,0.0,0.0,0.0,0.0,0.0,0.0,0.0,0.0,0.0,0.0,0.0,0.0,0.0,0.0,0.0,0.0,0.0,0.0,0.0,0.0,0.0,0.0,0.0,0.0,0.0,-3.6854,-3.9201,-3.8443,-3.8198,-3.7331,0.0,0.0,0.0,0.0,0.0,0.0,0.0,0.0,0.0,-5.0348,-5.1304,-5.2332,-5.3549,-5.4201,-5.477,-5.522,-5.6191,-5.6579,-5.6519,-5.7325,-5.7552,-5.7449,-5.8012,-5.6937,-5.4451,-5.0865,-4.8365,-4.6582,0.0,0.0,0.0,0.0,-4.5897,-4.6198,0.0,0.0,0.0,0.0,0.0,0.0,0.0,0.0,0.0,0.0,0.0,0.0,-0.9501,-0.9729,-1.0184,-1.1047,-1.171,-1.2173,-1.2346,-1.3755,-1.4669,-1.4889,-1.7632,-1.974,-2.0986,-2.3087,-2.5529,-2.8278,-2.9012,-2.9863,-3.0807,-3.1131,-3.2177,-3.3877,-3.4756,-3.4945,-3.4555,-3.3441,-3.2306,-3.1051,0.0,0.0,0.0,0.0,0.0,0.0,0.0,0.0,0.0,0.0,0.0,0.0,0.0,0.0,0.0,0.0,0.0,0.0,0.0,0.0,0.0,0.0,0.0,0.0,0.0,0.0,0.0,0.0,0.0,0.0,0.0,0.0,0.0,0.0,0.0,0.0,0.0,-4.0546,-4.2453,-4.1496,-4.2058,-4.1506,0.0,0.0,0.0,0.0,0.0,0.0,-4.9537,-5.0758,-5.2433,-5.4722,-5.5467,-5.6114,-5.6749,-5.6985,-5.7191,-5.7365,-5.7851,-5.8134,-5.819,-5.8894,-5.9109,-5.8998,-5.9627,-5.9757,-5.916,-5.5447,-5.3069,-5.167,-5.0596,-4.967,-4.9085,-5.0593,-5.0897,-5.0928,0.0,0.0,0.0,0.0,0.0,0.0,0.0,0.0,0.0,0.0,0.0,-1.0398,-1.0284,-1.0763,-1.1533,-1.262,-1.3432,-1.4282,0.0,-1.6203,-1.7434,-1.9226,-2.0111,-2.1481,-2.3364,-2.5334,-2.7289,-2.9239,-2.9848,-3.0622,-3.1534,-3.2039,-3.2986,-3.4325,-3.5181,-3.631,-3.7469,-3.5789,-3.4992,-3.4525,-3.0958,0.0,0.0,0.0,0.0,0.0,0.0,0.0,0.0,0.0,0.0,0.0,0.0,0.0,0.0,0.0,0.0,0.0,0.0,0.0,0.0,0.0,0.0,0.0,0.0,0.0,0.0,0.0,0.0,0.0,0.0,0.0,0.0,0.0,0.0,0.0,0.0,0.0,0.0,-4.4105,-4.6156,0.0,0.0,0.0,0.0,-4.8342,-5.0521,-5.2732,-5.5019,-5.56,-5.632,-5.7278,-5.7731,-5.8121,-5.8392,-5.8392,-5.8392,-5.8444,-5.841,-5.841,-5.843,-5.8962,-5.916,-5.9179,-5.967,-5.9864,-5.9755,-5.8497,-5.7516,-5.6789,-5.6062,-5.5335,-5.4778,-5.5315,-5.5485,-5.5537,0.0,0.0,0.0,0.0,0.0,-1.4978,-1.3838,-1.3051,-1.2334,-1.1681,-1.117,-1.1265,-1.2277,-1.2691,-1.3603,-1.5288,-1.6405,-1.7333,-1.815,-1.9861,-2.0885,-2.0988,-2.2773,-2.4489,-2.5957,-2.7034,-2.8432,-3.0141,-3.0289,-3.0848,-3.1718,-3.1879,-3.2493,-3.3505,-3.418,-3.4875,-3.5603,-3.6029,-3.5819,-3.4947,-3.3068,-3.1672,0.0,0.0,0.0,0.0,0.0,0.0,0.0,0.0,0.0,0.0,0.0,0.0,0.0,0.0,0.0,0.0,0.0,0.0,0.0,0.0,0.0,0.0,0.0,0.0,0.0,0.0,0.0,0.0,0.0,0.0,0.0,0.0,0.0,0.0,0.0,0.0,0.0,-4.8916,-5.05,0.0,-4.9008,-5.0436,-5.1817,-5.2634,-5.4311,-5.5969,-5.7398,-5.7647,-5.8249,-5.9355,-5.9734,-5.9747,-5.9531,-5.9693,-5.959,-5.9115,-5.9138,-5.8962,-5.8775,-5.9563,-5.9737,-5.9338,-6.0124,-6.0462,-6.0482,-6.0433,-5.9946,-5.9159,-5.8938,-5.8148,-5.7182,-5.7675,-5.7652,-5.742,0.0,0.0,0.0,0.0,-1.5673,-1.4819,-1.3853,-1.3184,-1.2617,-1.2148,-1.1927,-1.2212,-1.3286,-1.3902,-1.4932,-1.679,-1.813,-1.9139,-1.9744,-2.2136,-2.3164,-2.2289,-2.4649,-2.6494,-2.7594,-2.853,-2.9581,-3.087,-3.1059,-3.1477,-3.196,-3.2076,-3.2435,-3.298,-3.3622,-3.4112,-3.4487,-3.5791,-3.5993,-3.5274,-3.4386,-3.336,-3.223,0.0,0.0,0.0,0.0,0.0,0.0,0.0,0.0,0.0,0.0,0.0,0.0,0.0,0.0,0.0,0.0,0.0,0.0,0.0,0.0,0.0,0.0,0.0,0.0,0.0,0.0,0.0,0.0,0.0,0.0,0.0,0.0,0.0,0.0,0.0,-5.0351,-5.1254,-5.3385,-5.4244,-5.2878,-5.472,-5.609,-5.6272,-5.763,-5.8757,-5.9399,-5.9429,-5.9819,-6.0691,-6.0856,-6.0801,-6.0446,-6.0581,-6.0481,-6.006,-6.0138,-5.9938,-5.9599,-6.0236,-6.0241,-5.9787,-6.0402,-6.0638,-6.069,-6.1257,-6.1102,-6.0603,-6.0927,-6.017,-5.8985,-5.9433,-5.91,-5.8394,0.0,0.0,0.0,-1.5705,-1.5193,-1.4571,-1.364,-1.3194,-1.2749,-1.2049,-1.2721,-1.3292,-1.3341,-1.4217,-1.5422,-1.7,-1.8411,-1.9497,-2.0216,-2.284,-2.4012,-2.3286,-2.5633,-2.7392,-2.8339,-2.9775,-3.085,-3.1498,-3.2192,-3.244,-3.2285,-3.2612,-3.2782,-3.2939,-3.358,-3.4143,-3.4623,-3.5211,-3.5589,-3.5693,-3.4927,-3.4598,-3.433,0.0,0.0,0.0,0.0,0.0,0.0,0.0,0.0,0.0,0.0,0.0,0.0,0.0,0.0,0.0,0.0,0.0,0.0,0.0,0.0,0.0,0.0,0.0,0.0,0.0,0.0,0.0,0.0,0.0,0.0,0.0,0.0,0.0,-4.5308,-4.9356,-5.1989,-5.1063,-5.48,-5.6595,-5.4435,-5.7286,-5.9256,-5.9253,-6.041,-6.1078,-6.1048,-6.1048,-6.1048,-6.1078,-6.1134,-6.1134,-6.1134,-6.1134,-6.1134,-6.1104,-6.1353,-6.1267,-6.0903,-6.0873,-6.07,-6.0377,-6.0377,-6.0377,-6.0377,-6.0949,-6.1155,-6.1206,-6.2066,-6.1512,-6.0376,-6.0646,-5.985,-5.8637,0.0,0.0,-1.619,-1.5487,-1.4766,-1.4055,-1.3453,-1.3028,-1.2947,-1.3523,-1.3176,-1.3391,-1.473,-1.5123,-1.5981,-1.761,-1.8523,-1.9803,-2.1584,-2.2844,-2.4425,-2.6365,-2.7764,-2.8808,-2.9584,-3.0543,-3.1172,-3.1508,-3.2356,-3.2643,-3.2378,-3.2824,-3.2939,-3.2757,-3.2929,-3.3241,-3.3618,-3.4338,-3.471,-3.488,-3.5534,-3.5149,-3.4252,0.0,0.0,0.0,0.0,0.0,0.0,0.0,0.0,0.0,0.0,0.0,0.0,0.0,0.0,0.0,0.0,0.0,0.0,0.0,0.0,0.0,0.0,0.0,0.0,0.0,0.0,0.0,0.0,0.0,0.0,0.0,-4.6374,-4.939,-4.994,-5.2071,-5.4336,-5.6322,-5.7871,-5.8688,-5.8523,-5.9947,-6.0646,-5.9934,-6.0609,-6.0901,-6.0398,-6.0368,-6.0719,-6.1451,-6.1451,-6.1565,-6.1822,-6.1822,-6.1583,-6.1104,-6.116,-6.0911,-6.0361,-6.0524,-6.0217,-5.9476,-5.969,-5.9636,-5.9529,-6.0031,-6.0294,-6.0399,-6.1633,-6.1581,-6.0893,-6.1248,-6.0676,-5.9617,0.0,-1.7115,-1.5883,-1.5151,-1.4482,-1.3857,-1.3408,-1.3163,-1.3221,-1.3728,-1.3615,-1.3863,-1.4834,-1.5177,-1.5966,-1.7426,-1.8542,-1.9734,-2.1141,-2.2872,-2.5116,-2.8052,-2.9058,-2.99,-3.0608,-3.1454,-3.191,-3.2014,-3.2739,-3.2942,-3.2691,-3.3194,-3.3351,-3.3295,-3.343,-3.3706,-3.4121,-3.4437,-3.4753,-3.5102,-3.5699,-3.5489,-3.4854,-3.4957,-3.4357,-3.3434,-3.3384,-3.3199,-3.3012,-3.2667,0.0,0.0,0.0,0.0,0.0,0.0,0.0,0.0,0.0,0.0,0.0,0.0,0.0,0.0,0.0,0.0,0.0,0.0,0.0,0.0,0.0,0.0,0.0,0.0,-4.9303,-5.2143,-5.3585,-5.4612,-5.5894,-5.7741,-5.8871,-5.9622,-5.9985,-6.0963,-6.135,-6.0764,-6.1204,-6.1379,-6.0966,-6.0966,-6.1201,-6.1817,-6.1847,-6.1963,-6.2338,-6.2338,-6.2187,-6.1942,-6.1942,-6.1489,-6.0726,-6.0726,-6.0216,-5.9261,-5.9315,-5.9261,-5.9183,-5.9855,-6.0008,0.0,0.0,0.0,0.0,0.0,-6.0519,-5.9706,0.0,-1.6569,-1.5669,-1.4812,-1.4335,-1.3895,-1.3416,-1.3372,-1.342,-1.3377,-1.4089,-1.4485,-1.4352,-1.49,-1.5686,-1.6768,-1.8346,-1.9515,0.0,-2.3123,-2.6062,-2.8593,-2.9711,-3.0575,-3.1257,-3.2332,-3.2797,-3.2679,-3.3232,-3.3316,-3.3059,-3.3638,-3.4042,-3.4358,-3.4604,-3.5024,-3.5543,-3.519,-3.5411,-3.5913,-3.565,-3.5688,-3.5768,-3.5264,-3.5253,-3.5423,-3.4605,-3.4366,-3.4342,-3.3698,0.0,0.0,0.0,0.0,0.0,0.0,0.0,0.0,0.0,0.0,0.0,0.0,0.0,0.0,0.0,0.0,0.0,0.0,0.0,0.0,0.0,0.0,0.0,0.0,-5.1517,-5.3724,-5.6004,-5.6581,-5.6894,-5.702,-5.8591,-5.9673,-5.9673,-6.0774,-6.1494,-6.1494,-6.1732,-6.1939,-6.1939,0.0,0.0,0.0,0.0,-6.2175,-6.2556,-6.2556,-6.2731,-6.3021,-6.3079,-6.2562,-6.1554,-6.1246,-6.0526,-5.9513,-5.9237,-5.9099,-5.9159,-6.009,-6.0108,-5.962,-6.046,-6.0712,-6.0646,-6.0481,-6.006,-5.9538,0.0,-1.6934,-1.585,-1.5186,-1.4406,-1.3665,-1.3093,-1.2917,-1.3196,-1.4175,-1.4385,-1.4756,-1.5566,-1.5631,-1.5859,-1.6515,-1.7876,-1.9829,0.0,0.0,-2.6802,-2.8089,-2.9679,-3.0771,-3.1307,-3.2485,-3.2952,-3.2527,-3.3391,-3.3667,-3.3495,-3.4395,-3.4984,-3.5275,-3.5699,-3.6091,-3.6417,-3.6068,-3.6286,-3.678,-3.6267,-3.5991,-3.5855,-3.559,-3.559,-3.5695,-3.496,-3.5207,-3.5805,-3.5321,-3.4885,-3.4557,-3.4387,-3.331,0.0,0.0,0.0,0.0,0.0,0.0,0.0,0.0,0.0,0.0,0.0,0.0,0.0,0.0,0.0,0.0,0.0,0.0,0.0,-5.0071,-5.2463,-5.4494,-5.5461,-5.6459,-5.7396,-5.8222,-5.9121,-5.9673,-5.9673,-6.0409,-6.0863,-6.0863,-6.0923,-6.0984,-6.0984,-6.1253,-6.1464,-6.1673,-6.1732,-6.185,-6.2175,-6.2498,-6.2615,-6.2673,0.0,0.0,-6.1938,-6.1343,-6.0574,-5.9657,-5.9284,-5.8991,-5.8833,-5.9817,-6.0106,-6.0011,-6.038,-6.0732,-6.1122,-6.1289,-6.1069,-6.0701,-1.792,-1.6989,-1.607,-1.5653,-1.5063,-1.4426,-1.3697,-1.3499,-1.3543,-1.3889,-1.4186,-1.4505,-1.4812,-1.5015,-1.5142,-1.5116,-1.7083,0.0,0.0,-2.5914,-2.7189,-2.8491,-2.9952,-3.1014,-3.1478,-3.2392,-3.2864,-3.2919,-3.3368,-3.3686,-3.3839,-3.4601,-3.523,-3.577,-3.6444,-3.6932,-3.735,-3.7323,-3.7488,-3.7726,-3.7297,-3.701,-3.6842,-3.6285,-3.6196,-3.6236,-3.5714,-3.5789,-3.611,-3.6166,-3.5999,-3.5827,-3.6061,-3.5151,-3.3726,0.0,0.0,0.0,0.0,0.0,0.0,0.0,0.0,0.0,0.0,0.0,0.0,0.0,0.0,-4.6946,0.0,0.0,-5.1688,-5.2728,-5.4283,-5.5445,-5.5597,-5.6296,-5.704,-5.7852,-5.8704,-5.9177,-5.9177,-5.9948,-6.0438,-6.0438,-6.0438,-6.0499,-6.0681,-6.0892,-6.1104,-6.1404,-6.1404,-6.1554,-6.185,-6.2057,-6.2175,-6.2351,-6.2673,-6.2374,-6.1605,-6.1449,-6.0764,-5.9644,-5.9428,-5.918,-5.8912,-5.9404,-5.9787,-6.0082,-5.9855,-6.0114,-6.0607,-6.1052,-6.0924,-6.0634,-1.8138,-1.7457,-1.6778,-1.6291,-1.5858,-1.5257,-1.4444,-1.413,-1.3847,-1.341,-1.3966,-1.4301,-1.3926,-1.4323,-1.4643,-1.4599,-1.7186,0.0,0.0,-2.6207,-2.7235,-2.8721,-2.997,-3.0916,-3.1569,-3.2049,-3.2614,-3.3392,-3.3327,-3.3624,-3.4162,-3.4757,-3.5418,-3.6111,-3.7081,-3.7773,-3.8157,-3.8445,-3.8578,-3.8591,-3.8165,-3.795,-3.7826,-3.7094,-3.6801,-3.6676,-3.6208,-3.5933,-3.5875,-3.6425,-3.6459,-3.6374,-3.6994,-3.643,-3.5251,-3.3953,-3.3676,0.0,0.0,0.0,0.0,0.0,0.0,0.0,0.0,-4.3696,-4.5262,-4.7534,-4.9114,-5.0612,-5.2419,-5.3356,-5.4147,-5.4934,-5.5627,-5.5952,-5.5714,-5.5943,-5.6305,-5.6794,-5.7823,-5.8564,-5.8767,-5.9578,-6.0132,-6.0132,-6.0132,-6.0194,-6.0499,-6.056,-6.0742,-6.1013,-6.1013,-6.1164,-6.1434,-6.1494,-6.1732,-6.2116,-6.2351,-6.2085,-6.1378,-6.1491,-6.0837,-5.9711,-5.9529,-5.9394,-5.9308,-5.9428,-5.9727,-6.0057,-5.9638,-5.9579,-5.9819,-6.0399,-6.0455,-6.0299,0.0,-1.9255,-1.8693,-1.7218,-1.6323,-1.5454,-1.453,-1.3956,-1.364,-1.3577,-1.412,-1.4522,-1.4592,-1.4653,-1.5562,-1.7694,-1.9781,0.0,-2.468,-2.5576,-2.6539,-2.7731,-2.8977,-3.0079,-3.1031,-3.1363,-3.2228,-3.3691,-3.3447,-3.3788,-3.475,-3.5524,-3.6013,-3.6407,-3.7941,-3.8667,-3.8742,-3.902,-3.9246,-3.9394,-3.8321,-3.7839,-3.7808,-3.7637,-3.7312,-3.6713,-3.547,-3.5236,-3.5503,-3.5837,-3.5816,-3.5891,-3.6849,-3.6627,-3.5868,-3.5372,-3.5278,-3.5365,-3.5872,-3.7909,-4.0412,-4.2965,-4.3384,-4.4573,0.0,0.0,-4.9236,-5.1556,-5.2815,-5.3377,-5.3005,-5.3949,-5.4593,-5.4092,-5.4617,-5.5087,-5.5006,-5.5276,-5.5545,-5.56,-5.6976,-5.8215,-5.9024,-5.9544,-5.9792,-5.9792,-5.9792,-5.9792,-5.9792,-6.0071,-6.0255,-6.0316,-6.0316,-6.0499,-6.0802,-6.1133,-6.1523,-6.2116,-6.2116,-6.2263,-6.2437,-6.1525,-6.076,-6.005,-5.9177,-5.9245,-6.0027,-6.0625,-6.0565,-6.0146,-6.0685,-6.0201,-5.9261,-5.9819,-6.0128,-6.0411,0.0,-2.0365,-2.0082,-1.8945,-1.762,-1.6313,-1.5067,-1.4312,-1.3775,-1.3408,-1.3672,-1.3897,-1.3999,-1.451,-1.6006,-1.8936,-1.9752,-2.13,-2.4232,-2.5083,-2.5902,-2.6802,-2.8147,-2.9208,-2.9949,-3.0721,-3.1857,-3.3203,-3.3262,-3.3791,-3.4749,-3.5255,-3.5806,-3.6398,-3.7371,-3.7952,-3.8282,-3.8785,-3.893,-3.8814,-3.861,-3.8207,-3.7722,-3.7375,-3.6903,-3.63,-3.5626,-3.5339,0.0,-3.5517,-3.5672,-3.584,-3.6593,-3.642,-3.5849,-3.5747,-3.6535,-3.7967,-4.0459,-4.2138,-4.3702,-4.5685,-4.72,-4.8885,-5.1084,-5.154,-5.191,-5.3409,-5.4459,-5.4978,-5.4661,-5.5334,-5.5773,0.0,-5.5312,-5.5176,-5.4477,-5.4383,-5.4277,-5.4133,-5.5205,-5.6515,-5.791,-5.8547,-5.9025,-5.9363,-5.942,-5.9482,-5.9668,-5.9825,-6.001,-6.0194,-6.0194,-6.0255,-6.0438,-6.0742,-6.1073,-6.1284,-6.1613,-6.1821,-6.1791,-6.1527,-6.1175,-6.0701,-6.004,-5.9819,-5.9896,-6.0194,-5.9896,-5.9329,-5.9627,-5.9444,-5.9153,-5.9339,-5.9606,-5.9895,0.0,-2.1323,-2.1323,-2.0221,-1.8824,-1.7282,-1.5683,-1.4647,-1.3929,-1.3649,-1.3778,-1.4075,-1.4484,-1.5487,-1.7151,-1.9599,-1.9857,-2.1027,-2.3698,-2.4438,-2.5126,-2.596,-2.7128,-2.8169,-2.9209,-2.9974,-3.1217,-3.2909,-3.3102,-3.3692,-3.4771,-3.5119,-3.5578,-3.6148,-3.6805,-3.7248,-3.7565,-3.8346,-3.8364,-3.7987,-3.8471,-3.8058,-3.718,-3.6699,-3.6115,-3.5514,-3.544,-3.5233,-3.4967,-3.5165,-3.5321,-3.5603,-3.5892,-3.5826,-3.5725,-3.6405,-3.8268,-4.0668,-4.3093,-4.4811,-4.6264,-4.7731,-4.9983,-5.185,-5.1684,-5.2355,-5.3234,-5.4046,-5.4627,-5.497,-5.5129,-5.5639,-5.5965,-5.5642,-5.5545,-5.5045,-5.3905,-5.3482,-5.3193,-5.2837,-5.3554,-5.4759,-5.65,-5.7651,-5.8474,-5.8924,-5.9121,-5.9267,-5.9544,-5.9544,-5.964,-5.9948,-5.9948,-5.9948,-6.0071,-6.0316,-6.056,-6.0831,-6.1075,-6.1255,-6.1284,-6.1319,-6.1234,-6.0998,-6.0607,-6.0126,-5.9563,-5.974,-5.9325,-5.8584,-5.8872,-5.8952,-5.8882,-5.8936,-5.9153,-5.9332,0.0,0.0,-2.2476,-2.0696,-1.9585,-1.8308,-1.6367,-1.4775,-1.401,-1.458,-1.5002,-1.5704,-1.6933,-1.8391,-1.9418,-1.9762,-2.0917,-2.2037,-2.2966,-2.3435,-2.4136,-2.5194,-2.5737,-2.7016,-2.9119,-2.8969,-3.0194,-3.2888,-3.2822,-3.3547,-3.4996,-3.5442,-3.5709,-3.5779,-3.6642,-3.6858,-3.6703,-3.7775,-3.7742,-3.7108,-3.7555,-3.704,-3.5938,-3.5777,-3.5123,-3.4268,-3.4486,-3.4524,-3.4492,-3.443,-3.4659,-3.4888,-3.4529,-3.4698,0.0,-3.7746,-4.0747,-4.3172,-4.2468,-4.495,-4.8061,-4.9547,-5.1127,-5.25,-5.3341,-5.3103,-5.2913,-5.351,-5.3185,-5.2944,-5.3486,-5.4027,-5.433,-5.4263,-5.4564,-5.4337,-5.3213,-5.2775,-5.2463,-5.1903,-5.2398,-5.3365,0.0,-5.7027,-5.8306,-5.8334,-5.8868,-5.9205,-5.9205,-5.9205,-5.9205,-5.9205,-5.9205,-5.942,-5.973,-5.973,-6.0222,-6.1193,-6.056,-6.0713,-6.1584,-6.0999,-6.0706,-6.0706,-6.0321,-5.9787,-5.9256,-5.9905,-5.9374,-5.8309,-5.9322,-5.9062,-5.825,-5.8609,-5.8882,-5.9063,0.0,0.0,0.0,-2.177,-2.0346,-1.8903,-1.7539,-1.5939,-1.5051,-1.5554,-1.6483,0.0,0.0,0.0,0.0,0.0,-2.154,-2.2059,-2.2925,-2.3305,-2.3677,-2.4098,-2.4976,-2.6044,-2.7385,-2.8496,-2.9984,-3.1841,-3.282,-3.3707,-3.4458,-3.5071,-3.5461,-3.566,-3.6059,-3.6375,-3.6568,-3.7061,-3.7034,-3.6648,-3.6711,-3.6396,-3.5885,-3.5777,-3.5004,-3.4023,0.0,-3.4053,-3.3669,-3.3356,-3.3858,-3.4607,-3.4345,-3.4528,-3.5505,-3.8795,-4.1232,-4.3382,-4.5593,-4.7383,-4.9068,-5.0764,-5.153,-5.2212,-5.3298,-5.3034,-5.2482,-5.2697,-5.2575,-5.2412,-5.2317,-5.278,-5.3333,-5.3866,-5.4024,-5.3825,-5.3123,-5.3429,-5.3183,-5.1663,-5.3097,0.0,0.0,0.0,0.0,-5.825,-5.8289,-5.8535,-5.9205,-5.9205,-5.908,-5.8892,-5.908,-5.9142,-5.9017,-5.9482,-5.9853,-6.0222,-6.0194,-6.047,-6.1015,-6.0752,-6.0905,-6.1291,-6.1175,-6.053,-5.9561,-5.9796,-5.9121,-5.7977,-5.8294,-5.8346,-5.8195,-5.8335,-5.8445,-5.8436,0.0,0.0,0.0,0.0,0.0,0.0,0.0,0.0,0.0,0.0,0.0,0.0,0.0,0.0,0.0,0.0,0.0,-2.1839,-2.2651,-2.2708,-2.2898,-2.3266,-2.3976,-2.4789,-2.5761,-2.7258,-2.8808,-3.039,-3.1608,-3.2764,-3.3871,-3.4464,-3.4973,-3.5436,-3.5645,-3.5641,-3.5616,-3.604,-3.5754,-3.5089,-3.5645,-3.5553,-3.5065,-3.5129,-3.4538,0.0,-3.342,-3.3186,-3.2969,-3.2837,-3.3751,-3.4942,-3.5114,-3.6449,-3.8371,-4.0664,-4.2606,-4.4635,-4.7528,-4.8616,-4.9383,-5.1175,-5.1603,-5.1803,-5.2634,-5.2017,-5.1258,-5.1045,-5.0657,-5.0293,-5.0146,-5.0654,-5.1595,-5.2939,-5.3508,-5.3681,-5.3459,-5.4062,-5.4054,-5.2492,-5.3788,-5.477,0.0,0.0,0.0,-5.7973,-5.8115,-5.8473,-5.9329,-5.9267,-5.908,-5.8892,-5.908,-5.908,-5.8892,-5.9267,-5.9544,-5.9544,-6.001,-6.0255,-6.0316,-6.056,-6.0923,-6.1255,-6.1404,-6.0734,-5.9538,-5.9538,-5.878,-5.7613,-5.7725,-5.7836,-5.7863,-5.7974,-5.8059,-5.7996,0.0,0.0,0.0,0.0,0.0,0.0,0.0,0.0,0.0,0.0,0.0,0.0,0.0,0.0,0.0,0.0,0.0,0.0,-2.211,-2.1815,-2.192,-2.2652,-2.2773,-2.3338,-2.4491,-2.5478,-2.6901,-2.8791,-2.9631,-3.1069,-3.3157,-3.3645,-3.4285,-3.4979,-3.5183,-3.4767,-3.3885,-3.4684,-3.4017,-3.2564,-3.4257,-3.4389,-3.359,-3.3953,-3.3741,-3.3114,-3.2171,-3.2107,-3.2513,-3.2944,-3.4356,-3.6129,-3.6936,-4.0112,-4.3517,-4.3206,-4.4748,-4.6861,-4.8295,-4.878,-4.9191,-5.0914,-5.1256,-5.1277,-5.1282,-5.0281,-4.9146,-4.8571,-4.7478,-4.6717,0.0,0.0,-4.9267,-5.1549,-5.3034,-5.3985,-5.4249,-5.4811,-5.4994,-5.4314,-5.4643,0.0,0.0,0.0,0.0,-5.7821,0.0,-5.8927,-5.9668,-5.9329,-5.9142,-5.9142,-5.9142,-5.9142,-5.908,-5.9142,-5.9142,-5.9205,-5.9825,-6.001,-5.973,-6.0316,-6.0681,-6.0681,-6.1013,-6.0437,-5.9335,-5.9306,-5.8523,-5.7361,-5.7727,-5.7642,-5.7418,-5.7727,-5.7839,-5.7807,0.0,0.0,0.0,0.0,0.0,0.0,0.0,0.0,0.0,0.0,0.0,0.0,0.0,0.0,0.0,0.0,0.0,0.0,-2.1642,-2.2445,-2.2727,-2.2271,-2.28,-2.3659,-2.4834,-2.6264,-2.7606,-2.8791,-3.0628,-3.1741,-3.2184,-3.2881,-3.3265,-3.3343,-3.3741,-3.3661,-3.3265,-3.3661,-3.3384,-3.2633,-3.2856,-3.2922,-3.2908,-3.2894,-3.266,-3.2393,-3.2435,-3.2749,-3.3167,-3.3816,-3.673,-4.0172,-4.0642,-4.2292,-4.4204,-4.475,-4.6122,-4.775,-4.9203,-4.9897,-5.0419,-5.1144,-5.0373,-4.9471,-4.9646,-4.8245,-4.6835,-4.6189,-4.5115,-4.4265,-4.404,-4.6169,-4.8417,-4.9584,-5.2602,0.0,-5.4863,-5.6118,0.0,-5.5353,-5.6265,-5.6997,-5.6996,-5.725,0.0,0.0,-5.8369,-5.8168,-5.9267,-5.9267,-5.8955,-5.8451,-5.8955,-5.8829,-5.8071,-5.8578,-5.8955,-5.9205,-5.9392,-5.9516,-5.973,-5.9915,-6.0194,-6.0681,-6.0499,-6.0281,-5.9945,-5.9246,-5.8552,-5.8058,-5.8115,-5.8115,-5.8058,-5.8172,-5.8172,-5.8141,0.0,0.0,0.0,0.0,0.0,0.0,0.0,0.0,0.0,0.0,0.0,0.0,0.0,0.0,0.0,0.0,0.0,0.0,0.0,-2.2669,-2.2806,-2.2389,-2.2628,-2.3085,-2.3752,-2.5134,-2.6287,-2.7188,-2.89,-3.0048,-3.0724,-3.1241,-3.1667,-3.1863,-3.221,-3.2155,-3.1803,-3.2105,-3.1899,0.0,0.0,-3.1863,-3.2057,-3.2197,-3.1978,-3.163,-3.1902,-3.3416,-3.5437,-3.6955,-3.9934,-4.3172,-4.4296,-4.5449,-4.6586,-4.7438,-4.8172,-4.9012,-5.028,-5.0524,-5.0402,-5.0322,-4.9015,-4.7529,-4.673,-4.534,-4.3862,-4.2581,-4.1842,-4.1349,-4.1354,-4.3782,-4.6486,-4.8319,-5.1839,0.0,-5.5741,-5.7111,-5.7756,-5.6967,-5.7784,-5.8328,-5.8201,-5.8402,-5.9094,0.0,-5.8842,-5.8416,-5.9758,-5.9158,-5.8641,-5.8451,-5.8641,-5.8515,-5.7944,-5.8262,-5.8578,-5.8767,-5.8767,-5.8955,-5.9267,-5.9138,-5.9366,-5.9855,0.0,-5.9491,-5.8954,-5.8838,-5.8552,-5.8089,-5.7914,-5.8232,-5.8697,-5.8406,-5.829,-5.8232,0.0,0.0,0.0,0.0,0.0,0.0,0.0,0.0,0.0,0.0,-2.3727,0.0,0.0,0.0,0.0,0.0,0.0,0.0,0.0,0.0,0.0,-2.2688,-2.2457,-2.2345,-2.2387,-2.3353,-2.4235,-2.505,-2.6142,-2.7417,-2.8884,-2.9193,-2.9685,-3.0336,-3.0637,-3.0514,-3.0059,-3.0422,-3.0243,-2.9755,-3.0765,-3.1086,-3.1137,0.0,0.0,-3.0939,-3.1289,-3.3911,-3.7638,-4.0563,-4.3251,-4.5608,-4.7456,-4.8629,-4.9462,-5.0247,-5.0236,-5.0237,-5.1309,-5.076,-4.9766,-4.9277,-4.7681,-4.5721,-4.352,-4.2174,-4.0764,-3.8743,-3.8309,-3.8443,-3.8745,-4.1234,-4.4186,-4.7229,-5.0811,-5.407,-5.6474,-5.7739,-5.8418,-5.8497,-5.8876,-5.9228,-5.9578,-5.9514,-5.9833,-6.091,-5.96,-5.9248,-6.0483,-5.9157,-5.8471,-5.8641,-5.8262,-5.8135,-5.8198,-5.8135,-5.8135,-5.8198,-5.8198,-5.8325,-5.8641,-5.8423,-5.848,-5.8847,-5.9123,-5.8648,-5.7738,-5.8373,-5.8289,-5.7715,-5.7481,-5.8088,-5.9045,-5.8523,-5.829,-5.829,0.0,0.0,0.0,0.0,0.0,0.0,0.0,0.0,0.0,0.0,-2.5799,-2.5951,0.0,0.0,0.0,0.0,0.0,0.0,0.0,0.0,0.0,-2.2643,-2.281,-2.3107,-2.3423,-2.3936,-2.4459,-2.493,-2.5877,-2.6437,-2.6576,-2.7521,-2.7916,-2.7946,-2.8754,-2.915,-2.9217,-2.9751,-2.9637,-2.9248,-3.035,-3.0637,-3.0445,-3.0264,0.0,0.0,-3.2021,-3.3466,-3.573,-4.0751,-4.4811,-4.7873,-4.8864,-4.9828,-5.0658,-5.1215,-5.1057,-5.076,-5.1413,-5.076,-4.9827,-4.9515,-4.7276,-4.4568,-4.2541,-4.0477,0.0,-3.6757,-3.6322,-3.6279,-3.6241,-3.9382,-4.2825,-4.5448,-4.9435,-5.3339,-5.6395,-5.7373,-5.7974,0.0,-5.8876,-5.9228,-5.9578,-5.9889,0.0,0.0,-6.0306,-5.9858,-6.0188,-5.9639,-5.9042,-5.8289,-5.7688,-5.7624,-5.8198,-5.7944,-5.7944,-5.8198,-5.8198,-5.8198,-5.8262,-5.8214,-5.8564,-5.9127,-5.894,0.0,-5.8908,-5.8241,-5.776,-5.7482,-5.7657,-5.7859,-5.809,-5.8234,-5.829,-5.8232,0.0,0.0,0.0,0.0,0.0,0.0,0.0,-2.5302,-2.6435,-2.7693,-2.7615,-2.7577,-2.788,-2.7759,-2.7481,0.0,0.0,0.0,0.0,0.0,0.0,0.0,-2.3386,-2.3457,-2.3619,-2.3922,-2.4154,-2.4263,0.0,-2.5209,-2.5142,-2.6036,-2.6389,-2.6346,-2.7167,-2.7631,-2.7857,-2.8703,-2.9042,-2.9093,-3.012,-3.0701,0.0,0.0,0.0,0.0,0.0,-3.3233,-3.5038,-3.8283,-4.191,-4.5555,-4.8421,-4.9929,-5.0664,-5.0673,-5.0943,-5.1318,-5.1731,-5.0883,-4.9748,-4.8976,-4.613,-4.2735,-3.9708,0.0,0.0,-3.3538,-3.3553,-3.3933,-3.4061,-3.7149,-4.0457,-4.2844,-4.6535,-5.0571,-5.4918,-5.5692,-5.6605,-5.8596,-5.8947,-5.9228,-5.9578,-5.9969,-6.0522,-6.1234,-6.092,-6.0615,-6.0533,-5.9571,-5.8641,-5.7715,-5.7367,-5.7367,-5.7688,-5.7496,-5.7496,-5.7688,-5.7688,-5.7752,-5.7944,-5.7614,-5.7729,-5.823,-5.823,-5.8143,-5.8015,-5.7885,-5.7721,-5.7558,-5.7224,-5.7484,-5.8087,-5.8061,-5.8061,-5.8003,0.0,0.0,0.0,0.0,0.0,0.0,0.0,-2.5748,-2.7151,-2.857,-2.9022,-2.9086,-2.8774,-2.8643,-2.8629,0.0,0.0,0.0,0.0,0.0,0.0,0.0,0.0,-2.3978,-2.4077,0.0,0.0,-2.3972,-2.4228,0.0,0.0,0.0,0.0,0.0,-2.6111,-2.6533,-2.679,-2.7942,-2.86,0.0,0.0,-3.0816,0.0,0.0,0.0,0.0,0.0,-3.2811,-3.4255,-3.5775,-3.826,-4.1506,-4.5715,-4.8346,-4.9811,-4.9752,-5.0603,-5.1688,-5.2094,-5.1215,-4.985,-4.8726,-4.5399,-4.1389,-3.7709,-3.5319,-3.3248,-3.105,-3.1396,-3.2232,-3.2736,-3.5178,-3.8051,-4.0851,-4.3882,-4.7811,-5.3226,-5.4261,-5.552,-5.8516,-5.9008,0.0,-5.9578,-5.9969,0.0,-6.1166,-6.1057,-6.0959,-6.0799,-5.9418,-5.8243,-5.7391,-5.7255,-5.7174,-5.7174,-5.7174,-5.7174,-5.7174,-5.7174,-5.7303,-5.756,-5.7068,-5.7067,-5.7382,-5.7668,-5.7376,-5.6832,-5.729,-5.7362,-5.7143,-5.6446,-5.6848,-5.7764,-5.757,-5.7484,-5.7571,0.0,0.0,0.0,0.0,0.0,0.0,0.0,-2.6259,-2.7216,-2.847,-2.9717,-3.0507,-3.0452,-3.0091,-2.9545,0.0,0.0,0.0,0.0,0.0,0.0,0.0,0.0,0.0,0.0,0.0,0.0,-2.497,-2.4693,0.0,0.0,0.0,0.0,0.0,0.0,0.0,-2.679,-2.8109,0.0,0.0,0.0,0.0,0.0,0.0,0.0,0.0,0.0,0.0,-3.2265,-3.5201,-3.6305,-3.6907,-3.9462,-4.387,-4.8179,-4.8881,-5.0339,-5.1801,-5.2394,-5.1675,-5.0564,-4.9622,-4.5927,-4.1755,-3.8641,-3.5789,-3.3215,-3.104,-3.1422,-3.232,-3.3027,-3.4192,-3.6488,-4.0856,-4.3149,-4.6447,-5.2315,-5.4236,-5.5835,-5.7989,0.0,0.0,-5.9578,-5.9969,-6.0411,-6.0824,-6.0335,-6.0117,-6.0438,-5.9287,-5.8434,-5.8053,-5.7472,-5.7174,-5.7174,-5.7174,-5.7174,-5.7174,-5.7174,-5.7238,-5.7238,-5.7184,-5.735,-5.767,-5.767,-5.7201,0.0,-5.6526,-5.6043,-5.5311,-5.5493,-5.5872,-5.6247,-5.6451,-5.6537,-5.6537,0.0,0.0,0.0,0.0,0.0,0.0,-2.5149,-2.6193,-2.743,-2.9281,-2.9767,-3.0426,-3.1596,-3.115,-3.065,-3.041,0.0,0.0,0.0,0.0,0.0,0.0,0.0,0.0,0.0,0.0,0.0,-2.6596,-2.6392,0.0,0.0,0.0,0.0,0.0,0.0,0.0,0.0,0.0,0.0,0.0,0.0,0.0,0.0,0.0,0.0,0.0,0.0,0.0,-3.2854,-3.3445,-3.4413,-3.5417,-3.5573,-3.9104,-4.3687,-4.6033,-4.844,-5.0705,-5.1997,-5.165,-5.0649,-4.9591,-4.5688,-4.1255,-3.7955,-3.4915,-3.222,-3.0278,-3.0413,-3.124,-3.2254,-3.3146,-3.4906,-3.8389,-3.9774,-4.2511,-4.8233,-4.9658,-5.168,-5.5921,-5.7085,-5.8064,0.0,0.0,-6.0411,-6.0782,-6.0565,-6.0471,-6.0607,-5.9463,-5.8418,-5.7553,-5.7662,-5.7553,-5.7174,-5.7174,-5.7174,-5.7174,-5.7174,-5.7174,-5.7174,-5.7174,-5.7238,-5.7431,-5.7624,-5.7286,0.0,-5.6479,-5.5939,-5.5289,-5.5075,-5.5172,-5.5437,-5.5729,-5.6019,-5.6193,0.0,0.0,0.0,0.0,0.0,-2.3687,-2.5175,-2.6163,-2.7507,-2.9693,-2.9869,-3.0385,-3.2042,-3.1916,-3.1673,-3.1612,-3.0675,0.0,0.0,0.0,0.0,0.0,0.0,0.0,0.0,0.0,-2.8831,-2.8331,-2.8155,-2.7574,0.0,0.0,0.0,0.0,0.0,0.0,0.0,0.0,0.0,0.0,0.0,0.0,0.0,0.0,0.0,0.0,0.0,0.0,0.0,0.0,0.0,-3.4659,-3.3568,-3.5972,-3.9841,-4.3211,-4.6405,-4.9232,-5.1003,-5.0864,-5.0072,-4.9129,-4.5209,-4.0758,-3.7917,-3.464,-3.1829,-3.0539,-3.0417,-3.0907,-3.2241,-3.2948,-3.4205,-3.6925,-3.8077,-4.0529,-4.576,-4.7285,-4.9561,-5.4288,0.0,-5.698,-5.8775,-5.9574,-6.0273,-6.0755,-6.0361,-6.0253,-6.0511,-5.9561,-5.8612,-5.7743,-5.777,-5.7608,-5.7174,-5.7174,-5.7174,-5.7174,-5.7174,-5.7109,-5.7044,-5.7044,-5.6979,-5.6915,-5.7238,0.0,0.0,-5.6073,-5.5627,-5.4891,-5.4566,-5.4639,-5.4936,-5.5261,-5.5496,-5.5729,0.0,0.0,0.0,0.0,0.0,0.0,-2.5668,-2.6253,-2.7309,-2.9515,-3.0153,-3.0753,-3.1702,-3.2345,-3.2526,-3.2145,-3.1576,0.0,0.0,0.0,0.0,0.0,0.0,0.0,0.0,0.0,-3.0474,-3.0062,-2.9741,-2.939,-2.8948,-2.7804,-2.7268,-2.7243,0.0,0.0,0.0,0.0,0.0,0.0,0.0,0.0,0.0,0.0,0.0,0.0,0.0,0.0,0.0,0.0,0.0,0.0,0.0,-3.5075,-3.7474,-4.079,-4.4432,-4.7731,-4.9239,-4.9153,-4.8666,-4.8385,-4.4572,-4.0535,-3.9113,-3.547,-3.238,-3.2368,-3.1928,-3.1993,-3.3581,-3.3899,-3.4733,-3.7306,-3.9142,-4.1746,-4.5929,-4.8647,-5.1189,0.0,-5.4918,-5.6079,-5.7267,-5.8775,-5.9927,-6.0782,-5.9332,0.0,-5.986,-5.9317,-5.8992,-5.8992,-5.7825,-5.7201,-5.7174,-5.7174,-5.7174,-5.7174,-5.7174,-5.7044,-5.6747,-5.6747,-5.6459,-5.6132,0.0,0.0,0.0,-5.5159,-5.4704,-5.3679,-5.3954,-5.4341,-5.4667,-5.4936,-5.5026,-5.5085,0.0,0.0,0.0,0.0,0.0,0.0,0.0,-2.6492,-2.7547,-2.894,-3.0174,-3.1225,-3.1937,-3.2415,-3.2692,-3.2702,-3.2173,0.0,0.0,0.0,0.0,0.0,0.0,0.0,0.0,0.0,-3.1948,-3.1665,-3.1478,-3.0868,-2.9941,-2.946,-2.8585,-2.7516,-2.7268,0.0,0.0,0.0,0.0,0.0,0.0,0.0,0.0,0.0,0.0,0.0,0.0,0.0,0.0,0.0,0.0,0.0,0.0,0.0,0.0,-3.7243,-4.0649,-4.4169,-4.4837,-4.5459,-4.5597,-4.4178,-4.1764,-3.9291,-3.731,-3.5093,-3.3223,-3.2552,-3.2239,-3.2501,-3.3847,-3.4006,-3.502,-3.8582,-3.98,-4.1625,-4.5524,-4.7815,0.0,-5.2496,-5.5284,-5.7456,0.0,0.0,-5.9242,-5.9722,-5.9407,-5.9234,-5.9317,-5.8631,-5.8268,-5.8367,-5.8395,-5.7883,-5.6877,-5.6877,-5.6877,-5.685,-5.659,-5.6524,-5.6682,-5.6682,-5.6459,0.0,0.0,0.0,0.0,-5.4815,-5.436,-5.3855,-5.3511,-5.3985,-5.4858,-5.4538,-5.4948,-5.5583,0.0,0.0,0.0,0.0,0.0,0.0,0.0,-2.661,-2.7613,-2.8757,-3.0034,-3.121,-3.2109,-3.2389,-3.2659,-3.3094,-3.2618,0.0,0.0,0.0,0.0,0.0,0.0,0.0,0.0,-3.3304,-3.3167,-3.3101,-3.2846,-3.2289,-3.1501,-3.0992,-3.0095,-2.8862,-2.8273,0.0,0.0,0.0,0.0,0.0,0.0,0.0,0.0,0.0,0.0,0.0,0.0,0.0,0.0,0.0,0.0,0.0,0.0,0.0,0.0,0.0,-3.6864,-3.9776,-4.1551,-4.2334,-4.2479,-4.1593,-3.986,-3.8069,-3.669,-3.5031,-3.3711,-3.3473,-3.3183,-3.3316,-3.442,-3.4566,-3.5387,-3.8206,-3.9495,-4.1324,-4.4784,-4.7179,-4.9646,-5.2559,-5.5255,0.0,0.0,-5.8652,-5.8881,-5.9365,-5.9222,-5.9051,-5.8968,-5.8294,-5.7825,-5.7674,-5.7836,-5.75,-5.6682,-5.6551,-5.6459,-5.6459,-5.6197,-5.6132,-5.6263,-5.6263,-5.6066,0.0,0.0,0.0,0.0,-5.4879,-5.4564,-5.3913,-5.3664,-5.4117,-5.4882,-5.4378,-5.477,-5.5501,0.0,0.0,0.0,0.0,0.0,0.0,0.0,-2.6469,-2.7443,-2.8778,-2.9688,-3.0746,-3.2112,-3.2171,-3.2416,-3.3143,0.0,0.0,0.0,0.0,0.0,0.0,0.0,0.0,0.0,-3.3987,-3.4015,-3.4272,-3.39,-3.3619,-3.3354,-3.2565,-3.1794,-3.1037,-2.96,-2.8903,0.0,0.0,0.0,0.0,0.0,0.0,0.0,0.0,0.0,0.0,0.0,0.0,0.0,0.0,0.0,0.0,0.0,0.0,0.0,0.0,0.0,0.0,0.0,-3.96,-3.9282,-4.0034,-3.8503,-3.675,-3.6653,-3.5077,0.0,-3.4776,-3.443,-3.4297,-3.5397,-3.5533,-3.588,-3.7093,-3.8879,-4.1154,-4.4072,-4.6991,-5.012,-5.355,-5.5127,0.0,-5.697,-5.7877,-5.8727,-5.9429,-5.8646,-5.8302,-5.8636,-5.8062,-5.7503,-5.6957,-5.6332,-5.6197,-5.6616,-5.6263,-5.6066,-5.6066,-5.6066,-5.5868,-5.5604,-5.5604,-5.5432,0.0,0.0,0.0,0.0,-5.5344,-5.497,-5.39,-5.4219,-5.4564,-5.4916,-5.4546,-5.4726,-5.5038,0.0,0.0,0.0,0.0,0.0,0.0,0.0,0.0,0.0,0.0,-2.8768,-2.9931,-3.0718,-3.1736,-3.2317,0.0,0.0,0.0,0.0,0.0,0.0,0.0,0.0,0.0,0.0,-3.4009,-3.3924,-3.4011,-3.4551,-3.4605,-3.4231,-3.4473,-3.3686,-3.2133,-3.1604,-3.0701,0.0,0.0,0.0,0.0,0.0,0.0,0.0,0.0,0.0,0.0,-3.0027,-3.0127,0.0,0.0,0.0,0.0,0.0,0.0,0.0,0.0,-3.2763,-3.3091,-3.4948,0.0,-3.5838,-3.4685,-3.4507,-3.4406,0.0,-3.3409,-3.3668,-3.3922,-3.4293,-3.5194,-3.7184,-3.6987,-3.7767,-4.1576,-4.2917,-4.4332,-4.6813,-4.9602,-5.244,-5.5268,-5.5736,-5.6261,-5.758,-5.7799,-5.8053,-5.8471,-5.8061,-5.7683,-5.7464,-5.6739,-5.6329,-5.6345,-5.5683,-5.5472,-5.5868,-5.5736,-5.5736,-5.5736,-5.5498,-5.5432,-5.5604,-5.5604,-5.5538,0.0,0.0,0.0,-5.4993,-5.4967,-5.4815,-5.46,-5.4437,-5.5022,-5.588,-5.5069,-5.5166,-5.5607,0.0,0.0,0.0,0.0,0.0,0.0,0.0,0.0,0.0,0.0,0.0,-2.962,-3.0234,-3.1287,0.0,0.0,0.0,0.0,0.0,0.0,0.0,0.0,0.0,0.0,-3.4282,-3.4561,-3.4817,-3.5,-3.5576,-3.5827,-3.5762,-3.6182,-3.5507,-3.3907,-3.2909,-3.1633,0.0,0.0,0.0,0.0,0.0,0.0,0.0,0.0,0.0,0.0,-2.8874,-2.9096,0.0,-3.0004,-3.0663,-3.1306,0.0,0.0,0.0,0.0,-3.1693,-3.1602,-3.2776,-3.4428,-3.5746,-3.5297,-3.5375,-3.5295,-3.4451,-3.3845,-3.3504,-3.3491,-3.4323,-3.5536,-3.7277,-3.7854,-3.9117,-4.2293,-4.3728,-4.5561,-4.8845,-5.1298,-5.3409,-5.5235,-5.5865,-5.6434,0.0,-5.7616,-5.7939,-5.7982,-5.7676,-5.722,-5.6569,-5.6112,-5.5782,-5.5631,-5.5299,-5.5232,-5.5604,-5.5432,-5.5365,-5.5365,-5.5165,-5.5232,-5.5365,-5.5365,-5.5365,0.0,0.0,0.0,-5.5365,-5.5034,-5.5135,-5.5403,-5.4944,-5.5468,-5.6374,-5.5589,-5.5438,-5.564,0.0,0.0,0.0,0.0,0.0,0.0,0.0,0.0,0.0,0.0,0.0,0.0,0.0,0.0,0.0,0.0,0.0,0.0,0.0,0.0,0.0,0.0,0.0,-3.4504,-3.4469,-3.5285,-3.5874,-3.6212,-3.6647,-3.7016,-3.7315,-3.7691,-3.7165,-3.5709,-3.3718,-3.2125,0.0,0.0,0.0,0.0,0.0,0.0,0.0,0.0,0.0,0.0,0.0,0.0,0.0,-2.956,-3.0204,-3.0943,-3.0943,0.0,0.0,0.0,0.0,0.0,-3.2005,-3.4778,-3.7376,-3.7779,-3.7771,-3.7445,-3.6531,-3.4978,-3.3658,-3.3472,-3.4484,-3.5887,-3.728,-3.8839,-4.0483,-4.2398,-4.4042,-4.6514,-5.0454,-5.2331,-5.3622,-5.4418,-5.5803,0.0,-5.647,-5.7521,-5.8087,-5.773,-5.7387,-5.681,-5.5935,-5.583,-5.5569,-5.5125,-5.5099,-5.5232,-5.5538,-5.5232,-5.5099,-5.5099,-5.5099,-5.5099,-5.5099,-5.5099,-5.5099,-5.5165,0.0,0.0,-5.5512,-5.5271,-5.548,-5.5945,-5.5415,-5.5835,-5.6601,-5.6052,-5.569,-5.5391,0.0,0.0,0.0,0.0,0.0,0.0,0.0,0.0,0.0,0.0,0.0,0.0,0.0,0.0,0.0,0.0,0.0,0.0,0.0,0.0,0.0,0.0,-3.4276,-3.4433,-3.4225,-3.5265,-3.5784,-3.577,-3.7232,-3.7882,-3.7739,-3.9008,-3.8448,-3.6215,-3.4002,-3.2696,-3.2073,0.0,0.0,0.0,0.0,0.0,0.0,0.0,0.0,0.0,0.0,0.0,0.0,-2.8047,-2.8842,-2.9878,-3.0114,0.0,0.0,0.0,0.0,0.0,-3.2928,-3.6467,-3.8836,-3.5897,-3.6878,-3.7887,-3.5251,-3.4926,-3.4963,-3.4226,-3.5149,-3.7001,-4.0054,-4.1255,-4.2918,-4.6543,-4.8341,-4.9984,-5.182,0.0,-5.3358,-5.4646,0.0,-5.6522,-5.6918,-5.7885,-5.8253,-5.7756,-5.7207,-5.6605,-5.5935,-5.5465,-5.5203,-5.5099,-5.5099,-5.5099,-5.5165,-5.5099,-5.5099,-5.5099,-5.5099,-5.5099,-5.5099,-5.5099,-5.5232,-5.5445,0.0,-5.4734,-5.5256,-5.489,-5.502,-5.5374,-5.5511,-5.5986,-5.6655,-5.6221,-5.5784,-5.5309,0.0,0.0,0.0,0.0,0.0,0.0,0.0,0.0,0.0,0.0,0.0,0.0,0.0,0.0,0.0,0.0,0.0,0.0,0.0,0.0,0.0,-3.3725,-3.4539,-3.4845,-3.451,-3.5443,-3.6022,-3.6353,-3.7497,-3.8321,-3.8824,-3.9084,-3.8421,-3.6989,-3.5283,-3.4297,-3.3881,-3.2991,0.0,0.0,0.0,0.0,0.0,0.0,0.0,0.0,0.0,0.0,0.0,0.0,-2.8362,-2.9448,-2.9478,0.0,0.0,0.0,0.0,0.0,-3.2355,-3.5608,-3.8287,-3.7479,-3.955,-4.1263,-3.9474,-3.8263,-3.7306,-3.6496,-3.7346,-3.8939,-4.1101,-4.2754,-4.4976,-4.8505,-5.069,-5.2067,-5.2349,-5.3101,-5.3815,0.0,0.0,-5.6176,-5.5915,-5.6755,-5.6998,-5.6496,-5.606,-5.5684,-5.5195,-5.5095,-5.4898,-5.4537,-5.4898,-5.5032,-5.4805,-5.4805,-5.4872,-5.5099,-5.5099,-5.5099,-5.5099,-5.5099,-5.5165,-5.5272,0.0,-5.4945,-5.5379,-5.493,-5.5114,-5.5667,-5.5483,-5.5773,-5.6367,-5.6046,-5.5569,-5.5086,0.0,0.0,0.0,0.0,0.0,0.0,0.0,0.0,0.0,0.0,0.0,0.0,0.0,0.0,0.0,0.0,0.0,0.0,0.0,0.0,-3.3946,-3.3901,-3.4986,-3.5306,-3.4737,-3.5648,-3.6347,-3.6852,-3.7617,-3.855,-3.9541,-3.8866,-3.8146,-3.7366,-3.6409,-3.5714,-3.5152,-3.4705,-3.4479,0.0,0.0,0.0,0.0,0.0,0.0,0.0,0.0,0.0,0.0,0.0,0.0,0.0,0.0,0.0,0.0,-2.9802,-2.9818,-3.0066,-3.1817,-3.4628,-3.7457,-3.9169,-4.1641,-4.3651,-4.3551,-4.163,-3.9767,-3.9496,-4.023,-4.1243,-4.2204,-4.4638,-4.727,-4.9827,-5.2234,-5.3465,-5.2606,-5.3492,-5.4285,-5.4257,-5.5211,-5.5606,-5.4988,-5.5632,-5.5874,-5.5306,-5.5138,-5.4827,-5.4376,-5.4671,-5.4604,-5.3997,-5.4537,-5.4671,-5.4376,-5.4376,-5.4578,-5.5099,-5.5032,-5.5032,-5.5099,-5.5099,-5.5099,-5.5099,-5.4942,-5.5101,-5.5445,-5.4866,-5.5076,-5.5815,-5.5391,-5.5536,-5.5986,-5.5751,-5.5435,-5.5051,0.0,0.0,0.0,0.0,0.0,0.0,0.0,0.0,0.0,0.0,0.0,0.0,0.0,0.0,0.0,0.0,0.0,0.0,0.0,0.0,-3.4369,-3.4808,-3.5581,-3.5571,-3.4551,-3.5832,-3.6578,-3.6605,-3.7772,-3.8612,-3.9167,-3.8894,-3.8066,-3.6772,-3.6665,-3.6116,-3.5189,-3.5152,-3.5041,-3.4817,0.0,0.0,0.0,0.0,0.0,0.0,0.0,0.0,0.0,0.0,0.0,0.0,0.0,0.0,-2.8943,-2.9091,-2.9287,-2.9911,-3.2127,-3.4707,-3.7149,-3.8968,-4.0629,-4.2384,-4.444,-4.3093,-4.1875,-4.3143,-4.3463,-4.3689,-4.4292,-4.7637,-5.0477,-5.1005,-5.3305,-5.4311,-5.2539,0.0,-5.4257,-5.3657,-5.4423,-5.4988,-5.4868,-5.5424,-5.5501,-5.4988,-5.4911,-5.4629,-5.409,-5.4064,-5.4064,-5.3997,-5.4064,-5.4064,-5.4064,-5.4064,-5.4402,-5.5099,-5.4712,-5.4738,-5.5099,-5.5099,-5.5099,-5.5072,-5.4497,-5.4576,-5.5113,-5.4445,-5.4616,-5.5165,-5.5113,-5.5313,-5.5591,-5.5336,-5.5446,-5.5579,0.0,0.0,0.0,0.0,0.0,0.0,0.0,0.0,0.0,0.0,0.0,0.0,0.0,0.0,0.0,0.0,0.0,0.0,0.0,0.0,-3.4192,-3.5142,-3.5739,-3.5842,-3.5466,-3.5927,-3.6446,-3.6964,-3.8102,-3.8706,-3.8741,-3.8267,-3.7714,-3.7084,-3.6947,-3.6654,-3.6342,-3.6457,-3.6304,-3.5969,-3.5464,0.0,0.0,0.0,0.0,0.0,0.0,0.0,0.0,0.0,-2.7007,-2.7633,-2.7378,-2.7989,-2.8709,-2.8257,-2.8719,-2.9712,-3.1178,-3.4078,-3.7191,-3.9169,-4.1056,-4.2977,-4.5099,-4.5603,-4.5999,-4.699,-4.6929,-4.6711,-4.6798,-4.8987,-5.094,-5.138,-5.3395,-5.4459,-5.3292,-5.3952,-5.4309,-5.3861,-5.4235,-5.4396,-5.4039,-5.4264,-5.4366,-5.4039,-5.4014,-5.3912,-5.3682,-5.3861,-5.3793,-5.3316,-5.3793,-5.3929,-5.3682,-5.3682,-5.3929,-5.4402,-5.4241,-5.4376,-5.4738,-5.4738,-5.4872,-5.5099,-5.4863,-5.4889,-5.5072,-5.4863,-5.4889,-5.5099,-5.5099,-5.5165,-5.5339,-5.5432,-5.5442,-5.5339,0.0,0.0,0.0,0.0,0.0,0.0,0.0,0.0,0.0,0.0,0.0,0.0,0.0,0.0,0.0,0.0,0.0,0.0,-3.2018,-3.288,-3.3823,-3.4839,-3.5741,-3.608,-3.577,-3.6182,-3.6589,-3.7,-3.8169,-3.8462,-3.7979,-3.7739,-3.733,-3.6783,-3.694,-3.69,-3.685,-3.7162,-3.7123,-3.6744,-3.6286,-3.5498,0.0,0.0,0.0,0.0,0.0,0.0,0.0,0.0,-2.6347,-2.6721,-2.642,-2.7222,-2.8222,-2.7789,-2.8878,-3.0372,-3.1107,-3.4028,-3.7319,-3.9296,-4.1562,-4.391,-4.6189,-4.7341,-4.8381,-4.9787,-4.9343,-4.8818,-4.9168,-5.013,-5.1168,0.0,-5.3476,-5.4353,-5.3576,-5.3974,-5.4174,-5.3725,-5.3876,-5.384,-5.3366,-5.3394,-5.3375,-5.3298,-5.3341,-5.3341,-5.3341,-5.3521,-5.3384,-5.2929,-5.3384,-5.3521,-5.3341,-5.3341,-5.341,-5.3657,-5.3657,-5.3903,-5.4376,-5.4443,-5.4645,-5.4939,-5.5165,-5.5232,-5.5099,-5.5258,-5.5232,-5.5099,-5.5099,-5.5099,-5.5099,-5.5365,-5.5432,-5.5244,0.0,0.0,0.0,0.0,0.0,0.0,0.0,0.0,0.0,0.0,0.0,0.0,0.0,0.0,0.0,0.0,0.0,0.0,-3.0775,-3.2233,-3.3307,-3.3791,-3.5589,-3.6191,-3.5345,-3.6766,-3.7238,-3.6615,-3.7879,-3.7951,-3.6935,-3.7355,-3.693,-3.575,-3.6626,-3.6772,-3.6445,-3.7046,-3.7173,-3.6978,-3.6772,-3.6097,0.0,0.0,0.0,0.0,0.0,0.0,0.0,0.0,-2.5404,-2.4964,-2.5829,0.0,-2.7332,-2.7843,-2.9843,-3.196,-3.2333,-3.4711,-3.7539,-3.9347,-4.2027,-4.4972,-4.7821,-4.8085,-4.8404,-5.122,-5.0434,-4.9696,-5.1304,-5.1398,-5.1606,-5.2813,-5.3883,-5.417,-5.3228,-5.3638,-5.3725,-5.2998,-5.3273,-5.3341,-5.2929,-5.2929,-5.2929,-5.2929,-5.2929,-5.2929,-5.2929,-5.2929,-5.2861,-5.2861,-5.2861,-5.2861,-5.2929,-5.2929,-5.2929,-5.2929,-5.2929,-5.3273,-5.3997,-5.4309,-5.4511,-5.4578,-5.5272,-5.5432,-5.5099,-5.5617,-5.5551,-5.5099,-5.5099,-5.5099,-5.5099,-5.5099,-5.5299,-5.5525,0.0,0.0,0.0,0.0,0.0,0.0,0.0,0.0,0.0,0.0,0.0,0.0,0.0,0.0,0.0,0.0,0.0,0.0,-3.1754,-3.2072,-3.2838,-3.4375,-3.5496,-3.6342,-3.6752,-3.7673,-3.7968,-3.7661,-3.7675,-3.7482,-3.7167,-3.6698,-3.6383,-3.6178,-3.6457,-3.6575,-3.6642,-3.7123,-3.7123,-3.6772,-3.6889,-3.6186,0.0,0.0,0.0,0.0,0.0,0.0,0.0,0.0,0.0,0.0,-2.5255,0.0,-2.8271,-2.7624,-2.9548,-3.1928,-3.2077,-3.5169,-3.8743,-4.0542,-4.4051,-4.7516,-4.9317,-4.9999,-5.0768,-5.2429,-5.2243,-5.1782,-5.1869,-5.2223,-5.2623,-5.3162,-5.4092,-5.4417,-5.3849,-5.3894,-5.3725,-5.2998,-5.2998,-5.2998,-5.2929,-5.2929,-5.2929,-5.2929,-5.2929,-5.2792,-5.2585,-5.2585,-5.2446,-5.2169,-5.2169,-5.2238,-5.2585,-5.2585,-5.2654,-5.2929,-5.3306,-5.3558,-5.3682,-5.3725,-5.3929,-5.4174,-5.4402,-5.4537,-5.4712,-5.5099,-5.5258,-5.5099,-5.5099,-5.5099,-5.5099,-5.5099,-5.5169,-5.5244,0.0,0.0,0.0,0.0,0.0,0.0,0.0,0.0,0.0,0.0,0.0,0.0,0.0,0.0,0.0,0.0,0.0,0.0,0.0,-3.197,-3.2857,-3.4358,-3.5339,-3.6389,-3.748,-3.7937,-3.8208,-3.8274,-3.7856,-3.7461,-3.7143,-3.6356,-3.5951,-3.5898,-3.5978,-3.5922,-3.5861,-3.6342,-3.6269,-3.5737,-3.5787,-3.5333,-3.4535,0.0,0.0,0.0,0.0,0.0,0.0,0.0,0.0,0.0,-2.4994,-2.6181,-2.7927,-2.7852,-3.0198,-3.3119,-3.4268,-3.7287,-4.0734,-4.3342,-4.6101,-4.8748,-5.0857,-5.1639,-5.2185,-5.3104,-5.2777,-5.2528,-5.2958,-5.2919,0.0,-5.3949,-5.4406,-5.4522,-5.4257,-5.4064,-5.3793,-5.3204,-5.3136,-5.3067,-5.2929,-5.2929,-5.2861,-5.2723,-5.2723,-5.2515,-5.2169,-5.2169,-5.203,-5.182,-5.182,-5.203,-5.2377,-5.2576,-5.2909,-5.3231,-5.3557,-5.3671,-5.3576,-5.3739,-5.3886,-5.3997,-5.4106,-5.4428,-5.4723,-5.473,-5.4797,-5.4846,-5.4771,-5.4889,-5.5099,-5.5099,-5.5195,-5.5258,0.0,0.0,0.0,0.0,0.0,0.0,0.0,0.0,0.0,0.0,0.0,0.0,0.0,0.0,0.0,0.0,0.0,0.0,0.0,0.0,-3.3096,-3.3932,-3.5351,-3.6639,-3.7732,-3.7912,-3.8237,-3.8692,-3.8381,-3.7825,-3.7017,-3.6362,-3.5763,-3.5249,-3.5386,-3.5103,-3.4644,-3.5283,-3.5107,-3.4327,-3.4175,-3.4061,-3.3903,-3.2863,0.0,0.0,0.0,0.0,0.0,0.0,0.0,0.0,-2.5159,-2.567,-2.6952,-2.8275,-3.1241,-3.4698,-3.7413,-4.0005,-4.2886,-4.6734,-4.8033,-4.9153,-5.2287,-5.2833,-5.2835,-5.3487,-5.2708,-5.2501,-5.4237,-5.3723,-5.3451,-5.4849,-5.4805,-5.4578,-5.4511,-5.4174,-5.3861,-5.3546,-5.3478,-5.3273,-5.2929,-5.2861,-5.2723,-5.2446,-5.2377,-5.2169,-5.1751,-5.1751,-5.1751,-5.1681,-5.1751,-5.196,-5.2377,-5.2874,-5.3333,-5.3708,-5.3708,-5.3708,-5.3778,-5.4031,-5.4098,-5.3929,-5.4309,-5.4656,-5.4961,-5.4417,-5.4311,-5.4407,-5.4273,-5.4602,-5.5099,-5.5099,-5.5313,-5.5512,0.0,0.0,0.0,0.0,0.0,0.0,0.0,0.0,0.0,0.0,0.0,0.0,0.0,0.0,0.0,0.0,0.0,0.0,0.0,0.0,-3.263,-3.3709,-3.6412,-3.8221,-3.902,-3.9521,-3.9853,-4.0003,-3.8951,-3.8089,-3.7471,-3.6794,-3.6322,-3.6098,-3.5978,-3.5663,-3.5322,-3.5965,-3.5639,-3.478,-3.4854,-3.4592,-3.4028,-3.2742,-3.2479,0.0,0.0,0.0,0.0,0.0,0.0,0.0,-2.7293,-2.7545,-2.8098,-2.8197,-3.0331,-3.3063,-3.4996,-3.8162,-4.1876,-4.5779,-4.9006,-5.1332,-5.2254,-5.2777,-5.3238,-5.4138,-5.4035,-5.4092,-5.4846,-5.4756,-5.4745,-5.5072,-5.5032,-5.4872,-5.4578,-5.4174,-5.3861,-5.3546,-5.3204,-5.2998,-5.2929,-5.2654,-5.2515,-5.2446,-5.2099,-5.1726,-5.1376,-5.1352,-5.1236,-5.0908,-5.1165,-5.1516,-5.196,-5.2337,-5.2959,0.0,-5.3708,-5.3847,-5.4151,-5.3514,-5.3168,-5.3179,-5.3861,-5.4132,-5.4225,-5.4381,-5.4608,-5.4939,-5.4582,-5.4701,-5.5099,-5.5099,-5.5208,-5.5282,0.0,0.0,0.0,0.0,0.0,0.0,0.0,0.0,0.0,0.0,0.0,0.0,0.0,0.0,0.0,0.0,0.0,0.0,0.0,0.0,-3.2662,-3.4313,-3.6891,-3.843,-3.8823,-3.9214,-3.9732,-4.0397,-3.9373,-3.9084,-3.9411,-3.955,-3.943,-3.9129,-3.8171,-3.7353,-3.6699,-3.6071,-3.5096,-3.3999,-3.3963,-3.3586,-3.2955,-3.2181,-3.1983,-3.2037,-3.1229,0.0,0.0,0.0,0.0,0.0,0.0,0.0,-2.8502,-2.8824,-3.042,-3.2664,-3.546,-3.8631,-4.2163,-4.6799,-5.0018,-5.216,-5.2542,-5.2945,-5.3372,-5.3855,-5.4148,-5.4376,-5.4738,-5.4805,-5.4872,-5.5099,-5.5099,-5.5032,-5.4805,-5.4443,-5.4174,-5.3997,-5.3521,-5.3204,-5.3204,-5.2723,-5.2308,-5.2169,-5.1726,-5.1376,-5.0954,-5.1095,-5.1165,-5.0954,-5.1095,-5.1516,-5.2099,-5.2594,-5.3122,-5.3708,-5.3984,-5.3928,-5.3633,-5.333,-5.3067,-5.2929,-5.3521,-5.3657,-5.3495,-5.3958,-5.4237,-5.4335,-5.4159,-5.4411,-5.4805,-5.4805,-5.5129,-5.556,0.0,0.0,0.0,0.0,0.0,0.0,0.0,0.0,0.0,0.0,0.0,0.0,0.0,0.0,0.0,0.0,0.0,0.0,0.0,-3.1656,-3.3164,-3.535,-3.7159,-3.8175,-3.8281,-3.8457,-3.9097,-4.0291,-3.9969,-4.0783,-4.2699,-4.2714,-4.2618,-4.2353,-4.0801,-3.9373,-3.798,-3.6306,-3.4659,-3.3199,-3.3094,-3.2716,-3.2139,-3.1854,-3.1673,-3.165,-3.1536,-3.1771,-3.2064,-3.1799,0.0,0.0,0.0,0.0,-2.8844,-2.9545,-3.0629,-3.237,-3.6025,-3.9406,-4.3067,-4.7902,-5.0439,-5.1918,-5.2516,-5.296,-5.3176,-5.3217,-5.3671,-5.4113,-5.4422,-5.45,-5.4712,-5.5032,-5.5099,-5.5099,-5.5099,-5.4805,-5.4578,-5.4578,-5.4064,-5.3682,-5.3614,-5.2904,-5.2283,-5.196,-5.1443,-5.102,-5.0787,-5.102,-5.116,-5.116,-5.1303,-5.1726,-5.2352,-5.3035,-5.3424,-5.3708,-5.4185,-5.3884,-5.2929,-5.324,-5.3189,-5.2847,-5.3291,-5.3359,-5.3096,-5.3458,-5.3654,-5.37,-5.3685,-5.3989,-5.4443,-5.4511,-5.5113,-5.592,0.0,0.0,0.0,0.0,0.0,0.0,0.0,0.0,0.0,0.0,-3.3243,-3.3034,-3.2437,-3.2348,0.0,0.0,0.0,0.0,-3.0806,0.0,0.0,-3.6264,-3.7466,-3.8281,-3.8632,-3.8806,-3.9238,-3.9965,-4.1167,-4.387,-4.7915,-4.4188,-4.2752,-4.3282,-4.2509,-4.0604,-3.8005,-3.7667,-3.6131,-3.3968,-3.4298,-3.4172,-3.3727,-3.3015,-3.3022,-3.3293,-3.2117,-3.2184,-3.2917,-3.3178,-3.2912,0.0,0.0,0.0,-2.9827,-2.9598,-2.9839,-3.0655,-3.2863,-3.8246,-4.3892,-4.6832,-4.8904,-5.0406,-5.125,-5.1874,-5.2329,-5.2575,-5.3465,-5.4183,-5.4249,-5.4666,-5.5032,-5.5099,-5.5099,-5.5099,-5.5099,-5.5032,-5.5032,-5.5032,-5.4671,-5.4241,-5.3997,-5.3291,-5.2698,-5.2377,-5.1516,-5.097,-5.097,-5.097,-5.1039,-5.1039,-5.1852,-5.2283,-5.2377,-5.2779,-5.3192,-5.3708,-5.3783,-5.3507,-5.2904,-5.2742,-5.2717,-5.2675,-5.325,-5.3538,-5.3572,-5.3538,-5.3852,-5.4309,-5.3716,-5.3742,-5.4106,-5.4376,-5.498,-5.5736,0.0,0.0,0.0,0.0,0.0,0.0,0.0,0.0,0.0,0.0,0.0,-3.4363,-3.4454,-3.3397,0.0,0.0,0.0,0.0,-3.0925,-3.2608,0.0,0.0,-3.6559,-3.746,-3.7957,-3.7899,-3.8584,-3.9945,-4.0217,-4.3257,-4.8741,-4.7017,-4.7745,-5.0349,-4.7553,-4.4988,-4.2594,-3.9787,-3.727,-3.5098,-3.5161,-3.6038,-3.6924,-3.4269,-3.464,-3.6221,-3.3386,-3.2744,-3.3199,-3.3501,-3.3403,-3.3234,-3.3333,0.0,0.0,0.0,-3.0278,-3.0911,-3.4876,-3.8976,-4.2999,-4.6805,-4.8706,-4.9885,-5.0778,-5.1323,-5.1729,-5.2033,-5.2701,-5.3429,-5.37,-5.421,-5.4668,-5.484,-5.4996,-5.5165,-5.5365,-5.5365,-5.5365,-5.5365,-5.5206,-5.5006,-5.4671,-5.3768,-5.3085,-5.2698,-5.1649,-5.1009,-5.1009,-5.119,-5.1259,-5.1259,-5.201,-5.2515,-5.2654,-5.2953,-5.3273,-5.3708,-5.3406,-5.3155,-5.2929,-5.279,-5.2581,-5.2346,-5.2497,-5.2632,-5.2775,-5.2962,-5.3241,-5.3589,-5.3546,-5.3614,-5.3725,-5.3861,-5.433,-5.4892,0.0,0.0,0.0,0.0,0.0,0.0,0.0,0.0,0.0,0.0,0.0,0.0,-3.6197,0.0,0.0,0.0,0.0,0.0,-3.1278,0.0,0.0,0.0,0.0,-3.6854,-3.7338,-3.7149,-3.7834,-3.9394,-3.9358,-4.2532,-4.8676,-4.9533,-5.2339,-5.653,-5.2288,-4.8887,-4.6029,-4.2333,-3.9619,-3.7699,-3.7701,-3.8907,-4.0453,-3.8091,-3.8748,-4.039,-3.6548,-3.5253,-3.5195,-3.446,-3.4145,-3.4082,-3.418,-3.3111,0.0,0.0,0.0,-3.1537,-3.5843,-3.8419,-4.0884,-4.5065,-4.7136,-4.8517,-4.9713,-5.0273,-5.0658,0.0,-5.1656,-5.2112,-5.2644,-5.3579,-5.4353,-5.4746,-5.4971,-5.5247,-5.5644,-5.5802,-5.5868,-5.5868,-5.5868,-5.5683,-5.5129,-5.4366,-5.3572,-5.2953,-5.1829,-5.1265,-5.1333,-5.1469,-5.1655,-5.1779,-5.2354,-5.2723,-5.2929,-5.3053,-5.3183,-5.3228,-5.2967,-5.2861,-5.2792,-5.271,-5.2402,-5.1875,-5.1841,-5.1883,-5.1967,-5.2312,-5.2598,-5.2866,-5.3222,-5.3341,-5.3341,-5.3478,-5.3705,-5.4196,0.0,0.0,0.0,0.0,0.0,0.0,0.0,0.0,0.0,0.0,0.0,0.0,0.0,0.0,0.0,0.0,0.0,0.0,0.0,0.0,0.0,0.0,0.0,0.0,-3.7201,-3.7203,-3.7394,-3.7838,-3.9435,-4.3212,-4.8944,-5.0991,-5.4359,-5.8516,-5.5052,-5.0549,-4.5641,-4.5239,-4.4159,-4.2743,-4.315,-4.3365,-4.3777,-4.6314,-4.6975,-4.6129,-4.2672,-4.1175,-4.0344,0.0,-3.5575,-3.5369,-3.5678,-3.4456,-3.2981,0.0,0.0,0.0,-3.2854,-3.4831,-3.7275,-3.9938,-4.2694,-4.5288,-4.7341,-4.8002,-4.8704,-5.0174,-5.0228,-5.0206,-5.0817,-5.2758,-5.4496,-5.5081,-5.5214,-5.5427,-5.5986,-5.6394,-5.6682,-5.6682,-5.6682,-5.6245,-5.5306,-5.5063,-5.4429,-5.2918,-5.2159,-5.1895,-5.2225,-5.1961,-5.1991,-5.2523,-5.3105,-5.3273,-5.2929,-5.2886,-5.254,-5.1915,-5.2585,-5.2723,-5.2421,-5.2147,-5.1757,-5.1348,-5.185,-5.1873,-5.1574,-5.1942,-5.2304,-5.2649,-5.284,-5.2929,-5.2998,-5.3341,-5.3596,-5.3775,0.0,0.0,0.0,0.0,0.0,0.0,0.0,0.0,0.0,0.0,0.0,0.0,0.0,-3.6595,-3.5722,-3.5451,-3.4379,0.0,0.0,0.0,0.0,0.0,0.0,0.0,0.0,-3.7054,-3.7524,-3.7778,-3.8686,-4.1512,-4.6046,-4.7754,-4.9571,-5.1413,-5.2823,-5.2411,-5.0371,-4.6823,-4.5236,-4.5008,-4.4971,-4.6875,-4.9502,-4.8085,-4.9299,-5.1169,-4.6751,0.0,0.0,0.0,0.0,-3.8394,-3.7154,-3.5469,-3.3774,-3.2871,-3.2926,-3.3445,-3.4634,-3.6043,-3.7728,-4.0264,-4.2564,-4.4565,-4.6007,-4.7438,-4.87,-4.9584,-4.9717,-4.9899,-5.0724,-5.1815,-5.2917,-5.3717,-5.393,-5.432,-5.5226,-5.5784,-5.5956,-5.5552,-5.6067,-5.6067,-5.5102,-5.4724,-5.4182,-5.3179,-5.2698,-5.2436,-5.2305,-5.2532,-5.268,-5.259,-5.3173,-5.3341,-5.2929,-5.2929,-5.2792,-5.2515,-5.2792,-5.2861,-5.2698,-5.2079,-5.1772,-5.1774,-5.1047,-5.0729,-5.0771,-5.0911,-5.1515,-5.2329,-5.2395,-5.2628,-5.2929,-5.3067,-5.3191,-5.3417,0.0,0.0,0.0,0.0,0.0,0.0,0.0,0.0,0.0,-3.8497,0.0,0.0,0.0,0.0,-3.6871,-3.6785,-3.548,-3.4688,-3.4705,0.0,0.0,0.0,0.0,0.0,-3.6594,-3.7492,-3.8055,-3.8309,-3.9125,-4.1111,-4.4185,-4.5935,-4.7208,-4.8074,-5.0325,-5.1515,-5.1717,-4.8959,-4.7701,-4.7585,-4.8784,-5.0849,-5.3135,-5.2623,-5.389,-5.546,-5.1733,0.0,0.0,0.0,0.0,-4.1738,-3.9206,-3.6746,-3.453,-3.3032,-3.3535,-3.4623,-3.5112,-3.6067,-3.7485,-3.9613,-4.1095,-4.2567,-4.4635,-4.5805,-4.6805,-4.8234,-4.8575,-4.8867,-5.0019,-5.0537,-5.1292,-5.2745,-5.3403,-5.4009,-5.4789,-5.5411,-5.5654,-5.5123,-5.5799,-5.5916,-5.4853,-5.4968,-5.4693,-5.3625,-5.3335,0.0,-5.3113,-5.3277,-5.3295,-5.3097,-5.3343,-5.3273,-5.2723,-5.2998,-5.2998,-5.2698,-5.2998,-5.3067,-5.2904,-5.2185,-5.1936,-5.2076,-5.0896,-5.0414,-5.0444,-5.0619,-5.1147,-5.1875,-5.2226,-5.2603,-5.2929,-5.2929,-5.2894,-5.2992,0.0,0.0,0.0,0.0,0.0,0.0,0.0,0.0,-3.9091,-3.9313,0.0,0.0,0.0,0.0,0.0,-3.7701,-3.6762,-3.6012,-3.5354,-3.5566,0.0,0.0,0.0,0.0,-3.7809,-3.846,-3.8995,-3.9282,-4.0797,-4.222,-4.3542,-4.5805,-4.7745,-4.9273,-4.7926,-4.7887,-4.8986,-5.1462,-5.1703,-5.0747,-5.466,-5.5238,-5.4387,-6.0193,-6.1082,-5.9009,-5.7745,-5.6038,0.0,-5.0186,0.0,0.0,-4.1919,-3.8456,-3.5434,-3.424,-3.4749,-3.5307,0.0,0.0,0.0,-3.7515,-3.7976,-3.9169,-4.3096,0.0,-4.2962,-4.6082,-4.6666,-4.708,-4.8537,-4.8928,-4.9828,-5.2204,-5.3613,-5.4456,-5.4786,-5.5416,-5.5702,-5.5391,-5.5871,-5.5762,-5.4569,-5.5807,-5.5912,-5.4127,-5.4111,-5.438,-5.4707,-5.4105,-5.3834,-5.4039,-5.3682,-5.3204,-5.2421,-5.3136,-5.311,-5.2327,-5.311,-5.3316,-5.2879,-5.2535,-5.226,-5.2101,-5.1619,-5.1063,-5.0469,-5.1046,-5.1272,-5.1398,-5.2477,-5.2904,-5.2929,-5.2929,-5.2757,-5.2539,0.0,0.0,0.0,0.0,0.0,-4.0514,-4.0452,-3.9755,-3.9439,0.0,0.0,0.0,-3.9992,-4.0098,-4.0071,-3.9756,-3.8709,-3.7888,-3.761,-3.6733,-3.6364,-3.6776,-3.806,-3.8528,-3.7966,-3.9118,-3.9591,-3.9282,-3.9977,-4.0705,-4.1462,-4.2969,-4.4169,-4.5112,-4.5856,-4.6492,-4.7022,-4.7689,-5.014,-5.353,-5.3821,-5.6046,-5.9353,-6.051,-6.1352,0.0,0.0,-5.9652,-5.804,0.0,-5.307,-4.9763,0.0,-4.0619,-3.8447,-3.705,-3.7526,-3.8172,-3.6548,0.0,0.0,0.0,0.0,0.0,0.0,0.0,-4.2279,-4.4662,-4.4784,-4.5007,-4.6795,-4.7332,-4.8048,-4.9681,-5.0678,-5.1595,-5.2529,-5.3575,-5.4116,-5.3817,-5.4746,-5.4951,-5.3917,-5.442,-5.4569,0.0,-5.4629,-5.4901,-5.468,-5.4443,-5.4288,-5.4376,-5.4064,-5.3793,-5.3589,-5.3793,-5.3657,-5.3179,-5.3657,-5.3657,-5.3291,-5.2143,-5.1917,-5.2338,-5.0795,-5.0253,-5.0469,-5.1046,-5.1272,-5.1348,-5.2051,-5.2578,-5.2929,-5.2929,-5.2757,-5.2581,0.0,0.0,0.0,-4.2033,-4.1746,-4.159,-4.1973,-4.1426,-4.1199,0.0,0.0,0.0,-4.1844,-4.2651,-4.2787,-4.1968,-4.0737,-3.9848,-3.9408,-3.802,-3.7457,-3.8057,-3.878,-3.9092,-3.8967,-4.0128,-4.0571,-4.0259,-4.0674,-4.0864,-4.0833,-4.1691,-4.2366,-4.2886,-4.3493,-4.4354,-4.5323,-4.5227,-4.8235,-5.3357,-5.5844,-5.8196,-6.0316,-6.1875,-6.2452,0.0,0.0,0.0,-6.073,-5.9784,-5.6427,0.0,0.0,0.0,-4.1353,-3.9571,-3.9913,-4.0484,-3.8949,-3.9511,-4.0467,0.0,0.0,0.0,-4.1705,-4.1326,-4.1231,0.0,-4.3466,-4.3672,-4.5098,-4.5772,-4.6465,-4.7549,-4.8184,-4.9162,-5.1099,-5.2461,-5.301,-5.2489,-5.3499,-5.3981,-5.3266,-5.3975,-5.4548,-5.4592,-5.5068,-5.5122,-5.468,-5.4656,-5.4545,-5.4485,-5.4309,-5.4106,-5.3997,-5.4106,-5.4004,-5.3596,-5.3798,-5.367,-5.3145,-5.2149,-5.2022,-5.2409,-5.1245,-5.0927,-5.1216,-5.1639,-5.1607,-5.1348,-5.2151,-5.2653,-5.2929,-5.2929,-5.2714,-5.2363,0.0,0.0,-4.2071,-4.2602,-4.2695,-4.2947,-4.3706,-4.3661,-4.3553,0.0,-4.3756,-4.4158,-4.5222,-4.6344,-4.6329,-4.4559,-4.3087,-4.1881,-4.102,-3.9472,-3.8779,-3.9314,-3.9218,-3.9563,-4.0352,-4.1208,-4.1654,-4.1654,-4.2078,-4.1852,-4.1117,-4.1428,-4.175,-4.1981,-4.1437,-4.2291,-4.4091,-4.4323,-4.7132,-5.1989,-5.8701,-6.0444,-5.9379,-6.3721,-6.4051,-6.2433,-6.365,-6.3315,-6.2306,-6.2395,-5.8458,0.0,0.0,0.0,0.0,-4.2288,-4.2296,-4.2719,-4.1384,-4.1723,0.0,0.0,0.0,0.0,-4.2677,-4.143,-4.0366,0.0,-4.2462,-4.2753,-4.3604,-4.4268,-4.4937,-4.5771,-4.6114,-4.7243,-5.009,-5.1478,-5.1933,-5.1205,-5.2188,-5.2838,-5.2625,-5.3899,-5.4916,-5.5352,-5.5364,-5.5185,-5.4902,-5.4825,-5.4735,-5.4619,-5.4645,-5.4443,-5.4132,-5.4392,-5.4241,-5.3708,-5.3697,-5.332,-5.2802,-5.2425,-5.2294,-5.2294,-5.2217,-5.2151,-5.2188,-5.2435,-5.2076,-5.154,-5.2528,-5.2929,-5.2929,-5.2854,-5.2477,-5.2068,0.0,-4.1752,-4.2071,-4.2602,-4.2695,-4.3174,-4.4548,-4.4457,-4.4724,-4.5971,-4.6843,-4.8146,-5.0325,-4.9299,-4.8624,-4.8999,-4.6176,-4.4077,-4.3375,-4.1338,-3.9945,-3.9503,-4.0103,-4.0547,-4.0706,-4.1565,-4.2013,-4.2013,-4.166,-4.137,-4.1117,-4.1428,-4.1492,-4.1309,-4.1725,-4.2713,-4.4221,-4.7596,-5.0866,-5.3978,-5.5803,-5.8743,-6.2359,-6.4142,-6.4498,-6.399,-6.4488,-6.4568,-6.4132,-6.2686,-6.0548,-5.7795,0.0,0.0,0.0,-4.6513,-4.6015,-4.6383,-4.5406,-4.5924,0.0,0.0,0.0,0.0,-4.2493,-4.1887,-4.179,0.0,-4.0873,-4.0868,-4.2666,-4.2694,-4.2977,-4.4678,-4.509,-4.602,-4.8448,-4.9114,-4.9502,-5.0006,-5.0823,-5.1483,-5.1921,-5.2925,-5.3985,-5.5007,-5.5429,-5.5752,-5.5905,-5.5382,-5.5193,-5.5379,-5.5405,-5.5206,-5.4898,-5.447,-5.4051,-5.3708,-5.3505,-5.3218,-5.2802,-5.2272,-5.2065,-5.2039,-5.1536,-5.146,-5.1639,-5.1962,-5.2214,-5.238,-5.2722,-5.2929,-5.2879,-5.2427,-5.2102,-5.1889,-4.136,-4.1522,-4.1936,-4.3011,-4.32,-4.393,-4.609,-4.6013,-4.6534,-4.9078,-5.1064,-5.2272,-5.2336,-5.2036,-5.1606,-5.1204,-4.8657,-4.6535,-4.5304,-4.3194,-4.1821,-4.1374,-4.1087,-4.1087,-4.1438,-4.1949,-4.2206,-4.2109,-4.1979,-4.1527,-4.0729,-4.1328,-4.2138,-4.3132,-4.2879,-4.4829,-4.8254,-4.9143,-5.1859,-5.576,-5.8251,-6.1267,-6.4392,-6.5379,-6.5678,-6.5596,-6.5366,-6.5404,-6.5232,-6.2981,-6.1444,0.0,-5.6844,-5.4944,-5.3222,0.0,-4.9342,-4.9179,-4.8101,0.0,0.0,-4.7933,0.0,0.0,0.0,-4.369,-4.3045,-4.3166,-4.1848,-4.112,-4.2711,-4.2558,-4.2511,-4.3449,-4.4055,-4.4803,-4.6016,-4.6981,-4.7803,-4.8267,-4.8714,-4.9406,-5.0518,-5.1294,-5.2602,-5.4441,-5.5058,-5.5469,-5.5516,-5.523,-5.5149,-5.5419,-5.5446,-5.5317,-5.4928,-5.4637,-5.4088,-5.3347,-5.3252,-5.2836,-5.2204,-5.1918,-5.1788,-5.1762,-5.1476,-5.1583,-5.2,-5.2,-5.2167,-5.246,-5.2683,-5.2463,-5.2101,-5.2101,-5.1774,-5.1463,-4.1135,-4.1229,-4.1765,-4.3261,-4.3608,-4.4591,-4.7119,-4.7087,-4.8162,-5.1963,-5.4822,-5.5978,-5.4768,-5.5345,-5.5429,-5.443,-5.1874,-4.9701,-4.8244,-4.5842,-4.4361,-4.4031,-4.2558,-4.2046,-4.2652,-4.2655,-4.2494,-4.2142,-4.2202,-4.1554,-4.0365,-4.1065,-4.2589,-4.4671,-4.4456,-4.738,-5.2285,-5.0811,-5.3246,-5.8452,-6.2109,-6.3993,-6.4843,-6.617,-6.6558,-6.641,-6.6222,-6.6285,-6.6102,-6.3552,-6.2259,-6.1258,-5.8845,-5.7143,0.0,0.0,0.0,0.0,0.0,0.0,0.0,0.0,0.0,-4.9145,0.0,0.0,0.0,-4.4825,-4.326,0.0,0.0,0.0,0.0,0.0,0.0,0.0,0.0,-4.512,0.0,-4.62,-4.6452,-4.7172,-4.8686,-4.9603,-5.1169,-5.3556,-5.4201,-5.4667,-5.4974,-5.5078,-5.519,-5.5418,-5.5418,-5.5195,-5.4817,-5.4709,-5.4136,-5.3118,-5.2985,-5.2507,-5.1783,-5.1783,-5.1783,-5.1783,-5.1783,-5.2124,-5.2548,-5.2253,-5.2155,-5.2268,-5.2368,-5.1984,-5.1322,-5.1716,-5.1463,-5.1147,-4.0671,-4.1014,-4.1608,-4.2629,-4.3327,-4.4208,-4.5823,-4.6487,-4.8586,-5.3575,-5.6098,-5.8441,-6.1152,-6.0457,-6.0548,-6.2502,-5.7816,-5.4672,-5.447,-5.0537,-4.7806,-4.6945,-4.5128,-4.429,-4.4652,-4.3942,-4.317,-4.2397,-4.1263,-4.0642,-4.0483,-4.0577,-4.1421,-4.304,-4.6181,-4.9394,-5.2539,-5.4326,-5.8391,-6.3656,-6.4031,-6.3236,-6.2139,-6.5318,-6.5953,-6.5405,-6.6995,-6.7405,-6.6902,0.0,-6.3995,-6.2879,0.0,-5.8335,-5.8247,-5.477,0.0,0.0,0.0,0.0,0.0,0.0,-5.2902,0.0,0.0,0.0,-4.6956,-4.4311,0.0,0.0,0.0,0.0,0.0,0.0,0.0,0.0,-4.2412,-4.3328,-4.4087,-4.4128,-4.4589,-4.5338,-4.6547,-4.8277,-5.0142,-5.2148,-5.2617,-5.3534,-5.5264,-5.5639,-5.5773,-5.5702,-5.5729,-5.5418,-5.4817,-5.4369,-5.3887,-5.3432,-5.2899,-5.2607,-5.2465,-5.2465,-5.2465,-5.2465,-5.2465,-5.2686,-5.2939,-5.266,-5.2355,-5.2039,-5.1915,-5.1655,-5.1289,-5.1099,-5.1173,-5.146,-4.0514,-4.0982,-4.1451,-4.1966,-4.2284,-4.3105,-4.4907,-4.9709,-5.3607,-5.4932,-5.8824,-6.1818,-6.2672,-6.2063,-6.2156,-6.3464,-6.075,-5.8176,0.0,0.0,-5.1466,-5.0639,-4.7993,-4.6463,-4.6334,-4.5046,-4.3751,-4.2524,-4.2096,-4.1608,-4.1158,-4.164,-4.3622,-4.6778,-4.8651,-5.2926,-5.8698,-5.7945,-6.0026,-6.3814,-6.3693,-6.3109,0.0,-6.6938,-6.815,-6.7642,-6.785,-6.8272,-6.8304,0.0,-6.4214,0.0,0.0,0.0,0.0,-5.7789,0.0,0.0,0.0,0.0,0.0,0.0,0.0,0.0,-4.9304,0.0,-4.7078,0.0,0.0,0.0,0.0,0.0,0.0,0.0,-4.285,0.0,0.0,0.0,-4.2275,0.0,0.0,0.0,-4.5376,-4.7052,-4.8673,-5.0084,-5.1075,-5.2474,-5.4456,-5.5281,-5.5812,-5.6167,-5.6017,-5.5599,-5.4935,-5.4533,-5.3999,-5.3235,-5.2994,-5.2799,-5.2588,-5.2588,-5.2588,-5.2588,-5.2588,-5.266,-5.2775,-5.2633,-5.2377,-5.2051,-5.1779,-5.137,-5.0944,-5.1085,-5.119,-5.1266,-4.0642,0.0,-4.1107,-4.1271,-4.1652,-4.2853,-4.5697,-5.1914,-5.6312,-5.6538,-6.0665,-6.3901,-6.4598,-6.4294,-6.4586,-6.6053,-6.4243,-6.2081,0.0,-5.6872,-5.5154,-5.4868,-5.1308,-4.9177,-4.8887,-4.703,-4.5112,-4.3105,-4.2939,-4.2546,-4.1965,-4.2351,-4.4659,-4.8562,-5.0554,-5.5378,-6.196,-6.1075,-6.2662,-6.5758,-6.5282,-6.5348,-6.5989,-6.8924,-7.0143,-7.0246,-6.9574,-6.9659,-6.9536,-6.6595,-6.4945,0.0,-6.3932,0.0,-5.9458,0.0,0.0,0.0,-5.6817,0.0,0.0,0.0,0.0,0.0,0.0,0.0,0.0,0.0,0.0,0.0,0.0,0.0,0.0,0.0,0.0,-4.3098,0.0,0.0,0.0,0.0,0.0,0.0,0.0,-4.5505,-4.6809,-4.858,0.0,-5.1258,-5.3757,-5.4898,-5.5706,-5.6251,-5.6165,-5.5787,-5.5144,-5.4936,-5.4341,-5.3376,-5.3498,-5.3349,-5.3017,-5.3017,-5.3017,-5.3017,-5.2895,-5.2861,-5.2738,-5.2861,-5.2588,-5.2245,-5.2059,-5.1659,-5.1146,-5.1241,-5.1228,-5.1183,-4.1085,-4.0673,-4.0415,-4.0608,-4.1746,-4.4243,-4.8976,-5.1334,-5.4176,-5.8719,-6.0857,-6.3831,-6.866,-6.8385,-6.9354,-7.312,0.0,-6.695,-6.6489,0.0,-5.884,-5.9718,-5.5254,-5.2818,-5.2889,-5.0505,-4.7679,-4.4425,-4.3202,-4.268,-4.2867,-4.203,0.0,0.0,-5.1375,-5.5692,-5.9037,-6.3384,-6.7849,-7.1975,-7.0542,-7.1099,-7.2564,0.0,-7.1062,-7.2411,-7.2697,0.0,0.0,-6.8965,-6.7057,0.0,0.0,0.0,0.0,0.0,0.0,0.0,0.0,0.0,0.0,-5.5014,0.0,0.0,0.0,0.0,-5.1087,0.0,0.0,0.0,0.0,0.0,0.0,0.0,0.0,0.0,0.0,0.0,0.0,0.0,0.0,0.0,0.0,-4.3366,-4.4572,0.0,-4.8291,-4.9794,-5.3714,-5.4832,-5.5545,-5.5902,-5.6194,-5.6135,-5.5496,-5.5496,-5.5026,-5.4074,-5.4401,-5.4401,-5.4074,-5.4074,-5.4074,-5.4014,-5.3713,-5.3349,-5.3132,-5.341,-5.3166,-5.2588,-5.2922,-5.2861,-5.2404,-5.1434,-5.1146,-5.1183,0.0,-4.2045,-4.1374,-4.0833,-4.1434,-4.3907,-4.9573,-5.4566,-5.9061,-6.27,-6.5041,-6.7753,-7.1331,-7.0745,-7.1042,-7.3342,0.0,-6.9452,-6.8323,-6.4761,0.0,-6.4695,-5.9905,-5.7273,0.0,-5.3689,-5.0474,-4.7952,-4.6159,-4.5308,-4.5211,-4.4428,-4.5244,0.0,-5.2145,-5.6717,-6.1177,-6.4471,-6.7391,-6.972,-6.9219,-7.0437,-7.2661,0.0,-7.2641,-7.2532,-7.2142,-7.1905,0.0,-7.0011,-6.8198,-6.6649,-6.6588,-6.4951,-6.3105,-6.3249,-6.3059,-6.2622,0.0,0.0,-6.2531,-5.8142,0.0,0.0,0.0,0.0,0.0,0.0,0.0,0.0,0.0,0.0,0.0,0.0,0.0,0.0,0.0,0.0,0.0,0.0,0.0,0.0,0.0,0.0,0.0,0.0,-4.7242,0.0,-5.3228,-5.4406,-5.5477,-5.6702,-5.6689,-5.6391,-5.5845,-5.5787,-5.532,-5.4401,-5.4548,-5.4327,-5.3795,-5.4208,-5.4181,-5.3795,-5.4116,-5.4101,-5.3773,-5.3894,-5.3652,-5.3227,-5.3105,-5.3071,-5.2861,-5.2059,-5.1747,-5.181,-4.359,-4.3459,-4.2941,-4.1756,-4.3154,-4.6379,-5.2044,-5.7818,-6.2658,-6.5703,-6.8046,-7.0385,-7.3075,-7.2474,-7.2575,-7.4286,-7.3102,-7.1604,-7.0059,-6.7695,0.0,-6.7556,-6.3845,0.0,-6.1136,-5.7566,-5.394,-5.0281,-4.852,-4.7275,-4.6487,-4.5603,-4.6225,0.0,-5.2122,-5.6343,-6.0621,-6.4581,-6.7402,-6.9357,0.0,-7.119,0.0,0.0,-7.3642,-7.2879,0.0,-7.2399,-7.2083,-7.0913,-6.9337,-6.7963,-6.8524,-6.6887,-6.4944,-6.5418,-6.5062,-6.4342,-6.3869,-6.4493,0.0,-6.0622,-5.9115,0.0,-5.3154,0.0,0.0,0.0,0.0,0.0,0.0,0.0,0.0,0.0,0.0,0.0,0.0,-4.2774,0.0,0.0,0.0,0.0,0.0,0.0,-4.351,-4.5428,-4.6377,0.0,0.0,-5.3832,-5.5172,-5.6426,-5.6682,-5.6517,-5.5935,-5.5909,-5.5564,-5.4895,-5.5119,-5.489,-5.4266,-5.4682,-5.4595,-5.409,-5.4165,-5.413,-5.3924,-5.3924,-5.3745,-5.3474,-5.345,-5.3349,-5.3193,-5.2553,-5.2183,-5.2121,-4.4399,-4.501,-4.5245,-4.3733,-4.7041,-5.152,-5.6317,-6.068,-6.4564,-6.7716,-6.9647,-7.1639,-7.4138,-7.3707,-7.4105,-7.6192,-7.5065,-7.354,-7.1853,-7.0321,0.0,0.0,-6.7095,-6.5601,-6.4117,-6.1926,-5.7862,-5.1825,-5.0236,-4.8549,-4.6847,-4.5734,-4.5799,-4.7073,-5.127,-5.4622,-5.7525,-6.3723,-6.809,-7.1051,-7.281,-7.3304,-7.3104,-7.3911,-7.3893,-7.3505,-7.3956,-7.3376,-7.2293,-7.1655,-7.0355,-6.9076,-6.913,-6.86,-6.7719,-6.7042,-6.713,-6.7042,-6.522,-6.5286,-6.5157,-6.2371,-6.1552,0.0,0.0,0.0,-5.7968,0.0,0.0,0.0,0.0,0.0,0.0,0.0,0.0,0.0,0.0,0.0,0.0,0.0,0.0,0.0,0.0,-4.2122,-4.2687,-4.5556,-4.5556,0.0,0.0,-5.3118,-5.4529,-5.5059,-5.6214,-5.6489,-5.5879,-5.5916,-5.5704,-5.5423,-5.6023,-5.6021,-5.5414,-5.5442,-5.5267,-5.4859,-5.4037,-5.3699,-5.3641,-5.3668,-5.352,-5.3339,-5.3855,-5.3894,-5.3531,-5.2861,-5.243,-5.2121,-4.6999,-4.9394,-5.135,-5.1436,-5.2029,-5.4064,-5.888,-6.1818,-6.5272,-6.9993,-7.1523,-7.3437,-7.6736,-7.6154,-7.5927,-7.702,-7.5587,0.0,0.0,0.0,0.0,-7.2766,-7.0059,-6.8705,-6.9013,-6.3814,-5.9969,-5.78,-5.2554,-4.9751,-4.9258,-4.7469,-4.675,-4.7073,-5.0636,-5.4051,-5.743,-6.2307,-6.6735,-7.0788,-7.2683,-7.2696,-7.169,0.0,-7.3973,-7.317,-7.3088,-7.2893,-7.2448,-7.1013,-7.0096,-6.9511,-6.9174,-6.8911,-6.8567,-6.7774,-6.777,-6.777,-6.6919,-6.7121,-6.6952,-6.4417,-6.2505,-6.055,0.0,0.0,0.0,0.0,0.0,0.0,0.0,0.0,0.0,0.0,0.0,0.0,0.0,0.0,0.0,-4.4042,0.0,0.0,0.0,-4.1746,-4.2748,-4.4823,-4.5009,0.0,0.0,0.0,-5.3113,-5.4915,-5.6193,-5.6713,-5.6409,-5.6182,-5.5838,-5.5346,-5.5104,-5.4654,-5.4116,-5.4543,-5.4486,-5.3977,-5.4715,-5.4741,-5.428,-5.4842,-5.4686,-5.424,-5.4139,-5.3894,-5.3531,-5.3105,-5.2615,-5.2121,-4.9961,-5.3213,-5.6165,-5.7173,-5.7821,-5.9151,-6.1939,-6.4338,-6.7241,-7.1194,-7.2977,-7.4596,-7.6644,-7.6815,-7.6954,-7.7384,-7.6498,0.0,-7.4832,0.0,0.0,-7.3811,-7.2198,-7.1144,-7.0697,-6.6697,0.0,-5.9333,0.0,-5.135,-4.9758,-4.7835,-4.6947,-4.7169,-5.0248,-5.3135,-5.6029,-6.2264,-6.6866,-7.0193,-7.1874,-7.2291,0.0,-7.3181,-7.3891,-7.4087,-7.2828,-7.2647,-7.2666,-7.0911,-7.0176,-6.9893,-6.9478,-6.9237,-6.9091,-6.8797,-6.86,-6.8501,-6.8351,-6.8351,-6.7994,-6.6355,-6.4771,-6.2971,-6.0362,-5.9422,-5.8655,0.0,-5.721,-5.7241,0.0,0.0,0.0,0.0,0.0,0.0,0.0,0.0,0.0,0.0,-4.3289,0.0,0.0,-4.1471,-4.2543,-4.3776,-4.4445,0.0,0.0,0.0,-5.2513,-5.3847,-5.5444,-5.6274,-5.6153,-5.59,-5.5701,-5.5488,-5.5326,-5.497,-5.4406,-5.4751,-5.4558,-5.4051,-5.448,-5.4457,-5.4121,-5.4657,-5.4594,-5.4185,-5.4121,-5.379,-5.3419,-5.3329,-5.2761,-5.1989,-5.3356,-5.6792,-6.0032,-6.1142,-6.3331,-6.5028,-6.5436,-6.7526,-6.9846,-7.2166,-7.4321,-7.5595,-7.5643,-7.6769,-7.7497,-7.7497,-7.7431,-7.6835,-7.5577,-7.5667,-7.5054,-7.3558,-7.3668,-7.2907,-7.1013,-6.9528,-6.5581,0.0,-5.5979,-5.2682,-4.926,-4.7506,-4.6877,-4.7295,-4.9924,-5.2449,-5.5235,-6.312,-6.7699,-6.9736,-7.1165,-7.2325,-7.3117,-7.2911,-7.395,-7.5222,-7.3008,-7.2612,-7.2855,-7.1064,-7.0363,-7.0129,-6.9941,-6.9655,-6.9478,-6.9655,-6.9382,-6.9091,-6.9188,-6.8945,-6.8454,-6.7574,-6.6986,-6.588,-6.2844,-6.1408,-6.0392,-5.9347,-5.762,-5.6618,0.0,0.0,0.0,0.0,0.0,0.0,0.0,0.0,0.0,0.0,0.0,0.0,0.0,0.0,0.0,0.0,0.0,0.0,0.0,0.0,-5.1797,-5.2577,-5.4418,-5.5469,-5.5631,-5.544,-5.5397,-5.5656,-5.5883,-5.5776,-5.5263,-5.5263,-5.4992,-5.4417,-5.3958,-5.3786,-5.3706,-5.4087,-5.3979,-5.3612,-5.3889,-5.3645,-5.3143,-5.3305,-5.2634,-5.169,-5.7912,-6.0834,-6.3002,-6.264,-6.5227,-6.7799,-6.9071,-7.0149,-7.1827,-7.4656,-7.6214,-7.7179,-7.7561,-7.7825,-7.799,-7.799,-7.7408,0.0,0.0,0.0,0.0,-7.5417,-7.4408,-7.3701,-7.3558,-6.9202,-6.5459,0.0,-5.6514,-5.2042,-4.9094,-4.7835,-4.7243,-4.7293,-4.9259,-5.3609,-5.9734,-6.4472,0.0,-7.0849,-7.3101,-7.3768,-7.3566,-7.4695,-7.4999,-7.4661,-7.3599,-7.319,-7.2855,-7.1064,-7.0363,-7.0176,-7.0129,-6.9941,-6.9655,-6.9237,-6.9237,-6.9188,-6.86,-6.8649,-6.8471,-6.6533,-6.5964,-6.5349,-6.3194,-6.1638,-6.0563,-6.034,-5.8781,-5.725,-5.6286,0.0,0.0,0.0,0.0,0.0,0.0,0.0,0.0,0.0,0.0,-4.2395,0.0,0.0,0.0,0.0,0.0,0.0,0.0,0.0,-4.9206,0.0,-5.4052,0.0,0.0,0.0,-5.5257,-5.5257,-5.4856,-5.4605,-5.4472,-5.4472,-5.445,-5.4345,-5.455,-5.4541,-5.4302,-5.4665,-5.437,-5.3585,-5.3438,-5.3005,-5.2459,-5.2217,-5.1539,-5.0837,-6.2308,-6.4215,-6.5738,-6.5738,-6.8028,-7.0543,-7.2415,-7.3602,-7.4488,-7.5056,-7.5834,-7.6537,-7.7073,-7.7726,-7.8134,-7.8296,-7.7891,-7.7606,-7.7767,-7.6413,-7.5752,-7.6082,-7.4728,-7.3904,-7.3641,-7.0523,-6.7285,-6.3802,-5.8488,-5.4379,-5.1453,-4.9391,-4.8464,-4.8588,-5.1391,-5.587,0.0,0.0,0.0,-7.0913,-7.3135,-7.3817,-7.3601,-7.4283,-7.4465,-7.4269,-7.3261,-7.2843,-7.2536,-7.1194,-7.0549,-7.0363,-7.0223,-6.9988,-6.9751,-6.9478,-6.9511,-6.9526,-6.914,-6.8829,-6.8271,-6.6743,-6.5756,-6.4689,-6.3177,-6.1397,-5.9978,-5.9586,-5.8324,-5.6779,-5.5116,-5.2908,0.0,0.0,0.0,0.0,0.0,0.0,0.0,0.0,0.0,0.0,0.0,0.0,0.0,0.0,0.0,0.0,0.0,0.0,-4.8498,0.0,0.0,0.0,-5.6015,0.0,-5.5551,-5.5551,-5.4997,-5.4692,-5.4539,-5.4539,-5.4487,-5.4333,-5.4502,-5.4439,-5.4153,-5.4392,-5.4051,-5.3388,-5.3416,-5.2821,-5.2058,-5.2041,-5.1506,-5.0752,-6.6045,-6.7114,-6.82,-6.8942,-7.087,-7.2854,-7.4716,-7.6341,-7.691,-7.5689,-7.575,-7.6159,-7.6617,-7.7548,-7.8188,-7.8403,-7.8296,-7.8296,-7.8564,-7.7257,-7.6428,-7.648,-7.5035,-7.3956,-7.3443,-7.2047,-6.9191,0.0,-6.0927,-5.7182,-5.3582,-5.1525,-5.0827,-5.1464,0.0,0.0,0.0,0.0,-6.9267,-7.1505,-7.3101,-7.3757,-7.3748,-7.3716,-7.3891,-7.3905,-7.273,-7.2303,-7.2156,-7.1152,-7.0654,-7.0469,-7.0316,-7.0035,-6.9798,-6.9798,-6.9798,-6.9765,-6.9599,-6.8994,-6.8097,-6.6959,-6.5703,-6.4417,-6.3162,-6.1291,-5.9593,-5.8933,-5.7628,-5.5995,-5.4157,-5.2922,0.0,0.0,0.0,0.0,0.0,0.0,0.0,0.0,0.0,0.0,-4.2055,0.0,0.0,0.0,0.0,0.0,-4.5164,-4.6071,-4.8086,0.0,0.0,-5.4366,-5.5565,0.0,-5.5755,-5.5755,-5.5441,-5.5179,-5.4955,-5.4905,-5.4722,-5.4458,-5.4406,-5.42,-5.3896,-5.397,-5.3665,-5.3207,-5.3274,-5.2715,-5.1848,-5.1948,-5.1468,-5.077,-6.8572,-6.9384,-7.0256,-7.1225,-7.2882,-7.4253,-7.4884,-7.6743,-7.818,-7.8436,-7.8339,-7.8139,-7.7957,-7.8035,-7.8134,-7.8134,-7.835,-7.8564,-7.883,-7.7518,-7.6873,-7.711,-7.5271,-7.4289,-7.4456,-7.2795,-7.0063,0.0,0.0,-5.894,-5.3434,-5.4086,-5.5311,0.0,0.0,0.0,0.0,-6.8224,-7.0996,-7.4195,-7.4411,-7.4512,-7.4499,-7.4478,-7.4119,-7.343,-7.2389,-7.2039,-7.1892,-7.0876,-7.0515,-7.0515,-7.0469,-7.0143,-6.9798,-6.9798,-6.9798,-6.9633,-6.897,-6.8738,-6.82,-6.6382,-6.5582,-6.4976,-6.3469,-6.1678,-6.0233,-5.9929,-5.771,-5.5285,-5.3506,-5.3191,-5.2421,0.0,0.0,0.0,0.0,0.0,-4.5421,-4.4008,0.0,0.0,0.0,-4.0649,0.0,0.0,-4.1638,0.0,-4.4423,-4.4648,-4.6784,-5.1194,-5.159,-5.2436,-5.3837,-5.483,-5.5359,-5.5359,-5.5478,-5.5531,-5.5531,-5.528,-5.5128,-5.5078,-5.4854,-5.4414,-5.3919,-5.3925,-5.3588,-5.3062,-5.2554,-5.2091,-5.1707,-5.1211,-5.0821,-5.0484,-7.198,-7.2228,-7.2878,-7.434,-7.4772,-7.5411,-7.6726,-7.7833,-7.8569,-7.8888,-7.8671,-7.8457,-7.835,-7.8188,-7.8044,-7.7934,-7.8246,-7.8306,-7.7877,-7.736,-7.6876,-7.6509,-7.5156,-7.4473,-7.4606,-7.336,-7.1289,0.0,0.0,-6.2245,-5.8708,-5.8425,-5.9588,0.0,0.0,-6.6474,-6.8977,-7.0906,-7.265,-7.42,-7.4924,-7.4714,-7.3927,-7.4296,-7.3555,-7.2371,-7.2412,-7.213,-7.168,-7.1285,-7.0824,-7.0316,-7.0316,-7.0082,-6.9798,-6.9798,-6.9798,-6.9732,-6.9434,-6.8644,-6.7677,-6.6884,-6.5643,-6.4457,-6.3976,-6.2171,-6.0471,-6.0121,-5.7337,-5.4696,-5.4024,-5.3255,-5.2461,-5.1602,0.0,0.0,0.0,0.0,0.0,-4.5069,0.0,-4.3154,0.0,0.0,0.0,0.0,0.0,0.0,-4.4428,-4.4807,0.0,-5.0506,0.0,-5.2926,-5.4317,-5.5131,-5.566,-5.5896,-5.5679,-5.5531,-5.533,-5.5229,-5.5078,-5.4955,-5.4854,-5.4568,-5.4097,-5.3971,-5.3658,-5.3319,-5.2894,-5.2358,-5.1787,-5.1513,-5.1128,-5.0711,-7.4533,-7.4549,-7.5115,-7.6972,-7.6819,-7.699,-7.8437,-7.8841,-7.9025,-7.9027,-7.8883,-7.8724,-7.8724,-7.8564,-7.8319,-7.7974,-7.8503,-7.8507,-7.7648,-7.7581,-7.733,-7.6658,-7.5773,0.0,-7.4755,-7.4157,-7.2746,-7.0461,-6.8142,-6.579,-6.3481,-6.2841,-6.3867,0.0,-6.7793,-6.9451,-7.1278,-7.3071,-7.3932,-7.4105,-7.5026,-7.4416,-7.3016,-7.3433,-7.266,-7.1339,-7.1699,-7.1699,-7.1479,-7.1104,-7.0695,-7.0381,-7.0243,-6.9988,-6.9798,-6.9798,-6.9633,-6.9434,-6.9202,-6.8101,-6.7017,-6.6819,-6.5455,-6.424,-6.4286,-6.2593,-6.07,-5.9479,-5.6969,-5.492,-5.4555,-5.3463,-5.2511,-5.2324,0.0,0.0,0.0,-4.8073,0.0,0.0,-4.483,-4.4209,-4.4765,-4.3456,0.0,0.0,0.0,0.0,0.0,0.0,0.0,0.0,0.0,0.0,-5.4379,-5.5147,-5.5745,-5.6133,-5.5857,-5.5581,-5.528,-5.5259,-5.5108,-5.4905,-5.4905,-5.4671,-5.4304,-5.4097,-5.3815,-5.3448,-5.3213,-5.2734,-5.2167,-5.195,-5.1623,-5.1128,-7.5673,-7.6073,-7.6742,-7.8722,-7.9092,-7.9229,-7.9718,-7.9768,-7.9699,-7.944,-7.9388,-7.9388,-7.9388,-7.9388,-7.9087,-7.8283,-7.9177,-7.9465,-7.8724,-7.8657,-7.8471,0.0,0.0,-7.6525,-7.5002,-7.5423,-7.4439,-7.1985,0.0,0.0,-6.6485,-6.699,-6.828,-7.0195,-7.165,-7.2732,-7.351,-7.4289,-7.4593,-7.458,-7.4627,-7.3574,-7.2027,-7.2027,-7.1417,-7.0423,-6.9988,-7.0486,-7.108,-6.9838,-7.007,-7.0807,-7.0315,-6.9988,-6.9798,-6.9798,-6.9268,-6.8539,-6.7844,-6.7069,-6.6308,-6.5624,-6.5066,-6.461,-6.4379,-6.301,-6.0922,-5.7861,-5.6817,-5.6109,-5.4931,-5.3766,-5.2596,-5.151,0.0,0.0,0.0,0.0,0.0,-4.7125,-4.5186,-4.4386,-4.5674,-4.4108,0.0,0.0,0.0,0.0,0.0,0.0,0.0,-5.0776,-5.1629,0.0,-5.344,-5.4541,-5.5333,-5.5698,-5.589,-5.583,-5.5581,-5.533,-5.5179,-5.5209,-5.5209,-5.4845,-5.4304,-5.4304,-5.3993,-5.3448,-5.3213,-5.3054,-5.3001,-5.2411,-5.2004,-5.1732,-7.7395,-7.7982,-7.8587,-7.9415,-7.9414,-7.943,-7.9768,-7.9801,-7.975,-7.9699,-7.9853,-7.9955,-7.9955,-7.9596,-7.919,0.0,-7.9313,-7.9365,0.0,-7.8722,-7.8655,-7.801,-7.768,-7.7279,-7.6808,-7.676,-7.6007,-7.4506,0.0,0.0,0.0,-7.0419,-7.1512,-7.3206,-7.368,-7.4322,-7.4965,-7.4728,-7.4499,-7.4323,-7.4005,-7.3135,-7.2014,-7.2378,-7.1841,-7.1056,-7.1555,-7.1507,-7.1194,-7.0963,-7.0782,-7.0565,-7.0078,-6.9893,-6.9798,-6.9798,-6.9633,-6.9221,-6.8305,-6.7438,-6.6621,-6.608,-6.52,-6.4518,-6.4781,-6.3271,-6.0967,-5.8076,-5.6947,-5.6196,-5.5172,-5.4431,-5.3575,-5.2452,-5.2188,0.0,-5.0064,0.0,-4.828,-4.8308,-4.7024,-4.6353,-4.7087,-4.5801,0.0,0.0,0.0,0.0,0.0,0.0,0.0,0.0,-5.1643,0.0,-5.3113,-5.4282,-5.4775,-5.4755,-5.5285,-5.5329,-5.4918,-5.527,-5.528,-5.4955,-5.5128,-5.4845,-5.4304,-5.4304,-5.4097,-5.3762,-5.3658,-5.35,-5.3372,-5.3131,-5.2759,-5.2247,-7.8378,-7.8864,-7.9336,-7.975,-7.9647,-7.9647,-7.9904,-7.9955,-7.9955,-7.9955,-8.0107,-8.0209,-8.0209,-7.9904,0.0,-7.891,-7.9517,-7.95,-7.8483,-7.9092,-7.9194,-7.845,-7.8537,-7.8253,-7.7614,-7.743,0.0,-7.5873,-7.4671,-7.37,-7.3083,-7.3225,-7.3919,-7.5033,-7.5033,-7.5134,-7.527,-7.4796,-7.4195,-7.3514,-7.3532,-7.273,-7.1678,-7.2418,-7.2066,-7.128,-7.1623,-7.1554,-7.1274,-7.0815,-7.0585,-7.0419,-6.9934,-6.9798,-6.9798,-6.9798,-6.9401,-6.8824,-6.8126,-6.7114,-6.6119,-6.5719,-6.503,-6.4433,-6.4228,-6.2925,-6.1057,-5.8343,-5.7419,-5.667,-5.5578,-5.4622,-5.3743,-5.295,-5.2253,-5.1541,-5.0833,0.0,0.0,0.0,0.0,0.0,0.0,-4.7707,-4.7612,0.0,0.0,0.0,0.0,0.0,0.0,-5.0818,-5.2114,-5.2922,-5.3262,-5.3975,-5.4313,-5.4324,-5.4901,-5.5043,-5.488,-5.5379,-5.5481,-5.5229,-5.5179,-5.4845,-5.4304,-5.4304,-5.4097,-5.3762,-5.3762,-5.371,-5.3605,-5.3395,-5.3184,-5.2865,-7.8664,-7.8883,-7.9041,-7.9647,-7.975,-7.9768,-8.009,-8.0057,-8.0057,-8.0141,-8.0107,-8.0141,-8.0158,-8.0158,-7.9888,-7.9211,0.0,0.0,-7.9178,-7.9837,-7.9904,-7.9228,-7.9837,-7.9432,-7.7765,-7.7731,-7.7178,-7.6123,-7.5453,-7.5149,-7.5325,-7.5325,-7.547,-7.5709,-7.5642,-7.5236,-7.4627,-7.4559,-7.3713,-7.2462,-7.3206,-7.2493,-7.1152,-7.2317,-7.2248,-7.1346,-7.0585,-7.0831,-7.1259,-6.9649,-6.9681,-7.0353,-6.9901,-6.9798,-6.9798,-6.9798,-6.8791,-6.7652,-6.732,-6.6239,-6.514,-6.4781,-6.4702,-6.4309,-6.29,-6.2183,-6.1146,-5.8745,-5.8041,-5.746,-5.6124,-5.45,-5.3298,-5.3068,-5.1556,-5.0543,-5.0858,0.0,0.0,0.0,0.0,0.0,-4.8557,-4.9647,-4.9931,0.0,0.0,0.0,0.0,0.0,-5.0737,-5.1891,-5.2887,-5.3468,-5.3652,-5.3683,-5.3929,-5.4279,-5.4635,-5.4988,-5.5228,-5.5455,-5.561,-5.5747,-5.5341,-5.4756,-5.4156,-5.4215,-5.3935,-5.3442,-5.3553,-5.371,-5.3867,-5.3372,-5.3343,-5.339,-7.8431,-7.8564,-7.8724,-7.9041,-7.8936,-7.8841,-7.9027,-7.8876,-7.8876,-7.9313,-7.9213,-7.9264,-7.9836,-7.9904,-7.9734,-7.9361,-7.9854,-8.004,-7.9668,-8.0006,-8.0107,-7.9938,-8.0107,-7.9719,-7.8756,-7.8756,-7.8015,-7.642,-7.6169,-7.58,-7.5325,-7.5518,-7.5662,-7.5676,-7.51,-7.4762,-7.4559,-7.3984,-7.324,-7.2462,-7.3206,-7.2889,-7.2156,-7.3373,-7.3428,-7.2858,-7.2548,-7.1786,-7.0873,-7.0338,-6.978,-6.9418,-6.9688,-6.9798,-6.9751,-6.9526,-6.9391,-6.8895,-6.7159,-6.6588,-6.6157,-6.4733,-6.4426,-6.4034,-6.2599,-6.2048,-6.1264,-5.9219,-5.8222,-5.7414,-5.6702,-5.5247,-5.3952,-5.3323,-5.2404,-5.1629,-5.1189,-5.0311,0.0,0.0,-5.0141,-5.0006,-5.0073,-5.0538,-5.0254,0.0,0.0,-5.0122,-4.9101,-5.1045,-5.2125,-5.1881,-5.3047,-5.3546,-5.3214,-5.374,-5.4035,-5.4144,-5.4022,-5.4083,-5.4314,-5.4805,-5.4789,-5.4382,-5.4389,-5.3833,-5.2918,-5.3642,-5.3494,-5.2936,-5.4083,-5.4385,-5.42,-5.4363,-5.3833,-5.3085,-7.8444,-7.8511,-7.8564,-7.8883,-7.8583,-7.8426,-7.8674,-7.8354,-7.8337,-7.8859,-7.8792,-7.8909,-7.958,-7.9596,-7.9492,-7.9232,-7.9768,-8.0107,-7.9801,-8.0057,-8.0209,-8.0209,-8.0209,-8.0006,-7.9634,-7.9295,-7.8332,-7.6699,-7.6616,-7.6212,-7.5518,-7.5757,-7.5683,-7.5378,-7.531,-7.4903,-7.4225,-7.3692,-7.324,-7.2935,-7.348,-7.3458,-7.3208,-7.4431,-7.4282,-7.3342,-7.2794,-7.1837,-7.0765,-7.019,-6.9614,-6.9237,-6.9655,-6.9798,-6.9684,-6.9082,-6.8752,-6.8357,-6.6903,-6.6089,-6.5498,-6.4528,-6.424,-6.3933,-6.2932,-6.2139,-6.1168,-5.949,-5.8551,-5.7741,-5.664,-5.5767,-5.4775,-5.3499,-5.2767,-5.2097,-5.1447,-5.0626,-5.0375,-5.1135,-5.1076,-5.1017,-5.1099,-5.1685,-5.158,-5.0236,-5.0974,0.0,-5.0544,-5.2284,-5.2876,-5.2109,-5.3291,-5.3714,-5.3233,-5.3606,-5.3792,-5.3792,-5.3968,-5.4137,-5.4393,-5.4667,-5.466,-5.4449,-5.408,-5.3484,-5.2823,-5.3625,-5.3592,-5.3092,-5.4404,-5.4845,-5.4743,-5.4875,-5.4637,-5.4078,-7.8564,-7.8511,-7.8564,-7.8883,-7.856,-7.8402,-7.8691,-7.8352,-7.8283,-7.864,-7.8657,-7.8807,-7.9236,-7.9336,-7.9198,-7.8883,-7.9614,-8.0006,-7.975,-8.0006,-8.0158,-8.0209,-8.0209,-8.0141,-8.004,-7.9379,-7.8364,-7.7111,-7.7111,-7.6753,-7.6021,-7.6164,-7.5884,-7.525,-7.5761,-7.5284,-7.4094,-7.3877,-7.3717,-7.3649,-7.4116,-7.4196,-7.423,-7.5255,-7.4822,-7.3566,-7.2434,-7.1615,-7.0855,-6.9886,-6.9526,-6.9511,-6.9798,-6.9779,-6.9453,-6.8587,-6.7735,-6.6968,-6.6463,-6.5295,-6.424,-6.4193,-6.3988,-6.3635,-6.3061,-6.2118,-6.0894,-5.9543,-5.8871,-5.8087,-5.6691,-5.618,-5.5422,-5.3732,-5.2909,-5.221,-5.1559,0.0,-5.0763,-5.1726,-5.1884,-5.1908,-5.1811,-5.2739,-5.2926,-5.1884,-5.2408,-5.2702,-5.2652,-5.3396,-5.341,-5.2495,-5.3534,-5.3899,-5.3465,-5.3465,-5.3465,-5.3496,-5.4014,-5.4384,-5.4681,-5.4605,-5.4653,-5.4745,-5.3905,-5.3393,-5.3163,-5.3871,-5.3903,-5.3651,-5.4779,-5.525,-5.5229,-5.525,-5.528,-5.5189,-7.883,-7.8671,-7.8564,-7.8883,-7.8836,-7.8745,-7.8707,-7.864,-7.8607,-7.8708,-7.8454,-7.8466,-7.8941,-7.8988,-7.8883,-7.8564,-7.9179,-7.9492,-7.944,-7.9699,-7.9955,-8.0209,-8.0209,-7.9904,-7.9295,-7.8797,-7.8385,-7.8148,-7.8148,-7.7836,-7.7324,-7.7135,-7.676,-7.6244,-7.5732,-7.5356,-7.5151,-7.5117,-7.473,-7.4287,-7.5595,-7.5732,-7.5151,-7.531,-7.5058,-7.45,-7.2911,-7.1955,-7.1345,-7.0563,-7.0049,-6.9798,-7.0035,-6.9556,-6.8791,-6.8423,-6.7232,-6.5947,-6.5665,-6.4843,-6.3991,-6.3802,-6.3224,-6.2532,-6.167,-6.0871,-6.0088,-5.921,-5.8518,-5.7985,-5.7967,-5.6485,-5.502,-5.4333,-5.3117,-5.1982,-5.134,0.0,-5.1823,-5.166,-5.2669,-5.3108,-5.2352,-5.2827,-5.2901,-5.234,-5.2733,-5.2817,-5.2377,-5.3793,-5.4176,-5.3267,-5.3957,-5.4157,-5.3746,-5.3746,-5.3746,-5.3746,-5.359,-5.3753,-5.4206,-5.4162,-5.3847,-5.3321,-5.3362,-5.3095,-5.2778,-5.3663,-5.4074,-5.4172,-5.5409,-5.5731,-5.5581,-5.578,-5.5054,-5.3911,-7.8936,-7.883,-7.8591,-7.814,-7.8336,-7.8196,-7.7228,-7.7329,-7.7379,-7.7078,-7.6893,-7.7122,-7.7993,-7.7708,-7.7589,-7.7881,-7.7794,-7.7822,-7.8011,-7.8603,-7.8926,-7.8825,-7.8825,-7.8875,-7.9126,-7.8887,-7.8628,-7.8332,-7.7924,-7.7523,-7.7007,-7.6973,-7.6656,-7.6063,-7.6142,-7.5937,-7.556,-7.5458,-7.5447,-7.555,-7.5914,-7.5857,-7.556,-7.5515,-7.4956,-7.399,-7.2949,-7.2078,-7.1354,-7.088,-7.0502,-7.0143,-7.0176,-6.963,-6.8792,-6.8148,-6.679,-6.5484,-6.4811,-6.4345,-6.3847,-6.3191,-6.2743,-6.2245,-6.1338,-6.0448,-5.9781,-5.943,-5.8792,-5.8186,-5.7968,-5.7002,-5.6015,-5.5265,-5.3905,0.0,-5.2333,-5.2312,-5.2404,-5.2513,-5.3206,-5.3563,-5.3169,-5.3201,-5.3157,-5.2941,-5.3028,-5.3204,-5.3416,-5.4146,-5.4453,-5.4166,-5.4211,-5.42,-5.4146,-5.4017,-5.3931,-5.3931,-5.3844,-5.3888,-5.4103,-5.3941,-5.3721,-5.344,-5.3497,-5.3361,-5.3267,-5.4335,-5.4704,-5.4745,-5.5951,-5.6274,-5.6077,-5.6323,-5.5778,-5.4861,-7.9146,-7.8988,-7.8683,-7.8098,-7.8226,-7.8065,-7.691,-7.691,-7.6893,-7.6557,-7.6105,-7.6369,-7.7517,-7.702,-7.6788,-7.7351,-7.6887,-7.6528,-7.6435,-7.7191,-7.758,-7.7614,-7.7798,-7.8386,-7.9363,-7.9413,-7.9257,-7.8939,-7.819,-7.7583,-7.7193,-7.7125,-7.6736,-7.6094,-7.6644,-7.6575,-7.6059,-7.5924,-7.6256,-7.6702,-7.6345,-7.6193,-7.6149,-7.5942,-7.5141,-7.4022,-7.3205,-7.2427,-7.1739,-7.13,-7.1007,-7.0699,-7.0502,-6.9729,-6.8757,-6.7916,-6.6522,-6.5096,-6.4294,-6.3862,-6.3462,-6.2646,-6.2134,-6.1655,-6.0863,-6.0007,-5.9359,-5.9359,-5.8946,-5.8405,-5.7942,-5.7552,-5.6958,-5.5965,0.0,-5.37,-5.3226,-5.2987,-5.2994,-5.342,-5.3736,-5.3923,-5.3825,-5.3596,-5.3496,-5.3496,-5.3321,-5.3584,-5.4285,-5.4412,-5.4655,-5.4938,-5.4444,-5.4242,-5.4412,-5.42,-5.4103,-5.4103,-5.4103,-5.4103,-5.4103,-5.3962,-5.3927,-5.3997,-5.3996,-5.4127,-5.4406,-5.5315,-5.5599,-5.559,-5.6498,-5.6713,-5.6488,-5.6528,-5.632,-5.5889,-7.975,-7.9303,-7.906,-7.9546,-7.9477,-7.9443,-7.982,-7.9112,-7.8657,-7.9053,-7.7692,-7.7134,-7.8279,-7.7782,-7.7351,-7.7417,-7.7351,-7.6788,-7.5481,-7.5448,-7.6105,-7.753,-7.8503,-7.9313,-8.0107,-8.0358,-8.0573,-8.0785,-8.0,-7.9487,-7.9235,-7.8362,-7.7606,-7.7075,-7.7144,-7.7144,-7.7075,-7.7333,-7.7456,-7.7535,-7.7685,-7.7606,-7.7396,-7.6634,-7.6148,-7.5687,-7.4022,-7.342,-7.3205,-7.2224,-7.1766,-7.1467,-7.1278,-6.9906,-6.8327,-6.8069,-6.6448,-6.4676,-6.4379,-6.3441,-6.255,-6.2267,-6.1055,-5.9786,-5.9474,-5.889,-5.8384,-5.8384,-5.8352,-5.8335,-5.8501,-5.8019,-5.7172,-5.5986,0.0,0.0,-5.3182,-5.3504,-5.389,-5.3954,-5.4393,-5.4539,-5.4103,-5.3919,-5.3789,-5.3789,-5.3746,-5.3876,-5.4103,-5.4528,-5.4948,-5.5328,-5.4707,-5.4412,-5.4412,-5.42,-5.4103,-5.4103,-5.4103,-5.4103,-5.4103,-5.4103,-5.4321,-5.4744,-5.4718,-5.5336,-5.631,-5.6388,-5.6653,-5.6927,-5.7036,-5.6971,-5.6669,-5.6023,-5.5745,-5.5639,-7.9801,-7.9492,-7.9117,-7.894,-7.9293,-7.9293,-7.8252,-7.7934,-7.7681,-7.7485,-7.6151,-7.5683,-7.6987,-7.6523,-7.6092,-7.6092,-7.6092,-7.5662,-7.4668,-7.4754,-7.5189,-7.5954,-7.7576,-7.8314,-7.8145,-7.8684,-7.8978,-7.8886,-7.8135,-7.7856,-7.8085,-7.7674,-7.7409,-7.7223,-7.7223,-7.7223,-7.7223,-7.7525,-7.7613,-7.7613,-7.7841,-7.7485,-7.6816,-7.6539,-7.595,-7.5248,-7.461,-7.4006,-7.3463,-7.3068,-7.2482,-7.181,-7.1556,-7.0534,-6.9199,-6.7758,-6.5844,-6.4228,-6.3923,-6.3641,-6.311,-6.1833,-6.1038,-6.0213,-5.875,-5.82,-5.8058,-5.8058,-5.7696,-5.7428,-5.7702,-5.6829,-5.6037,-5.6074,0.0,-5.3911,-5.4063,-5.4025,-5.401,-5.401,-5.4489,-5.4645,-5.4146,-5.3919,-5.3789,-5.3789,-5.3627,-5.3714,-5.4103,-5.4401,-5.4781,-5.5196,-5.4707,-5.4497,-5.4655,-5.4274,-5.4103,-5.4103,-5.4103,-5.4103,-5.4103,-5.4103,-5.4439,-5.5014,-5.5278,-5.5911,-5.6728,-5.7027,-5.7199,-5.7322,-5.7132,-5.7067,-5.694,-5.6662,-5.6417,-5.6108,-7.9955,-7.9699,-7.9376,-7.8975,-7.9414,-7.9262,-7.7765,-7.7513,-7.7311,-7.6668,-7.5367,-7.4966,-7.6192,-7.5798,-7.5367,-7.5315,-7.5367,-7.5035,-7.4255,-7.4523,-7.4921,-7.5451,-7.6901,-7.7536,-7.7232,-7.7739,-7.7983,-7.7869,-7.7072,-7.6929,-7.7342,-7.7147,-7.7054,-7.7054,-7.7178,-7.7223,-7.7223,-7.7535,-7.7667,-7.771,-7.798,-7.7623,-7.6869,-7.6869,-7.6348,-7.5558,-7.5352,-7.4678,-7.3894,-7.3697,-7.2983,-7.2159,-7.1907,-7.091,-6.9454,-6.7469,-6.5747,-6.432,-6.3866,-6.3741,-6.3311,-6.1302,-6.0526,-5.9926,-5.8371,-5.7854,-5.7759,-5.798,-5.7241,-5.6721,-5.7123,-5.6252,-5.5557,-5.5809,-5.477,-5.4084,-5.4549,-5.4333,-5.4168,-5.4209,-5.4493,-5.4528,-5.4231,-5.3962,-5.3833,-5.3876,-5.3671,-5.3758,-5.4274,-5.4444,-5.4697,-5.5072,-5.479,-5.4623,-5.4655,-5.4274,-5.4146,-5.42,-5.4146,-5.4103,-5.4103,-5.4103,-5.4609,-5.5449,-5.5789,-5.6423,-5.7304,-5.7636,-5.7684,-5.759,-5.7448,-5.7275,-5.7227,-5.701,-5.6886,-5.6778,-8.0209,-8.0006,-7.9904,-8.0158,-7.9972,-7.9634,-7.9178,-7.864,-7.8015,-7.7312,-7.6087,-7.5529,-7.6225,-7.5952,-7.5604,-7.5315,-7.5486,-7.5187,-7.4255,-7.4722,-7.5451,-7.6436,-7.6748,-7.7232,-7.7942,-7.7976,-7.8123,-7.8366,-7.7584,-7.7352,-7.7554,-7.7033,-7.6793,-7.6793,-7.7054,-7.7223,-7.7223,-7.7676,-7.7893,-7.7937,-7.8406,-7.8322,-7.7893,-7.7893,-7.7623,-7.7075,-7.6395,-7.5602,-7.4766,-7.405,-7.3291,-7.2628,-7.2373,-7.0831,-6.8823,-6.7335,-6.6168,-6.5215,-6.4254,-6.3621,-6.2796,-6.0642,-5.9334,-5.8564,-5.8367,-5.7737,-5.7421,-5.8116,-5.7168,-5.641,-5.7073,-5.6631,-5.5936,-5.5197,-5.507,-5.4905,-5.4465,-5.4412,-5.4497,-5.4771,-5.4539,-5.438,-5.438,-5.4017,-5.3876,-5.4103,-5.3919,-5.4092,-5.4771,-5.4771,-5.4896,-5.5072,-5.5072,-5.4874,-5.4412,-5.42,-5.42,-5.4412,-5.42,-5.4103,-5.4103,-5.4103,-5.4861,-5.6189,-5.6189,-5.6979,-5.8321,-5.8321,-5.8136,-5.7871,-5.7871,-5.7731,-5.7402,-5.6762,-5.6949,-5.7402,-7.9904,-7.9853,-7.9853,-7.9904,-7.9567,-7.9213,-7.8876,-7.7665,-7.6793,-7.684,-7.5469,-7.4869,-7.5785,-7.5754,-7.5489,-7.5139,-7.5422,-7.5271,-7.4255,-7.4523,-7.4822,-7.5155,-7.6283,-7.6724,-7.6386,-7.6927,-7.7106,-7.6802,-7.6564,-7.6603,-7.6802,-7.669,-7.6645,-7.6793,-7.6884,-7.7009,-7.7223,-7.7535,-7.7798,-7.7893,-7.8023,-7.8023,-7.785,-7.7754,-7.749,-7.7189,-7.6982,-7.6006,-7.4869,-7.4671,-7.374,-7.2628,-7.2373,-7.1302,-6.9872,-6.8769,-6.6765,-6.4717,-6.3759,-6.254,-6.1273,-6.0528,-5.9992,-5.9384,-5.8277,-5.7854,-5.7759,-5.798,-5.6909,-5.6073,-5.6397,-5.5525,-5.464,-5.4451,-5.4419,-5.441,-5.4401,-5.4412,-5.4454,-5.4497,-5.4041,-5.3629,-5.3503,-5.3365,-5.3323,-5.3408,-5.3765,-5.4103,-5.4274,-5.4316,-5.4401,-5.4623,-5.4623,-5.4707,-5.4906,-5.4497,-5.4285,-5.4157,-5.4146,-5.4103,-5.4103,-5.4103,-5.4861,-5.6189,-5.6189,-5.6979,-5.8321,-5.8321,-5.8274,-5.8182,-5.7965,-5.7825,-5.7746,-5.7558,-5.759,-5.7746,-7.9584,-7.9517,-7.9517,-7.9517,-7.906,-7.8553,-7.8303,-7.7329,-7.6442,-7.5955,-7.5321,-7.4989,-7.5239,-7.5356,-7.5388,-7.5002,-7.5255,-7.5122,-7.4406,-7.4622,-7.4771,-7.4771,-7.5748,-7.6039,-7.5566,-7.6135,-7.6231,-7.5947,-7.5947,-7.5994,-7.6216,-7.6402,-7.6587,-7.6691,-7.6873,-7.7054,-7.7223,-7.7525,-7.7493,-7.7346,-7.7746,-7.7502,-7.6886,-7.7415,-7.7021,-7.6317,-7.6627,-7.5775,-7.4464,-7.4464,-7.3671,-7.2636,-7.2072,-7.108,-6.9986,-6.8938,-6.7079,-6.513,-6.3753,-6.2567,-6.1498,-6.0465,-6.0019,-5.9516,-5.843,-5.7883,-5.7648,-5.7772,-5.6811,-5.6023,-5.6246,-5.5581,-5.4873,-5.4675,-5.4557,-5.4473,-5.4401,-5.4105,-5.3904,-5.3904,-5.3555,-5.3218,-5.3092,-5.3344,-5.3502,-5.3502,-5.3935,-5.4326,-5.4643,-5.4643,-5.4772,-5.4953,-5.5038,-5.5037,-5.4948,-5.4781,-5.4623,-5.4486,-5.4401,-5.4359,-5.4359,-5.4359,-5.4962,-5.6042,-5.5954,-5.6702,-5.8001,-5.7909,-5.8022,-5.8274,-5.8136,-5.8089,-5.8089,-5.8089,-5.8104,-5.8197,-7.9279,-7.9144,-7.9228,-7.9178,-7.8517,-7.7927,-7.768,-7.7445,-7.6641,-7.4889,-7.5389,-7.5572,-7.4739,-7.5033,-7.5228,-7.5067,-7.5018,-7.4837,-7.4556,-7.4671,-7.4819,-7.4819,-7.503,-7.5209,-7.5277,-7.5566,-7.5709,-7.5757,-7.5757,-7.5757,-7.5805,-7.6262,-7.6495,-7.6541,-7.6929,-7.7075,-7.712,-7.7273,-7.698,-7.647,-7.7311,-7.6747,-7.5534,-7.6842,-7.633,-7.4972,-7.574,-7.505,-7.3774,-7.3705,-7.3188,-7.2422,-7.148,-7.0549,-6.9551,-6.8303,-6.7217,-6.6119,-6.4252,-6.3487,-6.2756,-6.0684,-5.9804,-5.9286,-5.8746,-5.7951,-5.7417,-5.7643,-5.6937,-5.6373,-5.6606,-5.6379,-5.6005,-5.5589,-5.5257,-5.4917,-5.4433,-5.3735,-5.3229,-5.3229,-5.3155,-5.3123,-5.3123,-5.3703,-5.4082,-5.4146,-5.4327,-5.473,-5.5461,-5.5493,-5.5611,-5.5815,-5.6071,-5.5792,-5.4909,-5.5127,-5.5178,-5.5072,-5.4896,-5.4813,-5.4813,-5.4813,-5.5197,-5.5762,-5.5686,-5.6396,-5.7592,-5.7431,-5.7751,-5.8367,-5.8367,-5.8367,-5.8367,-5.8367,-5.8473,-5.8655,-7.9753,-7.982,-7.9921,-7.9668,-7.8706,-7.7976,-7.7927,-7.6718,-7.5647,-7.5213,-7.5201,-7.5185,-7.5164,-7.5228,-7.5373,-7.5518,-7.5213,-7.4636,-7.3822,-7.3592,-7.3492,-7.3492,-7.3985,-7.4497,-7.5033,-7.547,-7.5805,-7.6028,-7.6028,-7.6122,-7.6356,-7.6449,-7.6553,-7.6702,-7.6255,-7.6149,-7.6326,-7.575,-7.5846,-7.6322,-7.5777,-7.5786,-7.608,-7.5664,-7.5223,-7.4903,-7.5076,-7.4568,-7.3705,-7.2871,-7.2226,-7.1698,-7.1139,-7.0388,-6.9509,-6.8506,-6.7387,-6.6271,-6.527,-6.3869,-6.2523,-6.1853,-6.0932,-5.9946,-5.9107,-5.8573,-5.8387,-5.8645,-5.7802,-5.7114,-5.7528,-5.6535,-5.5684,-5.5708,-5.5261,-5.4762,-5.4412,-5.4443,-5.4348,-5.4147,-5.3629,-5.3343,-5.3343,-5.347,-5.3871,-5.4581,-5.4687,-5.4932,-5.5461,-5.5665,-5.5846,-5.6113,-5.668,-5.6499,-5.5613,-5.6168,-5.591,-5.4854,-5.4813,-5.4813,-5.4813,-5.4813,-5.5197,-5.5837,-5.6369,-5.7061,-5.7892,-5.839,-5.8709,-5.8869,-5.8869,-5.8869,-5.8869,-5.8869,-5.8869,-5.8882,-7.9533,-7.9567,-7.9465,-7.8876,-7.7965,-7.7239,-7.7091,-7.6066,-7.5277,-7.5179,-7.5131,-7.5179,-7.5277,-7.5325,-7.5373,-7.5518,-7.507,-7.4642,-7.4366,-7.3487,-7.3274,-7.3973,-7.3821,-7.4134,-7.4968,-7.5325,-7.5662,-7.5899,-7.6028,-7.6169,-7.6309,-7.6507,-7.6691,-7.6793,-7.6551,-7.6297,-7.6085,-7.5627,-7.5335,-7.5155,-7.499,-7.4783,-7.4636,-7.4852,-7.4464,-7.3912,-7.4257,-7.3878,-7.3188,-7.2681,-7.1985,-7.1263,-7.0702,-6.9799,-6.8879,-6.8004,-6.7243,-6.6432,-6.564,-6.4304,-6.3033,-6.2372,-6.1363,-6.0335,-5.954,-5.9107,-5.8876,-5.869,-5.8326,-5.8064,-5.8069,-5.7297,-5.6602,-5.6467,-5.5783,-5.5165,-5.4813,-5.4493,-5.4186,-5.3977,-5.37,-5.3688,-5.4039,-5.4473,-5.4909,-5.5261,-5.5665,-5.6135,-5.6622,-5.6753,-5.6945,-5.7197,-5.7416,-5.7237,-5.6659,-5.687,-5.6709,-5.6143,-5.555,-5.5389,-5.5628,-5.5628,-5.6015,-5.6691,-5.6916,-5.7451,-5.8113,-5.8377,-5.8684,-5.9004,-5.9004,-5.9004,-5.9004,-5.9004,-5.9062,-5.9152,-7.933,-7.9195,-7.8859,-7.7967,-7.7176,-7.6588,-7.6256,-7.5732,-7.5277,-7.5067,-7.5179,-7.5277,-7.5228,-7.5277,-7.5258,-7.5205,-7.4776,-7.4573,-7.4705,-7.3323,-7.2997,-7.4268,-7.3638,-7.372,-7.4567,-7.5045,-7.547,-7.5852,-7.6075,-7.6216,-7.6309,-7.6691,-7.677,-7.6667,-7.6882,-7.6489,-7.5706,-7.5662,-7.4938,-7.3843,-7.4326,-7.3878,-7.2981,-7.4119,-7.3774,-7.2782,-7.336,-7.3188,-7.2628,-7.2628,-7.1916,-7.0847,-7.0187,-6.9115,-6.7962,-6.7309,-6.6972,-6.6635,-6.5859,-6.4875,-6.3819,-6.2765,-6.1682,-6.0717,-5.999,-5.964,-5.9302,-5.8765,-5.8856,-5.8947,-5.8634,-5.8137,-5.7652,-5.7335,-5.6402,-5.5589,-5.5168,-5.4475,-5.3926,-5.371,-5.3844,-5.4232,-5.4832,-5.5619,-5.5983,-5.5814,-5.6455,-5.7163,-5.7748,-5.7856,-5.7964,-5.8213,-5.8177,-5.7944,-5.7537,-5.7495,-5.7495,-5.7621,-5.6629,-5.6327,-5.6672,-5.6714,-5.7038,-5.7579,-5.7591,-5.7893,-5.8388,-5.8353,-5.8695,-5.9241,-5.9241,-5.9229,-5.9184,-5.9139,-5.9197,-5.9387,-7.9718,-7.9513,-7.9175,-7.864,-7.795,-7.7293,-7.6849,-7.6121,-7.5566,-7.5277,-7.5277,-7.5228,-7.5067,-7.5179,-7.5104,-7.4735,-7.4424,-7.3662,-7.2284,-7.1732,-7.1494,-7.1467,-7.2144,-7.2686,-7.2993,-7.4508,-7.5662,-7.6402,-7.6449,-7.6633,-7.7043,-7.7133,-7.6834,-7.6169,-7.6001,-7.5254,-7.4085,-7.3869,-7.3809,-7.374,-7.3188,-7.3257,-7.3567,-7.3153,-7.2843,-7.2705,-7.2816,-7.2647,-7.2373,-7.2373,-7.1242,-6.9867,-6.9561,-6.8523,-6.7275,-6.693,-6.6812,-6.6736,-6.6669,-6.5454,-6.4169,-6.3852,-6.2623,-6.1383,-6.0717,-6.0216,-5.9925,-6.0075,-5.9663,-5.9387,-5.9805,-5.8464,-5.7335,-5.7494,-5.6362,-5.5375,-5.5113,-5.514,-5.5117,-5.487,-5.5035,-5.519,-5.5287,-5.5425,-5.5571,-5.5807,-5.5709,-5.6118,-5.7216,-5.7495,-5.7743,-5.7961,-5.8703,-5.8514,-5.727,-5.8023,-5.8152,-5.7621,-5.7604,-5.7572,-5.7459,-5.7628,-5.7693,-5.7654,-5.8577,-5.8945,-5.8981,-5.9728,-6.0108,-6.0206,-6.0206,-6.0076,-5.9935,-5.9673,-5.9628,-5.9575,-7.8556,-7.8354,-7.7966,-7.7363,-7.7011,-7.6557,-7.6111,-7.5672,-7.5518,-7.5518,-7.5422,-7.5325,-7.5373,-7.5099,-7.4823,-7.4627,-7.3756,-7.3088,-7.2759,-7.1673,-7.1419,-7.208,-7.2047,-7.2276,-7.2915,-7.3648,-7.4398,-7.5048,-7.5457,-7.5549,-7.5401,-7.5948,-7.5993,-7.5719,-7.604,-7.5354,-7.4003,-7.4081,-7.3644,-7.2949,-7.2766,-7.292,-7.3119,-7.2809,-7.2713,-7.2671,-7.2544,-7.2331,-7.2115,-7.2115,-7.096,-6.9518,-6.9433,-6.8252,-6.6938,-6.6812,-6.6812,-6.6711,-6.6305,-6.5268,-6.4184,-6.3698,-6.2595,-6.1628,-6.1342,-6.0978,-6.0685,-6.0463,-6.012,-5.999,-6.0206,-5.8903,-5.7758,-5.779,-5.6587,-5.5564,-5.5287,-5.5328,-5.5369,-5.5246,-5.5328,-5.545,-5.5604,-5.6051,-5.6401,-5.6515,-5.667,-5.7024,-5.7557,-5.7935,-5.8195,-5.8268,-5.859,-5.8698,-5.8604,-5.8463,-5.855,-5.8777,-5.8864,-5.8722,-5.8375,-5.846,-5.8773,-5.9206,-5.9703,-5.9876,-5.9824,-6.0204,-6.0378,-6.0378,-6.0378,-6.002,-5.9447,-5.9361,-5.9004,-5.8486]},{"header":{"parameterUnit":"m.s-1","parameterCategory":1,"la1":30.6,"la2":28.766,"lo1":-90.7593,"lo2":-88.6598,"dy":0.0162,"dx":0.0183,"nx":116,"ny":114,"refTime":"2024-05-16T18:00:00:Z","depth":0,"parameterNumber":3,"parameterNumberName":"V-component_of_WINDS"},"data":[0.0,0.0,0.0,0.0,0.0,0.0,0.0,0.0,0.0,0.0,0.0,0.0,0.0,0.0,0.0,0.0,0.0,0.0,0.0,0.0,0.0,0.0,0.0,0.0,0.0,0.0,0.0,0.0,0.0,0.0,0.0,0.0,0.0,0.0,0.0,0.0,0.0,0.0,0.0,0.0,0.0,0.0,0.0,0.0,0.0,0.0,0.0,0.0,0.0,0.0,0.0,0.0,0.0,0.0,0.0,0.0,0.0,0.0,0.0,0.0,0.0,0.0,0.0,0.0,0.0,0.0,0.0,0.0,0.0,0.0,0.0,0.0,0.0,0.0,0.0,0.0,0.0,0.0,0.0,0.0,0.0,0.0,0.0,0.0,0.0,0.0,0.0,0.0,0.0,0.0,0.0,0.0,0.0,0.0,0.0,0.0,0.0,0.0,0.0,0.0,0.0,0.0,0.0,0.0,0.0,0.0,0.0,0.0,0.0,0.0,0.0,0.0,0.0,0.0,0.0,0.0,0.0,0.0,0.0,0.0,0.0,0.0,0.0,0.0,0.0,0.0,0.0,0.0,0.0,0.0,0.0,0.0,0.0,0.0,0.0,0.0,0.0,0.0,0.0,0.0,0.0,0.0,0.0,0.0,0.0,0.0,0.0,0.0,0.0,0.0,0.0,0.0,0.0,0.0,0.0,0.0,0.0,0.0,0.0,0.0,0.0,0.0,0.0,0.0,0.0,0.0,0.0,0.0,0.0,0.0,0.0,0.0,0.0,0.0,0.0,0.0,0.0,0.0,0.0,0.0,0.0,0.0,0.0,0.0,0.0,0.0,0.0,0.0,0.0,0.0,0.0,0.0,0.0,0.0,0.0,0.0,0.0,0.0,0.0,0.0,0.0,0.0,0.0,0.0,0.0,0.0,0.0,0.0,0.0,0.0,0.0,0.0,0.0,0.0,0.0,0.0,0.0,0.0,0.0,0.0,0.0,0.0,0.0,0.0,0.0,0.0,0.0,0.0,0.0,0.0,0.0,0.0,0.0,0.0,0.0,0.0,0.0,0.0,0.0,0.0,0.0,0.0,0.0,0.0,0.0,0.0,0.0,0.0,0.0,0.0,0.0,0.0,0.0,0.0,0.0,0.0,0.0,0.0,0.0,0.0,0.0,0.0,0.0,0.0,0.0,0.0,0.0,0.0,0.0,0.0,0.0,0.0,0.0,0.0,0.0,0.0,0.0,0.0,0.0,0.0,0.0,0.0,0.0,0.0,0.0,0.0,0.0,0.0,0.0,0.0,0.0,0.0,0.0,0.0,0.0,0.0,0.0,0.0,0.0,0.0,0.0,0.0,0.0,0.0,0.0,0.0,0.0,0.0,0.0,0.0,0.0,0.0,0.0,0.0,0.0,0.0,0.0,0.0,0.0,0.0,0.0,0.0,0.0,0.0,0.0,0.0,0.0,0.0,0.0,0.0,0.0,0.0,0.0,0.0,0.0,0.0,0.0,0.0,0.0,0.0,0.0,0.0,0.0,0.0,0.0,0.0,0.0,0.0,0.0,0.0,0.0,0.0,0.0,0.0,0.0,0.0,0.0,0.0,0.0,0.0,0.0,0.0,0.0,0.0,0.0,0.0,0.0,0.0,0.0,0.0,0.0,0.0,0.0,0.0,0.0,0.0,0.0,0.0,0.0,0.0,0.0,0.0,0.0,0.0,0.0,0.0,0.0,0.0,0.0,0.0,0.0,0.0,0.0,0.0,0.0,0.0,0.0,0.0,0.0,0.0,0.0,0.0,0.0,0.0,0.0,0.0,0.0,0.0,0.0,0.0,0.0,0.0,0.0,0.0,0.0,0.0,0.0,0.0,0.0,0.0,0.0,0.0,0.0,0.0,0.0,0.0,0.0,0.0,0.0,0.0,0.0,0.0,0.0,0.0,0.0,0.0,0.0,0.0,0.0,0.0,0.0,0.0,0.0,0.0,0.0,0.0,0.0,0.0,0.0,0.0,0.0,0.0,0.0,0.0,0.0,0.0,0.0,0.0,0.0,0.0,0.0,0.0,0.0,0.0,0.0,0.0,0.0,0.0,0.0,0.0,0.0,0.0,0.0,0.0,0.0,0.0,0.0,0.0,0.0,0.0,0.0,0.0,0.0,0.0,0.0,0.0,0.0,0.0,0.0,0.0,0.0,0.0,0.0,0.0,0.0,0.0,0.0,0.0,0.0,0.0,0.0,0.0,0.0,0.0,0.0,0.0,0.0,0.0,0.0,0.0,0.0,0.0,0.0,0.0,0.0,0.0,0.0,0.0,0.0,0.0,0.0,0.0,0.0,0.0,0.0,0.0,0.0,0.0,0.0,0.0,0.0,0.0,0.0,0.0,0.0,0.0,0.0,0.0,0.0,0.0,0.0,0.0,0.0,0.0,0.0,0.0,0.0,0.0,0.0,0.0,0.0,0.0,0.0,0.0,0.0,0.0,0.0,0.0,0.0,0.0,0.0,0.0,0.0,0.0,0.0,0.0,0.0,0.0,0.0,0.0,0.0,0.0,0.0,0.0,0.0,0.0,0.0,0.0,0.0,0.0,0.0,0.0,0.0,0.0,0.0,0.0,0.0,0.0,0.0,0.0,0.0,0.0,0.0,0.0,0.0,0.0,0.0,0.0,0.0,0.0,0.0,0.0,0.0,0.0,0.0,0.0,0.0,0.0,0.0,0.0,0.0,0.0,0.0,0.0,0.0,0.0,0.0,0.0,0.0,0.0,0.0,0.0,0.0,0.0,0.0,0.0,0.0,0.0,0.0,0.0,0.0,0.0,0.0,0.0,0.0,0.0,0.0,0.0,0.0,0.0,0.0,0.0,0.0,0.0,0.0,0.0,0.0,0.0,0.0,0.0,0.0,0.0,0.0,0.0,0.0,0.0,0.0,0.0,0.0,0.0,0.0,0.0,0.0,0.0,0.0,0.0,0.0,0.0,0.0,0.0,0.0,0.0,0.0,0.0,0.0,0.0,0.0,0.0,0.0,0.0,0.0,0.0,0.0,0.0,0.0,0.0,0.0,0.0,0.0,0.0,0.0,0.0,0.0,0.0,0.0,0.0,0.0,0.0,0.0,0.0,0.0,0.0,0.0,0.0,0.0,0.0,0.0,0.0,0.0,0.0,0.0,0.0,0.0,0.0,0.0,0.0,0.0,0.0,0.0,0.0,0.0,0.0,0.0,0.0,0.0,0.0,0.0,0.0,0.0,0.0,0.0,0.0,0.0,0.0,0.0,0.0,0.0,0.0,0.0,0.0,0.0,0.0,0.0,0.0,0.0,0.0,0.0,0.0,0.0,0.0,0.0,0.0,0.0,0.0,0.0,0.0,0.0,0.0,0.0,0.0,0.0,0.0,0.0,0.0,0.0,0.0,0.0,0.0,0.0,0.0,0.0,0.0,0.0,0.0,0.0,0.0,0.0,0.0,0.0,0.0,0.0,0.0,0.0,0.0,0.0,0.0,0.0,0.0,0.0,0.0,0.0,0.0,0.0,0.0,0.0,0.0,0.0,0.0,0.0,0.0,0.0,0.0,0.0,0.0,0.0,0.0,0.0,0.0,0.0,0.0,0.0,0.0,0.0,0.0,0.0,0.0,0.0,0.0,0.0,0.0,0.0,0.0,0.0,0.0,0.0,0.0,0.0,0.0,0.0,0.0,0.0,0.0,0.0,0.0,0.0,0.0,0.0,0.0,0.0,0.0,0.0,0.0,0.0,0.0,0.0,0.0,0.0,0.0,0.0,0.0,0.0,0.0,0.0,0.0,0.0,0.0,0.0,0.0,0.0,0.0,0.0,0.0,0.0,0.0,0.0,0.0,0.0,0.0,0.0,0.0,0.0,0.0,0.0,0.0,0.0,0.0,0.0,0.0,0.0,0.0,0.0,0.0,0.0,0.0,0.0,0.0,0.0,0.0,0.0,0.0,0.0,0.0,0.0,0.0,0.0,0.0,0.0,0.0,0.0,0.0,0.0,0.0,0.0,0.0,0.0,0.0,0.0,0.0,0.0,0.0,0.0,0.0,0.0,0.0,0.0,0.0,0.0,0.0,0.0,0.0,0.0,0.0,0.0,0.0,0.0,0.0,0.0,0.0,0.0,0.0,0.0,0.0,0.0,0.0,0.0,0.0,0.0,0.0,0.0,0.0,0.0,0.0,0.0,0.0,0.0,0.0,0.0,0.0,0.0,0.0,0.0,0.0,0.0,0.0,0.0,0.0,0.0,0.0,0.0,0.0,0.0,0.0,0.0,0.0,0.0,0.0,0.0,0.0,0.0,0.0,0.0,0.0,0.0,0.0,0.0,0.0,0.0,0.0,0.0,0.0,0.0,0.0,0.0,0.0,0.0,0.0,0.0,0.0,0.0,0.0,0.0,0.0,0.0,0.0,0.0,0.0,0.0,0.0,0.0,0.0,0.0,0.0,0.0,0.0,0.0,0.0,0.0,0.0,0.0,0.0,0.0,0.0,0.0,0.0,0.0,0.0,0.0,0.0,0.0,0.0,0.0,0.0,0.0,0.0,0.0,0.0,0.0,0.0,0.0,0.0,0.0,0.0,0.0,0.0,0.0,0.0,0.0,0.0,0.0,0.0,0.0,0.0,0.0,0.0,0.0,0.0,0.0,0.0,0.0,0.0,0.0,0.0,0.0,0.0,0.0,0.0,0.0,0.0,0.0,0.0,0.0,0.0,0.0,0.0,0.0,0.0,0.0,0.0,0.0,0.0,0.0,0.0,0.0,0.0,0.0,0.0,0.0,0.0,0.0,0.0,0.0,0.0,0.0,0.0,0.0,0.0,0.0,0.0,0.0,0.0,0.0,0.0,0.0,0.0,0.0,0.0,0.0,0.0,0.0,0.0,0.0,0.0,0.0,0.0,0.0,0.0,0.0,0.0,0.0,0.0,0.0,0.0,0.0,0.0,0.0,0.0,0.0,0.0,0.0,0.0,0.0,0.0,0.0,0.0,0.0,0.0,0.0,0.0,0.0,0.0,0.0,0.0,0.0,0.0,0.0,0.0,0.0,0.0,0.0,0.0,0.0,0.0,0.0,0.0,0.0,0.0,0.0,0.0,0.0,0.0,0.0,0.0,0.0,0.0,0.0,0.0,0.0,0.0,0.0,0.0,0.0,0.0,0.0,0.0,0.0,0.0,0.0,0.0,0.0,0.0,0.0,0.0,0.0,0.0,0.0,0.0,0.0,0.0,0.0,0.0,0.0,0.0,0.0,0.0,0.0,0.0,0.0,0.0,0.0,0.0,0.0,0.0,0.0,0.0,0.0,0.0,0.0,0.0,0.0,0.0,0.0,0.0,0.0,0.0,0.0,0.0,0.0,0.0,0.0,0.0,0.0,0.0,0.0,0.0,0.0,0.0,0.0,0.0,0.0,0.0,0.0,0.0,0.0,0.0,0.0,0.0,0.0,0.0,0.0,0.0,0.0,0.0,0.0,0.0,0.0,0.0,0.0,0.0,0.0,0.0,0.0,0.0,0.0,0.0,0.0,0.0,0.0,0.0,0.0,0.0,0.0,0.0,0.0,0.0,0.0,0.0,0.0,0.0,0.0,0.0,0.0,0.0,0.0,0.0,0.0,0.0,0.0,0.0,0.0,0.0,0.0,0.0,0.0,0.0,0.0,0.0,0.0,0.0,0.0,0.0,0.0,0.0,0.0,0.0,0.0,0.0,0.0,0.0,0.0,0.0,0.0,0.0,0.0,0.0,0.0,0.0,0.0,0.0,0.0,0.0,0.0,0.0,0.0,0.0,0.0,0.0,0.0,0.0,0.0,0.0,0.0,0.0,0.0,0.0,0.0,0.0,0.0,0.0,0.0,0.0,0.0,0.0,0.0,0.0,0.0,0.0,0.0,0.0,0.0,0.0,0.0,0.0,0.0,0.0,0.0,0.0,0.0,0.0,0.0,0.0,0.0,0.0,0.0,0.0,0.0,0.0,0.0,0.0,0.0,0.0,0.0,0.0,0.0,0.0,0.0,0.0,0.0,0.0,0.0,0.0,0.0,0.0,0.0,0.0,0.0,0.0,0.0,0.0,0.0,0.0,0.0,0.0,0.0,0.0,0.0,0.0,0.0,0.0,0.0,0.0,2.5127,0.0,0.0,0.0,0.0,0.0,0.0,0.0,0.0,0.0,0.0,0.0,0.0,0.0,0.0,0.0,0.0,0.0,0.0,0.0,0.0,0.0,0.0,0.0,0.0,4.5833,4.6352,4.6412,4.7253,4.7963,4.841,0.0,0.0,0.0,0.0,0.0,3.9608,3.7063,3.5856,3.6051,3.5278,3.6376,3.916,3.7735,3.5572,3.2826,0.0,0.0,0.0,0.0,0.0,0.0,0.0,0.0,0.0,0.0,0.0,0.0,0.0,0.0,0.0,0.0,0.0,0.0,0.0,0.0,0.0,0.0,0.0,0.0,0.0,0.0,0.0,0.0,0.0,0.0,0.0,0.0,0.0,0.0,0.0,0.0,0.0,0.0,0.0,0.0,0.0,0.0,0.0,0.0,0.0,0.0,0.0,0.0,0.0,0.0,0.0,0.0,0.0,0.0,0.0,0.0,0.0,0.0,0.0,0.0,0.0,0.0,0.0,0.0,0.0,0.0,0.0,0.0,0.0,0.0,0.0,2.7324,0.0,0.0,0.0,0.0,0.0,0.0,0.0,0.0,0.0,0.0,0.0,0.0,0.0,0.0,0.0,0.0,0.0,0.0,0.0,0.0,0.0,4.5573,4.4962,4.6329,4.7372,4.7518,4.8097,4.8445,4.8361,4.6583,0.0,0.0,0.0,3.9432,3.8405,3.6143,3.5792,3.7483,3.8161,3.9987,4.2769,4.2072,3.9731,3.5928,3.2618,0.0,0.0,0.0,0.0,0.0,0.0,0.0,0.0,0.0,0.0,0.0,0.0,0.0,0.0,0.0,0.0,0.0,0.0,0.0,0.0,0.0,0.0,0.0,0.0,0.0,0.0,0.0,0.0,0.0,0.0,0.0,0.0,0.0,0.0,0.0,0.0,0.0,0.0,0.0,0.0,0.0,0.0,0.0,0.0,0.0,0.0,0.0,0.0,0.0,0.0,0.0,0.0,0.0,0.0,0.0,0.0,0.0,0.0,0.0,0.0,0.0,0.0,0.0,3.8097,3.7995,3.703,3.7652,3.7618,3.6832,3.352,3.204,3.1802,2.8857,0.0,0.0,0.0,0.0,0.0,0.0,0.0,0.0,0.0,0.0,0.0,0.0,0.0,0.0,0.0,0.0,0.0,0.0,0.0,4.6588,4.6518,4.7491,4.8428,4.9114,4.8654,4.8268,4.8163,4.5872,0.0,0.0,3.9188,3.6884,3.5242,3.4665,3.5251,3.6985,4.1788,4.4578,4.5493,4.5779,4.508,4.3354,3.7966,3.5545,3.5224,0.0,0.0,0.0,0.0,0.0,0.0,0.0,0.0,0.0,0.0,0.0,0.0,0.0,0.0,0.0,0.0,0.0,0.0,0.0,0.0,0.0,0.0,0.0,0.0,0.0,0.0,0.0,0.0,0.0,0.0,0.0,0.0,0.0,0.0,0.0,0.0,0.0,0.0,0.0,0.0,0.0,3.3638,3.2936,0.0,0.0,0.0,0.0,0.0,0.0,0.0,0.0,0.0,0.0,0.0,0.0,0.0,3.8856,3.9462,4.0788,4.1607,4.2037,4.3085,4.3061,4.2238,4.2508,4.2006,4.0984,3.9841,0.0,3.4824,3.3204,0.0,0.0,0.0,0.0,0.0,0.0,0.0,0.0,0.0,0.0,0.0,0.0,0.0,0.0,0.0,0.0,0.0,0.0,0.0,0.0,0.0,4.9433,5.0568,5.1344,5.0985,4.9848,4.7799,4.4627,4.1895,3.9815,3.6508,3.4845,3.5095,3.4979,3.7036,4.1319,4.5187,4.7582,4.8623,4.8761,4.8424,4.767,4.4827,4.1498,3.7765,3.441,0.0,0.0,0.0,0.0,0.0,0.0,0.0,0.0,0.0,0.0,0.0,0.0,0.0,0.0,0.0,0.0,0.0,0.0,0.0,0.0,0.0,0.0,0.0,0.0,0.0,0.0,0.0,0.0,0.0,0.0,0.0,0.0,0.0,0.0,0.0,0.0,0.0,0.0,0.0,3.5049,3.6316,3.5927,3.4925,3.3613,0.0,0.0,0.0,0.0,0.0,0.0,0.0,0.0,0.0,4.0862,4.1731,4.2757,4.4045,4.4482,4.465,4.4716,4.5503,4.5207,4.3959,4.4386,4.3962,4.2802,4.2829,4.1653,3.9561,3.6786,3.4978,3.3843,0.0,0.0,0.0,0.0,3.184,3.1677,0.0,0.0,0.0,0.0,0.0,0.0,0.0,0.0,0.0,0.0,0.0,0.0,5.0043,5.1551,5.2697,5.3401,5.2819,5.0949,4.7524,4.3625,4.0304,3.7798,3.4418,3.3345,3.5013,3.6239,3.9499,4.4927,4.746,4.9456,5.0894,5.0926,5.0874,5.07,5.0101,4.6691,4.1272,3.8216,3.588,3.396,0.0,0.0,0.0,0.0,0.0,0.0,0.0,0.0,0.0,0.0,0.0,0.0,0.0,0.0,0.0,0.0,0.0,0.0,0.0,0.0,0.0,0.0,0.0,0.0,0.0,0.0,0.0,0.0,0.0,0.0,0.0,0.0,0.0,0.0,0.0,0.0,0.0,3.8309,3.9243,3.8781,3.8287,3.7208,0.0,0.0,0.0,0.0,0.0,0.0,4.0744,4.1842,4.3126,4.4709,4.5217,4.6154,4.7407,4.7184,4.6935,4.666,4.6743,4.6139,4.5055,4.5293,4.4948,4.4056,4.4324,4.4017,4.318,3.9916,3.8204,3.754,3.6424,3.5839,3.5581,3.5756,3.5391,3.5002,0.0,0.0,0.0,0.0,0.0,0.0,0.0,0.0,0.0,0.0,0.0,5.0822,5.2598,5.3498,5.4256,5.4936,5.3133,5.0642,0.0,4.3194,3.9273,3.5876,3.3305,3.2532,3.3758,3.8367,4.2222,4.5241,4.8,5.0093,5.1458,5.2156,5.2534,5.2604,5.2035,5.0438,4.7958,4.3901,4.1517,4.0068,3.5457,0.0,0.0,0.0,0.0,0.0,0.0,0.0,0.0,0.0,0.0,0.0,0.0,0.0,0.0,0.0,0.0,0.0,0.0,0.0,0.0,0.0,0.0,0.0,0.0,0.0,0.0,0.0,0.0,0.0,0.0,0.0,0.0,0.0,0.0,0.0,0.0,0.0,0.0,4.1309,4.2947,0.0,0.0,0.0,0.0,4.1379,4.2675,4.4051,4.5455,4.6345,4.6945,4.7321,4.8121,4.8446,4.8242,4.8242,4.8242,4.8178,4.6983,4.6357,4.6269,4.5653,4.5395,4.5307,4.4659,4.4398,4.4217,4.2696,4.1788,4.126,4.0732,4.0203,3.9708,3.9092,3.8851,3.8707,0.0,0.0,0.0,0.0,0.0,4.289,4.323,4.4777,4.6234,4.729,4.9617,5.2157,5.4814,5.5802,5.639,5.6807,5.4294,5.0878,4.6673,4.1639,3.8265,3.7001,3.4488,3.4974,3.9032,4.1829,4.4737,4.777,4.9426,5.0961,5.2398,5.2665,5.3023,5.3361,5.2885,5.2194,5.1083,4.7488,4.483,4.2773,3.9409,3.6596,0.0,0.0,0.0,0.0,0.0,0.0,0.0,0.0,0.0,0.0,0.0,0.0,0.0,0.0,0.0,0.0,0.0,0.0,0.0,0.0,0.0,0.0,0.0,0.0,0.0,0.0,0.0,0.0,0.0,0.0,0.0,0.0,0.0,0.0,0.0,0.0,0.0,4.5715,4.6478,0.0,4.3645,4.4329,4.4945,4.4954,4.5876,4.6756,4.7421,4.7732,4.823,4.9038,4.9131,4.9361,4.9621,4.9426,4.9122,4.8839,4.8318,4.7853,4.7277,4.7167,4.6882,4.6569,4.6448,4.6394,4.6304,4.5333,4.4156,4.2982,4.2821,4.2247,4.145,4.0761,4.0181,3.9556,0.0,0.0,0.0,0.0,4.1097,4.1993,4.2322,4.4331,4.628,4.7615,5.0405,5.3427,5.6425,5.7081,5.7224,5.6911,5.399,5.0185,4.5681,4.0875,3.7986,3.7465,3.6287,3.7575,4.1789,4.3932,4.6321,4.8927,5.0191,5.1492,5.2799,5.2729,5.3059,5.3687,5.3287,5.3161,5.3105,5.076,4.82,4.5557,4.3325,4.074,3.8072,0.0,0.0,0.0,0.0,0.0,0.0,0.0,0.0,0.0,0.0,0.0,0.0,0.0,0.0,0.0,0.0,0.0,0.0,0.0,0.0,0.0,0.0,0.0,0.0,0.0,0.0,0.0,0.0,0.0,0.0,0.0,0.0,0.0,0.0,0.0,4.7781,4.8532,4.9457,4.9272,4.7403,4.8094,4.8544,4.8273,4.8787,4.9085,4.9292,4.9317,4.9641,5.0364,5.0166,5.0232,5.072,5.0497,5.019,4.9841,4.9685,4.919,4.837,4.8452,4.8133,4.745,4.7617,4.7696,4.763,4.6898,4.5939,4.4844,4.4469,4.3716,4.2757,4.2198,4.1383,4.0415,0.0,0.0,0.0,3.9365,4.0235,4.1004,4.1364,4.3839,4.6365,4.8325,5.1499,5.4577,5.7215,5.7286,5.6568,5.5175,5.1992,4.8409,4.4489,4.0889,3.8335,3.7084,3.8544,4.0043,4.1525,4.4561,4.6942,4.8618,5.0169,5.1539,5.2555,5.2445,5.2845,5.362,5.3221,5.3465,5.4086,5.3705,5.1662,4.8568,4.7094,4.5191,4.287,0.0,0.0,0.0,0.0,0.0,0.0,0.0,0.0,0.0,0.0,0.0,0.0,0.0,0.0,0.0,0.0,0.0,0.0,0.0,0.0,0.0,0.0,0.0,0.0,0.0,0.0,0.0,0.0,0.0,0.0,0.0,0.0,0.0,4.6005,4.9141,5.0978,4.9635,5.1889,5.2545,4.999,5.0794,5.1511,5.1395,5.1367,5.1364,5.1339,5.1339,5.1339,5.1364,5.1297,5.1297,5.1297,5.1297,5.1297,5.1272,5.0913,5.0281,4.9429,4.9404,4.8935,4.8026,4.8026,4.8026,4.8026,4.7298,4.7032,4.6965,4.5822,4.4794,4.3765,4.3458,4.2691,4.1633,0.0,0.0,3.6363,3.7388,3.7972,3.8615,3.949,4.1478,4.3709,4.6023,4.8961,5.2015,5.4975,5.5233,5.4828,5.3998,4.9874,4.5954,4.2707,3.8589,3.6814,3.8094,4.1065,4.3422,4.5016,4.6255,4.7432,4.8518,5.0063,5.0994,5.144,5.1897,5.2332,5.2677,5.2569,5.2557,5.2642,5.2875,5.207,5.0396,4.936,4.761,4.5453,0.0,0.0,0.0,0.0,0.0,0.0,0.0,0.0,0.0,0.0,0.0,0.0,0.0,0.0,0.0,0.0,0.0,0.0,0.0,0.0,0.0,0.0,0.0,0.0,0.0,0.0,0.0,0.0,0.0,0.0,0.0,4.8021,5.0701,5.0159,5.1618,5.3048,5.3916,5.444,5.4251,5.3043,5.3387,5.3185,5.21,5.2455,5.2476,5.2042,5.2017,5.2088,5.2253,5.2253,5.2119,5.1875,5.1875,5.1674,5.1272,5.1206,5.0772,5.009,4.9892,4.9528,4.9137,4.8877,4.8942,4.9072,4.8396,4.8067,4.7936,4.6338,4.536,4.4648,4.4092,4.308,4.1938,0.0,3.5287,3.5259,3.6131,3.6531,3.6939,3.7603,3.9341,4.1458,4.4043,4.7095,4.9988,5.2597,5.3149,5.2632,5.097,4.7527,4.4064,4.0828,3.8254,3.7856,4.0156,4.2878,4.4854,4.6025,4.6963,4.7645,4.8139,4.9346,5.0007,5.0219,5.087,5.1234,5.127,5.1602,5.1655,5.1429,5.1782,5.1523,5.0717,4.9818,4.8959,4.7972,4.6389,4.508,4.3868,4.1876,4.1273,4.1224,3.9894,0.0,0.0,0.0,0.0,0.0,0.0,0.0,0.0,0.0,0.0,0.0,0.0,0.0,0.0,0.0,0.0,0.0,0.0,0.0,0.0,0.0,0.0,0.0,0.0,5.1166,5.3527,5.3585,5.4493,5.553,5.6494,5.6111,5.5599,5.5207,5.4771,5.4159,5.3288,5.3438,5.3356,5.2997,5.2997,5.3084,5.3148,5.3173,5.3038,5.2657,5.2657,5.2412,5.1975,5.1975,5.1481,5.0506,5.0506,5.0081,4.9396,4.9332,4.9396,4.9551,4.9231,4.892,0.0,0.0,0.0,0.0,0.0,4.3367,4.2489,0.0,3.464,3.4885,3.5215,3.5369,3.5502,3.5645,3.7118,3.9254,4.2106,4.5199,4.7937,5.0053,5.0708,4.9938,4.7187,4.5124,4.2576,0.0,3.9059,4.0132,4.2391,4.3945,4.5011,4.5586,4.6933,4.7609,4.7548,4.8353,4.8816,4.8897,4.9636,4.9881,4.9759,5.0585,5.0723,5.0409,5.0608,5.0454,5.0002,4.918,4.9346,4.9914,4.8205,4.7533,4.7114,4.4593,4.3888,4.3857,4.2175,0.0,0.0,0.0,0.0,0.0,0.0,0.0,0.0,0.0,0.0,0.0,0.0,0.0,0.0,0.0,0.0,0.0,0.0,0.0,0.0,0.0,0.0,0.0,0.0,5.3698,5.515,5.6249,5.7327,5.7896,5.7771,5.7077,5.6628,5.6628,5.5445,5.4645,5.4645,5.4376,5.42,5.42,0.0,0.0,0.0,0.0,5.3929,5.3546,5.3546,5.3341,5.2998,5.2929,5.2147,5.0854,5.1164,5.0563,4.9277,4.9486,4.959,4.964,4.9866,4.966,4.9147,4.7984,4.6902,4.57,4.4549,4.3736,4.3257,0.0,3.3415,3.2861,3.3131,3.2838,3.2688,3.2922,3.387,3.5768,3.8946,4.1193,4.3627,4.6692,4.6547,4.6222,4.6158,4.329,4.0656,0.0,0.0,4.0112,4.1742,4.359,4.4878,4.5552,4.6827,4.7169,4.6561,4.791,4.8194,4.7504,4.8781,4.9273,4.9113,4.9818,5.0018,4.9781,4.9986,4.9829,4.9367,4.8678,4.864,4.8789,4.777,4.777,4.813,4.6289,4.6934,4.8388,4.6555,4.5463,4.4631,4.3424,4.1134,0.0,0.0,0.0,0.0,0.0,0.0,0.0,0.0,0.0,0.0,0.0,0.0,0.0,0.0,0.0,0.0,0.0,0.0,0.0,5.2648,5.4684,5.6307,5.7057,5.8211,5.8662,5.7842,5.7092,5.6628,5.6628,5.5842,5.5405,5.5405,5.5339,5.5272,5.5272,5.5032,5.4738,5.4443,5.4376,5.4241,5.3929,5.3614,5.3478,5.341,0.0,0.0,5.1858,5.1473,5.1053,5.0504,4.9856,4.9719,5.0026,5.0193,5.0212,5.0022,4.846,4.7449,4.6689,4.608,4.5396,4.4712,3.2496,3.2376,3.2057,3.1741,3.1938,3.1931,3.1315,3.1995,3.3625,3.6301,3.7692,3.9449,4.212,4.1965,4.1462,4.0972,3.9171,0.0,0.0,3.9809,4.0981,4.2741,4.4301,4.5232,4.5482,4.6369,4.661,4.6044,4.678,4.6792,4.615,4.7189,4.7502,4.7146,4.8253,4.8568,4.8347,4.886,4.8635,4.7855,4.7099,4.6528,4.6213,4.6652,4.7066,4.7331,4.6648,4.7279,4.8357,4.7777,4.7021,4.6167,4.5437,4.3312,4.0641,0.0,0.0,0.0,0.0,0.0,0.0,0.0,0.0,0.0,0.0,0.0,0.0,0.0,0.0,4.9905,0.0,0.0,5.3641,5.508,5.6457,5.729,5.7197,5.8043,5.8681,5.8487,5.7688,5.7146,5.7146,5.6394,5.5868,5.5868,5.5868,5.5802,5.5604,5.5432,5.5139,5.4805,5.4805,5.4578,5.4241,5.4064,5.3929,5.3725,5.341,5.3037,5.2615,5.2135,5.1554,5.0941,5.0532,5.01,4.9873,4.9956,5.0167,5.0303,4.9231,4.8355,4.7672,4.7165,4.6433,4.5587,3.1024,3.1413,3.1471,3.0801,3.1376,3.1456,3.0113,3.065,3.1846,3.372,3.4676,3.5846,3.7622,3.7682,3.7055,3.5684,3.573,0.0,0.0,4.0549,4.1838,4.3807,4.4854,4.5299,4.5085,4.5559,4.5829,4.575,4.5556,4.5337,4.5129,4.5708,4.5743,4.5297,4.6722,4.7169,4.691,4.7581,4.7322,4.6401,4.5382,4.4335,4.3514,4.4699,4.5344,4.5595,4.552,4.5786,4.6228,4.6938,4.6665,4.6036,4.5991,4.4588,4.2573,4.0554,3.9868,0.0,0.0,0.0,0.0,0.0,0.0,0.0,0.0,4.7167,4.8858,5.0531,5.2209,5.3803,5.4997,5.5615,5.6317,5.751,5.7982,5.794,5.7192,5.7678,5.8306,5.8812,5.8076,5.7551,5.7624,5.6785,5.6197,5.6197,5.6197,5.6132,5.5802,5.5736,5.5538,5.5299,5.5299,5.5072,5.4712,5.4645,5.4376,5.3997,5.3725,5.3496,5.3238,5.2868,5.219,5.1224,5.0955,5.0392,4.9766,4.9866,5.0117,5.0393,5.0042,4.9441,4.8657,4.7936,4.7233,4.6478,0.0,3.0297,3.0281,3.0202,2.9986,2.9608,2.8984,2.9178,2.9757,3.0856,3.2281,3.3598,3.4587,3.4731,3.4547,3.399,3.6242,0.0,3.9115,4.0535,4.196,4.3424,4.3779,4.4073,4.4317,4.4275,4.4665,4.5531,4.469,4.4433,4.4678,4.5164,4.5275,4.5059,4.6026,4.6389,4.6376,4.6296,4.6053,4.5618,4.4376,4.3243,4.2175,4.1435,4.1989,4.308,4.2085,4.2179,4.2973,4.3862,4.4131,4.4322,4.5606,4.5534,4.4591,4.2625,4.2043,4.1867,4.1175,4.266,4.4981,4.6991,4.7242,4.8431,0.0,0.0,5.2684,5.5167,5.6021,5.6618,5.734,5.7475,5.7781,5.8516,5.8187,5.7796,5.7712,5.7616,5.7519,5.7575,5.71,5.6959,5.7248,5.6877,5.6616,5.6616,5.6616,5.6616,5.6616,5.6263,5.6066,5.6,5.6,5.5802,5.5472,5.5165,5.4671,5.3997,5.3997,5.3768,5.3445,5.3247,5.2818,5.2086,5.0766,5.0265,5.0368,5.087,5.082,5.0469,5.0921,5.0403,4.9396,4.8657,4.815,4.7731,0.0,2.9563,2.9425,2.9103,2.947,2.9278,2.7823,2.8394,2.8961,2.8918,3.0,3.067,3.0366,3.0082,3.0023,3.0452,3.2792,3.5188,3.7314,3.8997,4.056,4.2071,4.2829,4.3201,4.3072,4.3772,4.4354,4.4871,4.4341,4.3938,4.3685,4.3731,4.3533,4.3091,4.3853,4.4436,4.4822,4.5111,4.4883,4.4259,4.3449,4.2341,4.0986,3.9385,3.8972,3.9269,3.9567,4.0032,0.0,4.1585,4.2324,4.2998,4.3998,4.3888,4.3296,4.2414,4.2872,4.4063,4.5933,4.742,4.8642,4.953,5.0949,5.2423,5.3949,5.4431,5.4941,5.6158,5.7262,5.8061,5.836,5.8693,5.903,0.0,5.8927,5.8143,5.7406,5.6686,5.6083,5.5569,5.5446,5.5902,5.7157,5.6786,5.6628,5.6952,5.7006,5.6942,5.6747,5.6524,5.6328,5.6132,5.6132,5.6066,5.5868,5.5538,5.5232,5.4939,5.4511,5.4335,5.4428,5.4077,5.3531,5.2766,5.162,5.0977,5.0705,5.0958,5.0705,5.0226,5.0478,5.0212,4.9525,4.9242,4.8918,4.8502,0.0,2.8685,2.849,2.7895,2.8576,2.8762,2.73,2.7914,2.8323,2.7677,2.8092,2.8076,2.7027,2.6556,2.6728,2.7668,2.9859,3.2456,3.5467,3.7273,3.9062,4.0847,4.1675,4.2158,4.2302,4.3007,4.3563,4.397,4.3531,4.3027,4.2463,4.2226,4.1841,4.1401,4.1968,4.2566,4.3119,4.3629,4.3458,4.2748,4.226,4.1261,3.9784,3.8086,3.6911,3.6297,3.7183,3.77,3.816,3.914,4.0099,4.1047,4.1932,4.204,4.1921,4.2624,4.4216,4.6373,4.8922,5.0427,5.1381,5.1523,5.3483,5.4998,5.3754,5.4572,5.5731,5.6089,5.6939,5.78,5.8349,5.8888,5.9493,6.0062,5.9565,5.8643,5.7302,5.6358,5.5445,5.4595,5.4497,5.5118,5.6747,5.653,5.6468,5.6902,5.7092,5.7109,5.6877,5.6877,5.672,5.6394,5.6394,5.6394,5.6263,5.6,5.5736,5.5498,5.5113,5.4913,5.4939,5.4489,5.3937,5.3258,5.2338,5.158,5.1096,5.1249,5.0893,5.0257,5.0281,5.0128,4.9847,4.9783,4.9525,4.9127,0.0,0.0,2.7387,2.661,2.6957,2.7465,2.7716,2.7714,2.7496,2.7065,2.6788,2.6201,2.5283,2.5313,2.5768,2.6585,2.879,3.1254,3.3889,3.5829,3.7887,4.0222,4.0109,4.072,4.2269,4.1565,4.1749,4.2957,4.1822,4.1243,4.1156,4.0772,4.0539,4.0529,4.0964,4.1295,4.1485,4.1678,4.155,4.1123,4.0715,3.9808,3.8539,3.7455,3.6133,3.4948,3.4788,3.475,3.4946,3.6203,3.7168,3.8073,3.9547,4.0537,0.0,4.4098,4.6771,4.8905,4.8639,5.0251,5.2334,5.3249,5.4231,5.5082,5.5357,5.499,5.4793,5.5412,5.5074,5.5306,5.7106,5.7937,5.8774,6.0001,5.9939,5.9299,5.7945,5.6967,5.6137,5.5538,5.4855,5.49,0.0,5.6162,5.6305,5.6332,5.6848,5.7174,5.7174,5.7174,5.7174,5.7174,5.7174,5.7006,5.6682,5.6682,5.6158,5.5099,5.5736,5.5512,5.4485,5.3967,5.3708,5.359,5.2668,5.1972,5.1511,5.2075,5.1613,5.0576,5.0777,5.0779,5.0525,5.0168,4.9847,4.945,0.0,0.0,0.0,2.6704,2.6878,2.7059,2.6943,2.6925,2.6806,2.6472,2.5811,0.0,0.0,0.0,0.0,0.0,2.714,2.9207,3.1772,3.3751,3.5435,3.6842,3.8368,3.9255,3.9383,4.0322,4.1081,4.1496,4.1076,4.0708,4.0434,3.9903,3.9557,3.9431,3.9438,3.9783,4.0347,4.0268,4.0239,4.0169,3.9367,3.8859,3.8482,3.7455,3.6248,3.5078,0.0,3.4502,3.4112,3.4091,3.5291,3.6949,3.7564,3.8347,3.978,4.3754,4.6605,4.8927,5.1195,5.2739,5.3901,5.4677,5.5138,5.514,5.4474,5.3967,5.3523,5.2927,5.3268,5.392,5.477,5.6107,5.7569,5.9042,5.9215,5.8868,5.7974,5.7799,5.6907,5.4799,5.5104,0.0,0.0,0.0,0.0,5.6251,5.6659,5.7022,5.7174,5.7174,5.7303,5.7496,5.7303,5.7238,5.7367,5.6942,5.6551,5.6158,5.6132,5.5776,5.518,5.5062,5.4719,5.4226,5.3886,5.32,5.2349,5.2555,5.1962,5.0956,5.101,5.0831,5.0588,5.0487,5.0359,5.013,0.0,0.0,0.0,0.0,0.0,0.0,0.0,0.0,0.0,0.0,0.0,0.0,0.0,0.0,0.0,0.0,0.0,2.715,2.9788,3.1255,3.2702,3.4251,3.5798,3.6664,3.6706,3.8039,3.8843,3.9162,3.9295,3.9307,3.9136,3.8614,3.8418,3.8418,3.8225,3.8388,3.8783,3.8818,3.8763,3.863,3.8225,3.8043,3.8016,3.7262,3.6316,0.0,3.4683,3.4365,3.414,3.3561,3.4797,3.6741,3.7491,3.9344,4.1875,4.4964,4.7526,5.0009,5.3134,5.3994,5.4248,5.5361,5.5337,5.4828,5.403,5.3049,5.1933,5.0933,5.0989,5.1402,5.1927,5.3495,5.5451,5.7772,5.8522,5.884,5.8725,5.9127,5.8604,5.6537,5.6929,5.6964,0.0,0.0,0.0,5.5862,5.6614,5.7086,5.7044,5.7109,5.7303,5.7496,5.7303,5.7303,5.7496,5.7109,5.6877,5.6877,5.6328,5.6066,5.6,5.5736,5.5339,5.4913,5.4805,5.4089,5.3023,5.3023,5.2348,5.1309,5.1183,5.1057,5.0968,5.0842,5.0804,5.0638,0.0,0.0,0.0,0.0,0.0,0.0,0.0,0.0,0.0,0.0,0.0,0.0,0.0,0.0,0.0,0.0,0.0,0.0,2.7983,2.8559,2.9895,3.235,3.2599,3.3253,3.4494,3.4987,3.5537,3.6196,3.6673,3.7109,3.7477,3.704,3.7089,3.751,3.7319,3.712,3.6979,3.7358,3.7123,3.6645,3.7221,3.7365,3.7142,3.681,3.6262,3.5511,3.4199,3.4206,3.4789,3.4489,3.5733,3.7659,3.9264,4.3298,4.7491,4.7775,4.9698,5.2158,5.4229,5.4057,5.3683,5.5442,5.4966,5.4035,5.3922,5.2068,5.023,4.9535,4.8419,4.7852,0.0,0.0,5.2601,5.6132,5.8003,5.9303,6.0118,6.0874,6.1077,6.0322,6.0025,0.0,0.0,0.0,0.0,5.5231,0.0,5.7404,5.6747,5.7044,5.7238,5.7238,5.7238,5.7238,5.7303,5.7238,5.7238,5.7174,5.6524,5.6328,5.6682,5.6,5.5604,5.5604,5.5299,5.4537,5.3426,5.34,5.2694,5.1648,5.1298,5.1335,5.1586,5.1298,5.1172,5.1031,0.0,0.0,0.0,0.0,0.0,0.0,0.0,0.0,0.0,0.0,0.0,0.0,0.0,0.0,0.0,0.0,0.0,0.0,2.6253,2.7966,2.9089,2.9488,3.1381,3.2639,3.3181,3.4696,3.5735,3.6196,3.6663,3.7001,3.7187,3.6519,3.6382,3.6627,3.6262,3.6176,3.6223,3.6176,3.6273,3.6322,3.5856,3.6007,3.6548,3.6612,3.6034,3.5273,3.5552,3.5583,3.5568,3.5869,3.8705,4.2332,4.3393,4.5752,4.8346,4.9591,5.1562,5.3617,5.4885,5.5416,5.5629,5.5814,5.4613,5.3052,5.1974,5.0287,4.8499,4.7002,4.6413,4.6039,4.5605,4.908,5.2378,5.364,5.7657,0.0,6.0932,6.2325,0.0,6.0805,6.1135,6.0989,5.9538,5.9674,0.0,0.0,5.7359,5.7286,5.7109,5.7109,5.7431,5.7944,5.7431,5.756,5.8325,5.7816,5.7431,5.7174,5.6979,5.685,5.6682,5.6486,5.6132,5.5604,5.5802,5.5116,5.3975,5.3815,5.3185,5.2276,5.2212,5.2212,5.2276,5.2149,5.2149,5.2007,0.0,0.0,0.0,0.0,0.0,0.0,0.0,0.0,0.0,0.0,0.0,0.0,0.0,0.0,0.0,0.0,0.0,0.0,0.0,2.7076,2.7976,2.821,2.9757,3.0635,3.0815,3.2461,3.3495,3.3876,3.4748,3.5416,3.5815,3.5312,3.5247,3.5543,3.5229,3.5014,3.486,3.5113,3.5195,0.0,0.0,3.57,3.6155,3.6553,3.6225,3.5594,3.5979,3.7194,3.8842,4.0153,4.2824,4.5893,4.7088,4.8738,5.0507,5.211,5.35,5.4793,5.5965,5.6113,5.5855,5.5401,5.3844,5.1868,4.9893,4.8198,4.6423,4.419,4.3709,4.3477,4.2823,4.6338,4.996,5.2043,5.6449,0.0,6.1771,6.3428,6.4004,6.2716,6.2922,6.2686,6.1465,6.1274,6.0662,0.0,5.8714,5.8035,5.7331,5.7503,5.7752,5.7944,5.7752,5.788,5.8451,5.8135,5.7816,5.7624,5.7624,5.7431,5.7109,5.6736,5.6214,5.5693,0.0,5.4993,5.3904,5.3915,5.3418,5.2649,5.226,5.2433,5.2851,5.2589,5.2485,5.2433,0.0,0.0,0.0,0.0,0.0,0.0,0.0,0.0,0.0,0.0,2.5836,0.0,0.0,0.0,0.0,0.0,0.0,0.0,0.0,0.0,0.0,2.7769,2.8107,2.8345,2.8461,2.969,3.0536,3.0934,3.2211,3.3186,3.3893,3.3731,3.3924,3.4288,3.4176,3.3815,3.3383,3.4159,3.4109,3.3706,3.5159,3.576,3.5819,0.0,0.0,3.6145,3.6153,3.8583,4.217,4.4951,4.6993,4.8696,5.0337,5.1807,5.3274,5.4835,5.5426,5.5794,5.6984,5.6374,5.5271,5.4608,5.2839,5.0556,4.7912,4.6126,4.4292,4.1638,4.1081,4.0956,4.0562,4.3262,4.6869,5.0869,5.4847,5.8749,6.2583,6.4125,6.488,6.4967,6.4676,6.4354,6.403,6.3127,6.223,6.1176,6.0385,5.9248,5.7647,5.8007,5.809,5.7752,5.8135,5.8262,5.8198,5.8262,5.8262,5.8198,5.8198,5.8071,5.7752,5.6913,5.635,5.5966,5.5617,5.481,5.3724,5.3959,5.3647,5.3002,5.2098,5.2418,5.3281,5.2694,5.2485,5.2485,0.0,0.0,0.0,0.0,0.0,0.0,0.0,0.0,0.0,0.0,2.6891,2.6581,0.0,0.0,0.0,0.0,0.0,0.0,0.0,0.0,0.0,2.6688,2.7365,2.8032,2.8732,2.9624,3.0407,3.1131,3.1671,3.2071,3.2311,3.2437,3.2613,3.2793,3.3077,3.3094,3.2879,3.3553,3.3498,3.3059,3.438,3.5012,3.5178,3.5591,0.0,0.0,3.7327,3.8245,3.9683,4.4569,4.837,5.1337,5.2976,5.3786,5.4562,5.6384,5.658,5.6374,5.71,5.6374,5.5217,5.4392,5.2046,4.9281,4.6425,4.466,0.0,4.0913,4.0517,4.0292,3.9377,4.2697,4.6429,4.9165,5.3831,5.8465,6.2496,6.3719,6.4386,0.0,6.4676,6.4354,6.403,6.3525,0.0,0.0,6.1771,6.0514,5.8123,5.8352,5.8402,5.8162,5.8704,5.8767,5.8198,5.8451,5.8451,5.8198,5.8198,5.8198,5.8135,5.7961,5.7551,5.6973,5.7167,0.0,5.4933,5.4788,5.4216,5.3369,5.2949,5.2902,5.2997,5.2664,5.2485,5.2433,0.0,0.0,0.0,0.0,0.0,0.0,0.0,2.6663,2.7255,2.8428,2.8286,2.794,2.7638,2.7759,2.7541,0.0,0.0,0.0,0.0,0.0,0.0,0.0,2.7081,2.7586,2.7961,2.8828,2.9497,2.9963,0.0,3.0855,3.091,3.1236,3.145,3.1537,3.202,3.2138,3.2046,3.3018,3.3189,3.2884,3.427,3.5007,0.0,0.0,0.0,0.0,0.0,3.8654,3.9516,4.2798,4.5837,4.8852,5.2268,5.4013,5.4929,5.6032,5.6578,5.687,5.7076,5.6263,5.513,5.4037,5.1345,4.8197,4.4981,0.0,0.0,3.8752,3.8429,3.8355,3.7664,4.0452,4.3671,4.6146,5.0341,5.5068,5.9932,6.1447,6.2728,6.4509,6.4612,6.4354,6.403,6.361,6.3084,6.2448,6.2264,6.1413,5.9616,5.9311,5.9026,5.8732,5.9017,5.9017,5.8704,5.8892,5.8892,5.8704,5.8704,5.8641,5.8451,5.8119,5.7729,5.7223,5.7223,5.6641,5.5537,5.5051,5.4656,5.4145,5.313,5.3137,5.3578,5.2971,5.2739,5.2686,0.0,0.0,0.0,0.0,0.0,0.0,0.0,2.7371,2.8301,2.9264,2.9533,2.947,2.8899,2.8643,2.8381,0.0,0.0,0.0,0.0,0.0,0.0,0.0,0.0,2.7342,2.7515,0.0,0.0,2.8888,2.9588,0.0,0.0,0.0,0.0,0.0,3.1326,3.1482,3.1367,3.2643,3.2901,0.0,0.0,3.5062,0.0,0.0,0.0,0.0,0.0,3.8758,3.906,4.0793,4.2399,4.451,4.9023,5.2072,5.4122,5.4652,5.5832,5.6904,5.6851,5.6014,5.488,5.3526,5.0531,4.7092,4.3667,4.1445,3.9361,3.6922,3.6679,3.6834,3.6597,3.839,4.0894,4.3999,4.7367,5.1608,5.7454,5.9475,6.1392,6.3999,6.4396,0.0,6.403,6.361,0.0,6.2515,6.2403,6.1897,6.1065,6.007,5.9527,5.943,5.9289,5.9205,5.9205,5.9205,5.9205,5.9205,5.9205,5.908,5.8829,5.8327,5.7945,5.7633,5.7292,5.6754,5.597,5.5445,5.5032,5.4583,5.3332,5.3361,5.3983,5.3217,5.2906,5.287,0.0,0.0,0.0,0.0,0.0,0.0,0.0,2.737,2.8183,2.9417,3.0438,3.0976,3.0921,3.0289,2.9675,0.0,0.0,0.0,0.0,0.0,0.0,0.0,0.0,0.0,0.0,0.0,0.0,2.9171,2.9559,0.0,0.0,0.0,0.0,0.0,0.0,0.0,3.1367,3.255,0.0,0.0,0.0,0.0,0.0,0.0,0.0,0.0,0.0,0.0,3.6389,3.9266,3.9794,3.9665,4.241,4.6737,5.1104,5.2534,5.4219,5.5793,5.6308,5.5536,5.4223,5.275,4.9467,4.5768,4.2634,4.0364,3.8463,3.6828,3.6709,3.7016,3.7331,3.7808,3.9733,4.4684,4.7192,5.0688,5.6967,5.9709,6.1739,6.3423,0.0,0.0,6.403,6.361,6.3244,6.2848,6.2342,6.1847,6.1368,6.0199,5.9723,5.9985,5.9514,5.9205,5.9205,5.9205,5.9205,5.9205,5.9205,5.9142,5.9142,5.9086,5.8871,5.8557,5.8557,5.7702,0.0,5.6279,5.5435,5.4118,5.3707,5.3369,5.3144,5.2757,5.2607,5.2607,0.0,0.0,0.0,0.0,0.0,0.0,2.6969,2.7541,2.8466,3.0588,3.0825,3.1165,3.2152,3.1768,3.1054,3.008,0.0,0.0,0.0,0.0,0.0,0.0,0.0,0.0,0.0,0.0,0.0,2.9929,3.0161,0.0,0.0,0.0,0.0,0.0,0.0,0.0,0.0,0.0,0.0,0.0,0.0,0.0,0.0,0.0,0.0,0.0,0.0,0.0,3.6648,3.7063,3.7555,3.8063,3.8398,4.1568,4.5836,4.9581,5.2517,5.4732,5.5396,5.5025,5.4196,5.2832,4.9102,4.5219,4.3089,3.9988,3.731,3.6244,3.5926,3.5937,3.6137,3.649,3.7844,4.1167,4.2653,4.5388,5.1161,5.3837,5.6647,6.0495,6.2026,6.3089,0.0,0.0,6.3244,6.2942,6.2717,6.2483,6.2351,6.1174,6.023,5.9598,5.9711,5.9598,5.9205,5.9205,5.9205,5.9205,5.9205,5.9205,5.9205,5.9205,5.9142,5.8955,5.8767,5.8168,0.0,5.6602,5.5817,5.4809,5.4358,5.3981,5.3652,5.3349,5.3044,5.2861,0.0,0.0,0.0,0.0,0.0,2.518,2.6997,2.757,2.8609,3.095,3.0998,3.1259,3.2535,3.2549,3.2021,3.0863,3.0145,0.0,0.0,0.0,0.0,0.0,0.0,0.0,0.0,0.0,3.0315,3.0783,3.0997,3.1098,0.0,0.0,0.0,0.0,0.0,0.0,0.0,0.0,0.0,0.0,0.0,0.0,0.0,0.0,0.0,0.0,0.0,0.0,0.0,0.0,0.0,3.7168,3.6155,3.8239,4.1892,4.6338,4.9982,5.2794,5.3864,5.3834,5.3345,5.257,4.8694,4.4773,4.3331,3.9761,3.6615,3.6075,3.5614,3.5398,3.5729,3.6036,3.7003,3.9166,4.0389,4.2802,4.7906,5.0818,5.4086,5.86,0.0,6.1911,6.3443,6.3606,6.3376,6.2914,6.2643,6.253,6.2661,6.1678,6.0694,5.9795,5.9823,5.9654,5.9205,5.9205,5.9205,5.9205,5.9205,5.9267,5.9329,5.9329,5.9392,5.9454,5.9142,0.0,0.0,5.706,5.6237,5.5372,5.4924,5.452,5.4221,5.3833,5.3592,5.3349,0.0,0.0,0.0,0.0,0.0,0.0,2.6638,2.7484,2.8528,3.0034,3.0886,3.15,3.1771,3.2345,3.2384,3.1658,3.2062,0.0,0.0,0.0,0.0,0.0,0.0,0.0,0.0,0.0,3.1282,3.1678,3.2033,3.2356,3.2647,3.2555,3.2497,3.2467,0.0,0.0,0.0,0.0,0.0,0.0,0.0,0.0,0.0,0.0,0.0,0.0,0.0,0.0,0.0,0.0,0.0,0.0,0.0,3.7367,4.0098,4.2984,4.6313,4.9535,5.1661,5.1796,5.1396,5.1661,4.8113,4.4237,4.3155,3.9654,3.6599,3.6505,3.6009,3.5846,3.6728,3.6913,3.7738,4.0094,4.2067,4.4767,4.9145,5.2857,5.5985,0.0,5.9932,6.12,6.2496,6.3443,6.3704,6.2942,6.2115,0.0,6.1987,6.1425,6.1088,6.1088,5.9879,5.9233,5.9205,5.9205,5.9205,5.9205,5.9205,5.9329,5.9668,5.9668,5.9887,6.0194,0.0,0.0,0.0,5.762,5.6648,5.5465,5.5144,5.4817,5.4548,5.4221,5.4074,5.4014,0.0,0.0,0.0,0.0,0.0,0.0,0.0,2.7254,2.7971,2.9449,3.0372,3.1089,3.1591,3.2274,3.255,3.2206,3.1963,0.0,0.0,0.0,0.0,0.0,0.0,0.0,0.0,0.0,3.2298,3.2576,3.2811,3.2958,3.2963,3.308,3.281,3.2288,3.2139,0.0,0.0,0.0,0.0,0.0,0.0,0.0,0.0,0.0,0.0,0.0,0.0,0.0,0.0,0.0,0.0,0.0,0.0,0.0,0.0,3.9939,4.3117,4.624,4.6735,4.7384,4.7631,4.6554,4.4106,4.1767,4.1256,3.889,3.6736,3.6551,3.6359,3.6335,3.6696,3.6868,3.8217,4.2105,4.3055,4.4932,4.9572,5.2295,0.0,5.8175,6.1131,6.3116,0.0,0.0,6.3114,6.266,6.3013,6.2693,6.1425,6.1649,6.1402,6.0441,6.0469,6.0202,5.9544,5.9544,5.9544,5.9516,5.9763,5.9825,5.973,5.973,5.9887,0.0,0.0,0.0,0.0,5.827,5.7409,5.638,5.5898,5.5659,5.546,5.4897,5.4709,5.4622,0.0,0.0,0.0,0.0,0.0,0.0,0.0,2.7138,2.7795,2.9136,2.9904,3.0603,3.1416,3.1968,3.2305,3.2309,3.2124,0.0,0.0,0.0,0.0,0.0,0.0,0.0,0.0,3.2373,3.2736,3.3684,3.3497,3.3656,3.4077,3.4119,3.3718,3.2983,3.2667,0.0,0.0,0.0,0.0,0.0,0.0,0.0,0.0,0.0,0.0,0.0,0.0,0.0,0.0,0.0,0.0,0.0,0.0,0.0,0.0,0.0,3.9705,4.2007,4.35,4.4319,4.4666,4.4214,4.2465,4.0824,4.0659,3.8735,3.7032,3.6932,3.6773,3.6758,3.691,3.6987,3.8198,4.1603,4.2539,4.4412,4.898,5.1712,5.4537,5.8118,6.1367,0.0,0.0,6.345,6.3558,6.3106,6.3508,6.3186,6.1868,6.1968,6.1605,6.0511,6.0681,6.0461,5.973,5.9853,5.9887,5.9887,6.0132,6.0194,6.0071,6.0071,6.0255,0.0,0.0,0.0,0.0,5.8851,5.813,5.7562,5.7046,5.6778,5.6584,5.5821,5.5492,5.526,0.0,0.0,0.0,0.0,0.0,0.0,0.0,2.7112,2.7744,2.884,2.9366,3.0017,3.1078,3.1408,3.1717,3.2146,0.0,0.0,0.0,0.0,0.0,0.0,0.0,0.0,0.0,3.2112,3.2705,3.4724,3.4048,3.4435,3.5768,3.5539,3.5079,3.4395,3.353,3.3103,0.0,0.0,0.0,0.0,0.0,0.0,0.0,0.0,0.0,0.0,0.0,0.0,0.0,0.0,0.0,0.0,0.0,0.0,0.0,0.0,0.0,0.0,0.0,4.2281,4.231,4.3689,4.2389,4.0815,4.0797,3.8957,0.0,3.7539,3.7327,3.7184,3.7546,3.7526,3.8058,3.9865,4.1511,4.4036,4.8201,5.1619,5.5057,5.8696,6.0957,0.0,6.1495,6.3578,6.4653,6.4009,6.3721,6.3348,6.2879,6.24,6.1799,6.1079,6.0541,6.0132,5.9792,6.0071,6.0255,6.0255,6.0255,6.0438,6.0681,6.0681,6.0892,0.0,0.0,0.0,0.0,5.9219,5.882,5.8693,5.8398,5.813,5.7743,5.6855,5.63,5.5885,0.0,0.0,0.0,0.0,0.0,0.0,0.0,0.0,0.0,0.0,2.8518,2.9285,2.9989,3.0848,3.1482,0.0,0.0,0.0,0.0,0.0,0.0,0.0,0.0,0.0,0.0,3.2486,3.3192,3.3716,3.4778,3.5601,3.623,3.6646,3.6045,3.4609,3.4565,3.4172,0.0,0.0,0.0,0.0,0.0,0.0,0.0,0.0,0.0,0.0,3.5944,3.6064,0.0,0.0,0.0,0.0,0.0,0.0,0.0,0.0,3.6467,3.5798,3.7806,0.0,3.8685,3.8522,3.8156,3.7878,0.0,3.7514,3.7229,3.7263,3.7506,3.8323,4.0313,3.975,4.0678,4.5772,4.7351,4.9021,5.1991,5.5942,5.9534,6.2195,6.3137,6.3872,6.4372,6.4333,6.4052,6.367,6.378,6.3226,6.1622,6.192,6.1607,6.0422,6.0768,6.0802,6.0438,6.056,6.056,6.056,6.0831,6.0892,6.0681,6.0681,6.0742,0.0,0.0,0.0,5.9491,5.9463,5.8911,5.8042,5.8249,5.8235,5.8119,5.7652,5.7126,5.6586,0.0,0.0,0.0,0.0,0.0,0.0,0.0,0.0,0.0,0.0,0.0,2.9044,2.9646,3.0412,0.0,0.0,0.0,0.0,0.0,0.0,0.0,0.0,0.0,0.0,3.1969,3.2869,3.3843,3.4771,3.5576,3.6537,3.7685,3.7879,3.7173,3.573,3.506,3.422,0.0,0.0,0.0,0.0,0.0,0.0,0.0,0.0,0.0,0.0,3.5578,3.585,0.0,3.6723,3.7446,3.8232,0.0,0.0,0.0,0.0,3.606,3.5252,3.6561,3.8069,3.9353,3.9547,3.9896,4.007,3.9719,3.8848,3.7952,3.7441,3.7953,3.9122,4.1128,4.113,4.241,4.7282,4.8671,5.049,5.4367,5.7727,6.0501,6.2432,6.3283,6.3927,0.0,6.413,6.3786,6.3694,6.3497,6.2856,6.1599,6.191,6.1681,6.071,6.1013,6.1073,6.0681,6.0892,6.0952,6.0952,6.1133,6.1073,6.0952,6.0952,6.0952,0.0,0.0,0.0,5.9893,5.9666,5.9254,5.8895,5.8791,5.8835,5.8889,5.8451,5.7785,5.6992,0.0,0.0,0.0,0.0,0.0,0.0,0.0,0.0,0.0,0.0,0.0,0.0,0.0,0.0,0.0,0.0,0.0,0.0,0.0,0.0,0.0,0.0,0.0,3.2815,3.2853,3.3411,3.4492,3.6212,3.6328,3.734,3.9065,3.903,3.8234,3.6816,3.4992,3.3705,0.0,0.0,0.0,0.0,0.0,0.0,0.0,0.0,0.0,0.0,0.0,0.0,0.0,3.6831,3.7717,3.8727,3.7873,0.0,0.0,0.0,0.0,0.0,3.698,3.9744,4.2246,4.2514,4.3355,4.3842,4.2773,4.0863,3.9062,3.8084,3.8806,4.012,4.1861,4.2665,4.4179,4.7607,4.8914,5.1208,5.6281,5.8376,5.9947,6.1643,6.266,0.0,6.3687,6.3743,6.3809,6.3975,6.3179,6.2542,6.2122,6.2006,6.1716,6.1222,6.1193,6.1073,6.0742,6.1073,6.1193,6.1193,6.1193,6.1193,6.1193,6.1193,6.1193,6.1133,0.0,0.0,6.0448,5.9661,5.9626,5.9994,5.9686,5.9615,5.9645,5.9196,5.8301,5.7234,0.0,0.0,0.0,0.0,0.0,0.0,0.0,0.0,0.0,0.0,0.0,0.0,0.0,0.0,0.0,0.0,0.0,0.0,0.0,0.0,0.0,0.0,3.2884,3.289,3.305,3.4279,3.5089,3.5382,3.707,3.8131,3.8656,3.9436,3.8616,3.6373,3.378,3.2767,3.2996,0.0,0.0,0.0,0.0,0.0,0.0,0.0,0.0,0.0,0.0,0.0,0.0,3.5738,3.6504,3.7478,3.7188,0.0,0.0,0.0,0.0,0.0,3.9068,4.2981,4.5171,4.1204,4.2423,4.3874,4.1092,4.0444,4.0309,3.9809,4.0613,4.2471,4.5976,4.6324,4.7561,5.1918,5.3453,5.5391,5.909,0.0,6.0443,6.2587,0.0,6.3746,6.4334,6.4571,6.4555,6.4004,6.3395,6.2728,6.2122,6.16,6.1309,6.1193,6.1193,6.1193,6.1133,6.1193,6.1193,6.1193,6.1193,6.1193,6.1193,6.1193,6.1073,6.0774,0.0,5.9994,5.9514,5.964,5.952,5.9511,6.0183,6.0169,5.9702,5.9896,5.8912,5.715,0.0,0.0,0.0,0.0,0.0,0.0,0.0,0.0,0.0,0.0,0.0,0.0,0.0,0.0,0.0,0.0,0.0,0.0,0.0,0.0,0.0,3.3505,3.4015,3.4093,3.3765,3.5212,3.618,3.6512,3.7743,3.8741,3.9507,3.9084,3.7756,3.5642,3.4372,3.3704,3.3514,3.3792,0.0,0.0,0.0,0.0,0.0,0.0,0.0,0.0,0.0,0.0,0.0,0.0,3.6384,3.727,3.6647,0.0,0.0,0.0,0.0,0.0,3.7966,4.1969,4.5126,4.3401,4.6205,4.885,4.6526,4.5198,4.4165,4.3111,4.3823,4.5391,4.7911,4.8752,5.0281,5.3989,5.6174,5.7826,5.904,5.9626,6.056,0.0,0.0,6.3635,6.3759,6.4009,6.4002,6.3298,6.2535,6.198,6.1841,6.1459,6.1373,6.1642,6.1373,6.1253,6.1404,6.1404,6.1344,6.1193,6.1193,6.1193,6.1193,6.1193,6.1133,6.0984,0.0,6.049,6.004,5.9815,5.9752,5.9826,5.989,5.994,5.992,5.9578,5.8685,5.7419,0.0,0.0,0.0,0.0,0.0,0.0,0.0,0.0,0.0,0.0,0.0,0.0,0.0,0.0,0.0,0.0,0.0,0.0,0.0,0.0,3.3504,3.3827,3.5062,3.546,3.4813,3.6275,3.723,3.7665,3.8447,3.9229,4.0062,3.8528,3.6918,3.5304,3.5006,3.4489,3.3946,3.4403,3.463,0.0,0.0,0.0,0.0,0.0,0.0,0.0,0.0,0.0,0.0,0.0,0.0,0.0,0.0,0.0,0.0,3.5674,3.5457,3.5911,3.7501,4.0904,4.4344,4.576,4.9298,5.2252,5.1673,4.9613,4.7709,4.707,4.7627,4.8611,4.9743,5.1463,5.3311,5.5217,5.7885,5.951,5.8811,5.9801,6.0821,6.1733,6.2818,6.3407,6.3117,6.3436,6.3432,6.2787,6.2049,6.1698,6.1732,6.1523,6.1583,6.2116,6.1642,6.1523,6.1732,6.1732,6.1554,6.1193,6.1253,6.1253,6.1193,6.1193,6.1193,6.1193,6.1019,6.0928,6.0774,6.0139,6.0105,6.0381,5.9922,5.9947,6.0169,5.9265,5.8544,5.7885,0.0,0.0,0.0,0.0,0.0,0.0,0.0,0.0,0.0,0.0,0.0,0.0,0.0,0.0,0.0,0.0,0.0,0.0,0.0,0.0,3.3407,3.4131,3.5737,3.6515,3.625,3.7349,3.7878,3.7906,3.9114,3.955,3.9167,3.8054,3.7001,3.5978,3.4794,3.4124,3.3908,3.3946,3.4061,3.4289,0.0,0.0,0.0,0.0,0.0,0.0,0.0,0.0,0.0,0.0,0.0,0.0,0.0,0.0,3.6224,3.6005,3.5846,3.6446,4.003,4.201,4.3786,4.6646,4.8312,4.9846,5.2148,5.0679,4.9356,5.1302,5.1798,5.2067,5.2785,5.553,5.7306,5.6152,5.8813,6.085,6.0174,0.0,6.1733,6.241,6.2883,6.3117,6.3118,6.3618,6.3706,6.3117,6.3029,6.2705,6.2087,6.2057,6.2057,6.2116,6.2057,6.2057,6.2057,6.2057,6.1761,6.1193,6.1434,6.1464,6.1193,6.1193,6.1193,6.1164,6.0526,6.0613,6.1075,6.0467,6.0524,6.1133,6.1075,6.0894,6.0534,5.96,5.907,5.8568,0.0,0.0,0.0,0.0,0.0,0.0,0.0,0.0,0.0,0.0,0.0,0.0,0.0,0.0,0.0,0.0,0.0,0.0,0.0,0.0,3.2803,3.3788,3.4967,3.5531,3.5466,3.7366,3.849,3.8698,3.9284,3.913,3.8321,3.7523,3.6579,3.5656,3.5292,3.5089,3.5019,3.49,3.5058,3.5347,3.5079,0.0,0.0,0.0,0.0,0.0,0.0,0.0,0.0,0.0,3.4568,3.5368,3.4574,3.5187,3.6011,3.4972,3.515,3.6205,3.8588,4.1617,4.4618,4.6783,4.882,5.0879,5.2921,5.3159,5.3385,5.5262,5.5313,5.4934,5.4552,5.5859,5.6948,5.6814,5.8784,6.035,6.0501,6.1116,6.1791,6.2234,6.2943,6.3269,6.2854,6.3535,6.3654,6.2854,6.2824,6.2706,6.2439,6.2234,6.2292,6.2701,6.2292,6.2175,6.2439,6.2439,6.2175,6.1761,6.185,6.1732,6.1464,6.1464,6.1344,6.1193,6.0932,6.0961,6.1164,6.0932,6.0961,6.1193,6.1193,6.1133,6.0923,6.0362,5.9715,5.8956,0.0,0.0,0.0,0.0,0.0,0.0,0.0,0.0,0.0,0.0,0.0,0.0,0.0,0.0,0.0,0.0,0.0,0.0,3.0384,3.1066,3.1887,3.2917,3.4065,3.4615,3.4543,3.69,3.8138,3.8231,3.8672,3.8546,3.7814,3.7167,3.6525,3.5911,3.575,3.579,3.5898,3.5575,3.5616,3.5951,3.5581,3.5267,0.0,0.0,0.0,0.0,0.0,0.0,0.0,0.0,3.3497,3.4048,3.3439,3.4299,3.5401,3.4547,3.5424,3.6926,3.8243,4.1556,4.5071,4.6728,4.9313,5.1983,5.42,5.5064,5.6025,5.8164,5.7773,5.6782,5.6065,5.6413,5.6953,0.0,5.9132,6.0498,6.0823,6.141,6.191,6.2351,6.2942,6.3178,6.2761,6.3351,6.3469,6.2819,6.2731,6.2731,6.2731,6.2526,6.2643,6.3079,6.2643,6.2526,6.2731,6.2731,6.2673,6.241,6.241,6.2145,6.1732,6.1673,6.1494,6.1284,6.1133,6.1073,6.1193,6.1102,6.1073,6.1193,6.1193,6.1193,6.1193,6.0952,6.0362,5.9632,0.0,0.0,0.0,0.0,0.0,0.0,0.0,0.0,0.0,0.0,0.0,0.0,0.0,0.0,0.0,0.0,0.0,0.0,2.9141,2.9927,3.0722,3.1579,3.326,3.4045,3.3688,3.5816,3.6674,3.6138,3.7304,3.7786,3.7585,3.7111,3.693,3.694,3.6071,3.5978,3.6365,3.5696,3.5507,3.571,3.5978,3.594,0.0,0.0,0.0,0.0,0.0,0.0,0.0,0.0,3.1652,3.1454,3.2911,0.0,3.4361,3.5003,3.6854,3.8857,3.9662,4.2108,4.4837,4.6685,4.9534,5.2772,5.5991,5.6176,5.6674,5.9971,5.905,5.7675,5.7355,5.7586,5.7819,5.7888,5.9975,6.1497,6.1232,6.1703,6.2351,6.3021,6.2789,6.2731,6.3079,6.3079,6.3079,6.3079,6.3079,6.3079,6.3079,6.3079,6.3137,6.3137,6.3137,6.3137,6.3079,6.3079,6.3079,6.3079,6.3079,6.2789,6.2116,6.1791,6.1613,6.1554,6.0984,6.0892,6.1193,6.0828,6.0889,6.1193,6.1193,6.1193,6.1193,6.1193,6.1013,6.0595,0.0,0.0,0.0,0.0,0.0,0.0,0.0,0.0,0.0,0.0,0.0,0.0,0.0,0.0,0.0,0.0,0.0,0.0,2.9353,2.9005,2.9438,3.0884,3.1681,3.2082,3.2089,3.3111,3.4944,3.7579,3.751,3.7482,3.7411,3.6939,3.6702,3.6575,3.6298,3.6178,3.6166,3.5616,3.5616,3.5978,3.5858,3.5794,0.0,0.0,0.0,0.0,0.0,0.0,0.0,0.0,0.0,0.0,3.1821,0.0,3.5462,3.4728,3.6489,3.8732,3.8913,4.2286,4.5968,4.7052,5.135,5.5634,5.6608,5.7517,5.866,6.058,5.9966,5.8916,5.837,5.8,5.806,5.8784,5.9681,6.0702,6.1674,6.1998,6.2351,6.3021,6.3021,6.3021,6.3079,6.3079,6.3079,6.3079,6.3079,6.3194,6.3367,6.3367,6.3481,6.3709,6.3709,6.3652,6.3367,6.3367,6.3309,6.3079,6.3528,6.3265,6.2439,6.2351,6.2175,6.191,6.1761,6.1642,6.1434,6.1193,6.1102,6.1193,6.1193,6.1193,6.1193,6.1193,6.0603,5.9632,0.0,0.0,0.0,0.0,0.0,0.0,0.0,0.0,0.0,0.0,0.0,0.0,0.0,0.0,0.0,0.0,0.0,0.0,0.0,2.8534,2.9006,3.0197,3.0855,3.1493,3.2082,3.2329,3.3804,3.656,3.6319,3.6334,3.666,3.6674,3.6744,3.685,3.6772,3.6554,3.6175,3.5635,3.5487,3.5581,3.5476,3.5488,3.5451,0.0,0.0,0.0,0.0,0.0,0.0,0.0,0.0,0.0,3.0728,3.233,3.4334,3.4395,3.6715,3.9469,4.0748,4.4436,4.8223,4.964,5.3503,5.7202,5.8375,5.9404,6.043,6.1494,6.0847,6.0028,5.9858,5.916,0.0,5.9916,6.0292,6.0819,6.1733,6.2057,6.2292,6.2847,6.2905,6.2963,6.3079,6.3079,6.3137,6.3252,6.3252,6.3424,6.3709,6.3709,6.3823,6.3993,6.3993,6.3823,6.3538,6.3779,6.3757,6.3438,6.3827,6.368,6.3147,6.3059,6.2676,6.2116,6.1969,6.1791,6.1582,6.1051,6.0992,6.1315,6.0963,6.0961,6.1193,6.1193,6.0632,5.9778,0.0,0.0,0.0,0.0,0.0,0.0,0.0,0.0,0.0,0.0,0.0,0.0,0.0,0.0,0.0,0.0,0.0,0.0,0.0,0.0,2.9088,2.9497,3.0663,3.192,3.3163,3.2957,3.3239,3.4082,3.4256,3.4812,3.5669,3.6282,3.6872,3.7471,3.7289,3.691,3.6269,3.5592,3.5107,3.478,3.4929,3.5041,3.5031,3.4782,0.0,0.0,0.0,0.0,0.0,0.0,0.0,0.0,2.9983,3.0728,3.2049,3.3997,3.7067,4.0537,4.3612,4.7151,5.0547,5.3055,5.5499,5.7934,6.0548,6.1315,6.1725,6.2349,6.1577,6.0931,6.1438,6.0589,6.0151,6.105,6.1404,6.1554,6.1613,6.191,6.2234,6.2556,6.2615,6.2789,6.3079,6.3137,6.3252,6.3481,6.3538,6.3709,6.4049,6.4049,6.4049,6.4106,6.4049,6.388,6.3538,6.4141,6.4268,6.4006,6.4006,6.4006,6.3948,6.3683,6.3061,6.2175,6.1791,6.1641,6.1579,6.0702,6.085,6.1496,6.0674,6.0642,6.1193,6.1193,6.0894,6.0448,0.0,0.0,0.0,0.0,0.0,0.0,0.0,0.0,0.0,0.0,0.0,0.0,0.0,0.0,0.0,0.0,0.0,0.0,0.0,0.0,2.8553,2.9693,3.1168,3.2357,3.3106,3.2506,3.2779,3.394,3.4084,3.4522,3.5249,3.5843,3.6322,3.6654,3.6772,3.637,3.5554,3.4959,3.4566,3.4327,3.4251,3.4517,3.4855,3.398,3.3854,0.0,0.0,0.0,0.0,0.0,0.0,0.0,3.1397,3.2109,3.2972,3.3604,3.6148,3.9056,4.0436,4.3997,4.8067,5.1291,5.527,5.8791,6.0111,6.0847,6.1378,6.1733,6.1615,6.141,6.1315,6.1081,6.0934,6.1164,6.1253,6.1344,6.1554,6.191,6.2234,6.2556,6.2847,6.3021,6.3079,6.3309,6.3424,6.3481,6.3766,6.4019,6.43,6.427,6.4412,6.4721,6.4468,6.4188,6.388,6.3773,6.3817,0.0,6.4006,6.3889,6.3683,6.3353,6.3083,6.2817,6.2234,6.1998,6.1968,6.1467,6.1318,6.1284,6.1289,6.1287,6.1193,6.1193,6.0514,5.9543,0.0,0.0,0.0,0.0,0.0,0.0,0.0,0.0,0.0,0.0,0.0,0.0,0.0,0.0,0.0,0.0,0.0,0.0,0.0,0.0,2.8518,2.9893,3.1508,3.2533,3.2794,3.2326,3.268,3.3897,3.3111,3.3751,3.5798,3.6801,3.7499,3.7869,3.7675,3.6947,3.5829,3.4681,3.3892,3.3338,3.3375,3.3367,3.339,3.2891,3.2975,3.3248,3.2128,0.0,0.0,0.0,0.0,0.0,0.0,0.0,3.2572,3.3378,3.5149,3.7493,4.0081,4.3378,4.7136,5.1635,5.5307,5.8057,5.8868,5.9712,6.0326,6.0472,6.1204,6.1732,6.1464,6.1404,6.1344,6.1193,6.1193,6.1253,6.1404,6.1673,6.191,6.2116,6.2526,6.2847,6.2847,6.3252,6.3595,6.3709,6.4019,6.43,6.4635,6.4524,6.4468,6.4635,6.4524,6.4188,6.3766,6.4371,6.4443,6.4006,6.4336,6.4127,6.3354,6.2996,6.2963,6.3079,6.2526,6.241,6.2497,6.1527,6.1438,6.1821,6.135,6.1231,6.1404,6.1404,6.0692,5.9712,0.0,0.0,0.0,0.0,0.0,0.0,0.0,0.0,0.0,0.0,0.0,0.0,0.0,0.0,0.0,0.0,0.0,0.0,0.0,2.7946,2.8892,3.0125,3.1737,3.2532,3.2407,3.2198,3.2589,3.3658,3.2079,3.3247,3.7036,3.779,3.8542,3.9236,3.855,3.7445,3.5963,3.4378,3.3106,3.22,3.2309,3.208,3.1721,3.1785,3.2021,3.2208,3.1882,3.2472,3.3276,3.25,0.0,0.0,0.0,0.0,3.1478,3.2742,3.3868,3.5559,3.9574,4.3099,4.6897,5.2162,5.4924,5.6535,5.7312,5.8176,5.8929,5.9103,6.0531,6.1704,6.1378,6.1466,6.1434,6.1253,6.1193,6.1193,6.1193,6.1404,6.1554,6.1554,6.2057,6.2439,6.2498,6.3049,6.3565,6.388,6.4097,6.4284,6.4568,6.4284,6.4173,6.4173,6.4209,6.4019,6.3508,6.4767,6.4953,6.4006,6.4575,6.4216,6.3079,6.2612,6.2553,6.2842,6.2672,6.2613,6.2581,6.1497,6.1586,6.2321,6.1351,6.1292,6.1673,6.1613,6.1075,6.023,0.0,0.0,0.0,0.0,0.0,0.0,0.0,0.0,0.0,0.0,2.808,2.7904,2.74,2.7384,0.0,0.0,0.0,0.0,2.7315,0.0,0.0,3.0497,3.1858,3.2407,3.1988,3.1776,3.1988,3.258,3.1947,3.4198,3.9149,3.6914,3.6675,3.8209,3.7609,3.64,3.4673,3.3472,3.2319,3.1331,3.1086,3.1108,3.1246,3.0922,3.12,3.1594,3.0678,3.1284,3.2489,3.211,3.2272,0.0,0.0,0.0,3.022,3.0717,3.1513,3.273,3.4782,4.0391,4.6556,5.0332,5.2673,5.4529,5.5929,5.6735,5.7483,5.8262,5.951,6.0441,6.0382,6.0846,6.1253,6.1193,6.1193,6.1193,6.1193,6.1253,6.1253,6.1253,6.1523,6.185,6.2116,6.2672,6.3222,6.3538,6.3334,6.3224,6.3224,6.3224,6.3168,6.3168,6.3464,6.3565,6.3538,6.3459,6.3674,6.4006,6.4096,6.3767,6.3049,6.2164,6.1723,6.1811,6.2347,6.1997,6.1087,6.1997,6.2086,6.1791,6.2204,6.2233,6.1969,6.1732,6.1195,6.056,0.0,0.0,0.0,0.0,0.0,0.0,0.0,0.0,0.0,0.0,0.0,2.8201,2.8213,2.753,0.0,0.0,0.0,0.0,2.7121,2.8221,0.0,0.0,3.0813,3.1502,3.1639,3.1034,3.1245,3.2419,3.1069,3.3267,3.8684,3.7148,3.8491,4.1968,4.0256,3.8509,3.662,3.4132,3.2327,3.1189,3.1176,3.1954,3.2956,3.106,3.1812,3.3555,3.1269,3.1209,3.22,3.2,3.2046,3.2164,3.2119,0.0,0.0,0.0,3.0543,3.1455,3.5336,3.9576,4.3948,4.8257,5.0657,5.2339,5.3861,5.4797,5.5594,5.6536,5.7513,5.8436,5.9509,6.0206,6.0582,6.0374,6.0812,6.1133,6.0952,6.0952,6.0952,6.0952,6.1044,6.1224,6.1523,6.2263,6.2846,6.3222,6.3075,6.2991,6.2991,6.2794,6.2738,6.2738,6.3233,6.3424,6.3309,6.367,6.3912,6.4006,6.3647,6.3348,6.3079,6.2635,6.2249,6.1834,6.1603,6.1488,6.1519,6.1874,6.22,6.2468,6.2556,6.2498,6.2351,6.2234,6.1408,6.0432,0.0,0.0,0.0,0.0,0.0,0.0,0.0,0.0,0.0,0.0,0.0,0.0,2.8664,0.0,0.0,0.0,0.0,0.0,2.6714,0.0,0.0,0.0,0.0,3.0583,3.0916,3.0285,3.0433,3.1547,3.02,3.2415,3.7945,3.7922,4.0616,4.5269,4.2626,4.012,3.7691,3.5052,3.3244,3.2127,3.2485,3.3598,3.4856,3.3405,3.4432,3.6288,3.3198,3.2588,3.3108,3.2064,3.1772,3.1782,3.1734,3.0876,0.0,0.0,0.0,3.0323,3.4917,3.759,4.0265,4.4869,4.7549,4.9479,5.1367,5.2401,5.3383,0.0,5.5394,5.6251,5.783,5.8986,5.9707,5.9614,6.0254,6.069,6.0592,6.0499,6.0438,6.0438,6.0438,6.0502,6.0692,6.1585,6.2173,6.2138,6.2318,6.2328,6.2272,6.216,6.2108,6.2258,6.2949,6.3252,6.3079,6.379,6.4088,6.4,6.3404,6.3137,6.3194,6.2957,6.245,6.1822,6.1237,6.1151,6.1386,6.1657,6.2132,6.2724,6.273,6.2731,6.2731,6.2615,6.1645,6.0323,0.0,0.0,0.0,0.0,0.0,0.0,0.0,0.0,0.0,0.0,0.0,0.0,0.0,0.0,0.0,0.0,0.0,0.0,0.0,0.0,0.0,0.0,0.0,0.0,2.9724,2.9659,2.9479,2.9165,2.9582,3.2488,3.7726,3.9038,4.19,4.5718,4.3108,3.9671,3.5739,3.5744,3.5283,3.4613,3.5412,3.5827,3.6248,3.9121,4.0032,3.9398,3.6769,3.6109,3.5929,0.0,3.1474,3.1707,3.1358,3.0085,2.8924,0.0,0.0,0.0,3.0637,3.2981,3.5683,3.9333,4.2601,4.5585,4.828,4.9599,5.0766,5.2873,5.3628,5.4075,5.4734,5.6824,5.8568,5.9197,5.934,5.9569,6.0169,5.9948,5.973,5.973,5.973,5.9659,5.9308,6.0487,6.0849,5.9945,6.04,6.0627,6.0343,6.0571,6.1008,6.1632,6.2316,6.2789,6.3079,6.3166,6.3454,6.3967,6.3367,6.3252,6.3451,6.2562,6.1819,6.1194,6.1792,6.1005,5.946,6.1357,6.1921,6.1781,6.2694,6.3079,6.3021,6.2731,6.1791,6.0648,0.0,0.0,0.0,0.0,0.0,0.0,0.0,0.0,0.0,0.0,0.0,0.0,0.0,2.7639,2.698,2.6233,2.5906,0.0,0.0,0.0,0.0,0.0,0.0,0.0,0.0,2.9343,2.9251,2.8922,2.8757,3.0717,3.4698,3.5741,3.7355,3.9451,4.1456,4.1411,3.9709,3.7079,3.6063,3.6284,3.6825,3.8384,4.0355,4.017,4.1458,4.2936,3.9753,0.0,0.0,0.0,0.0,3.2937,3.1803,3.0227,2.8782,2.8574,2.8749,2.946,3.1529,3.2883,3.4571,3.8209,4.0835,4.3036,4.4916,4.7026,4.8913,5.0128,5.1036,5.1785,5.2183,5.4601,5.6622,5.7103,5.7707,5.8251,5.8579,5.8912,5.8965,5.854,5.8697,5.8697,5.832,5.8942,5.9388,5.9452,5.9827,6.0056,6.017,6.0698,6.1138,6.1575,6.2258,6.2731,6.3079,6.3079,6.3194,6.3424,6.3194,6.3137,6.3222,6.2618,6.2111,6.1702,6.1241,6.0591,5.984,6.054,6.1257,6.195,6.2304,6.272,6.3079,6.2963,6.2141,6.0911,0.0,0.0,0.0,0.0,0.0,0.0,0.0,0.0,0.0,2.8552,0.0,0.0,0.0,0.0,2.7596,2.6726,2.6194,2.608,2.651,0.0,0.0,0.0,0.0,0.0,2.9043,2.9292,2.9267,2.8934,2.8819,3.0075,3.2621,3.3604,3.4773,3.6226,3.8878,4.0339,4.0588,3.8597,3.7858,3.8191,3.9505,4.1361,4.3317,4.3572,4.4919,4.633,4.3601,0.0,0.0,0.0,0.0,3.479,3.2825,3.0834,2.9038,2.8088,2.8642,2.9833,3.0996,3.198,3.3383,3.6618,3.8238,3.9694,4.2172,4.3945,4.5496,4.6885,4.8153,4.9188,4.9693,5.1765,5.3697,5.4739,5.5786,5.6665,5.7108,5.7757,5.801,5.7708,5.8034,5.803,5.7426,5.8178,5.8651,5.8521,5.9365,0.0,6.0033,6.0618,6.1173,6.1758,6.2319,6.2789,6.3252,6.3021,6.3021,6.3222,6.3021,6.2963,6.3049,6.2886,6.2585,6.2061,6.1468,6.0751,6.0116,6.0326,6.0954,6.1822,6.2241,6.269,6.3079,6.3079,6.2342,6.1229,0.0,0.0,0.0,0.0,0.0,0.0,0.0,0.0,2.9324,2.9157,0.0,0.0,0.0,0.0,0.0,2.7392,2.6955,2.6526,2.6101,2.6862,0.0,0.0,0.0,0.0,2.8881,2.9445,2.9451,2.9001,2.9777,3.0675,3.178,3.3051,3.4768,3.671,3.5707,3.6085,3.7673,4.0026,4.0668,4.0366,4.3479,4.4631,4.4933,4.9619,5.0689,4.9515,4.8347,4.6918,0.0,4.137,0.0,0.0,3.4325,3.1771,2.9601,2.8288,2.8837,2.9692,0.0,0.0,0.0,3.4225,3.4647,3.5657,4.01,0.0,4.0415,4.3255,4.4966,4.6165,4.7077,4.8186,4.9719,5.2204,5.3613,5.4813,5.575,5.6391,5.6931,5.7234,5.7856,5.7744,5.6507,5.8297,5.8791,5.7038,5.8923,6.0,5.9702,6.0353,6.1116,6.2028,6.2439,6.2847,6.3451,6.2905,6.2875,6.3478,6.2875,6.2701,6.3019,6.3306,6.2976,6.2091,6.2341,6.1533,6.0146,6.0835,6.1104,6.1253,6.254,6.3049,6.3079,6.3079,6.2458,6.1516,0.0,0.0,0.0,0.0,0.0,2.9435,2.9054,2.9083,2.925,0.0,0.0,0.0,3.0205,2.9738,2.9247,2.8884,2.7931,2.7401,2.7451,2.6995,2.6969,2.7462,2.855,2.9033,2.8675,2.9612,2.9699,2.9001,2.8912,2.9304,3.0124,3.0368,3.1578,3.3534,3.3777,3.4559,3.5675,3.6346,3.8735,4.2011,4.1955,4.4183,4.7742,4.8673,4.9682,0.0,0.0,4.8738,4.7315,0.0,4.2403,3.9407,0.0,3.2455,3.1413,3.0406,3.0934,3.1747,3.1008,0.0,0.0,0.0,0.0,0.0,0.0,0.0,3.7984,3.995,4.1037,4.2061,4.3637,4.472,4.5895,4.7352,4.9693,5.1708,5.2874,5.3927,5.471,5.5004,5.5954,5.6409,5.5833,5.6108,5.6507,0.0,5.7693,5.8617,5.9673,6.0732,6.1497,6.1732,6.2057,6.2292,6.2468,6.2292,6.241,6.2817,6.241,6.241,6.2672,6.2005,6.1736,6.1687,6.0535,6.0022,6.0146,6.0835,6.1104,6.1194,6.2032,6.266,6.3079,6.3079,6.2458,6.1428,0.0,0.0,0.0,3.0468,3.0331,3.0147,3.0217,3.0306,3.0416,0.0,0.0,0.0,3.1317,3.1344,3.1158,3.0491,2.9259,2.8555,2.8632,2.775,2.7527,2.8096,2.8827,2.9192,2.9098,2.9829,2.9952,2.9519,2.8945,2.888,2.9193,2.8855,2.9527,3.1087,3.1382,3.2522,3.4231,3.3773,3.6596,4.1407,4.3044,4.5366,4.7977,4.9217,5.0123,0.0,0.0,0.0,4.8959,4.7767,4.4583,0.0,0.0,0.0,3.3412,3.2259,3.2829,3.367,3.2827,3.3007,3.3507,0.0,0.0,0.0,3.5072,3.5218,3.5449,0.0,3.8118,3.9064,4.034,4.1576,4.2671,4.357,4.5525,4.7891,5.0435,5.1779,5.2779,5.3297,5.4441,5.5172,5.5159,5.5287,5.5874,5.7027,5.7274,5.8086,5.9673,6.0435,6.1112,6.1584,6.1791,6.1969,6.2116,6.1969,6.1851,6.1791,6.1616,6.1468,6.1407,6.0924,6.0776,6.0958,6.0001,5.9759,6.0231,6.0999,6.1231,6.1194,6.2151,6.275,6.3079,6.3079,6.2545,6.1717,0.0,0.0,3.0148,3.0881,3.1019,3.1203,3.1754,3.2014,3.2227,0.0,3.2674,3.3049,3.3386,3.3903,3.366,3.2374,3.0876,2.9943,2.9735,2.8876,2.8564,2.8958,2.9219,2.9476,2.9723,3.0008,3.0125,3.0125,2.9395,2.8966,2.8791,2.8273,2.8494,2.9396,2.9015,3.0445,3.3074,3.2499,3.4876,3.9533,4.4839,4.6801,4.7021,5.0347,5.1062,5.0332,5.1313,5.1043,5.0117,4.9631,4.5981,0.0,0.0,0.0,0.0,3.4244,3.4789,3.5687,3.4726,3.4624,0.0,0.0,0.0,0.0,3.5494,3.4304,3.3201,0.0,3.5629,3.6434,3.7242,3.8566,3.9757,4.0406,4.143,4.3671,4.8055,4.9711,5.0812,5.1766,5.2991,5.3886,5.4257,5.5088,5.6005,5.6945,5.7206,5.8026,5.9523,5.97,6.0258,6.1465,6.1494,6.1673,6.1998,6.1614,6.1174,6.0706,6.056,6.0267,5.9682,5.9911,6.0025,6.0025,5.9936,5.9993,6.0168,6.0988,6.1243,6.1287,6.26,6.3079,6.3079,6.2989,6.254,6.1915,0.0,3.0057,3.0148,3.0881,3.1019,3.1224,3.1922,3.2448,3.2943,3.3554,3.4741,3.587,3.6732,3.5818,3.5085,3.5032,3.2937,3.144,3.1011,2.9896,2.9088,2.8766,2.9003,2.919,2.9236,2.9512,2.9623,2.9623,2.8901,2.8633,2.8791,2.8273,2.8317,2.8925,2.9216,3.0256,3.1908,3.4107,3.645,3.8948,4.0823,4.4266,4.8284,4.9106,5.0052,5.1014,5.0952,5.0787,5.0331,4.8755,4.6987,4.5053,0.0,0.0,0.0,3.8087,3.8016,3.8491,3.8015,3.7941,0.0,0.0,0.0,0.0,3.3801,3.3244,3.3241,0.0,3.2512,3.2581,3.5015,3.5351,3.5744,3.7241,3.851,4.0715,4.4785,4.6303,4.7595,4.8927,5.0602,5.1821,5.2376,5.2809,5.3516,5.4649,5.6159,5.7482,5.8527,5.913,5.9839,6.0834,6.0863,6.1044,6.1373,6.0761,6.0559,6.0706,5.9947,5.9626,5.9682,5.9213,5.8978,5.8949,5.8508,5.8679,5.9404,5.9381,6.0198,6.16,6.2692,6.3079,6.3019,6.248,6.1682,6.0889,3.0396,3.0306,3.0468,3.1249,3.1387,3.1844,3.3257,3.343,3.4042,3.5657,3.7442,3.8239,3.7417,3.7031,3.6556,3.577,3.3754,3.2358,3.187,3.0456,2.9556,2.9444,2.9105,2.9038,2.9286,2.9305,2.9347,2.9485,2.8919,2.8474,2.8255,2.8073,2.8826,3.0272,2.9885,3.139,3.4261,3.4491,3.606,3.8592,4.1838,4.5129,4.8193,4.9155,5.0056,5.0675,5.027,5.0413,5.0508,4.8437,4.7361,0.0,4.4113,4.312,4.2525,0.0,4.0674,4.0993,4.0272,0.0,0.0,3.925,0.0,0.0,0.0,3.4365,3.3858,3.4335,3.2916,3.2199,3.4279,3.4157,3.3966,3.4794,3.6155,3.7761,3.965,4.2395,4.4675,4.6005,4.7455,4.887,5.0189,5.0738,5.1692,5.3499,5.4819,5.5955,5.7113,5.7443,5.8115,5.9041,5.907,5.9191,5.9551,5.9236,5.9156,5.9248,5.8755,5.8552,5.849,5.8169,5.8023,5.7994,5.7674,5.8049,5.8775,5.8775,5.9617,6.1017,6.1957,6.2246,6.2091,6.2091,6.1294,6.0123,3.0438,3.0508,3.0834,3.1503,3.1756,3.2397,3.4234,3.4211,3.4992,3.7667,3.9648,4.0114,3.8171,3.8573,3.8452,3.7147,3.5072,3.3682,3.339,3.1506,3.0489,3.0759,2.9661,2.9372,3.0004,2.9453,2.9274,2.9439,2.8802,2.8227,2.7613,2.7764,2.9066,3.1207,3.0626,3.2716,3.661,3.4759,3.5831,3.9149,4.3691,4.5963,4.6788,4.9075,4.9928,4.993,4.9789,5.029,5.0722,4.8655,4.7773,4.7218,4.5357,4.4746,0.0,0.0,0.0,0.0,0.0,0.0,0.0,0.0,0.0,3.918,0.0,0.0,0.0,3.5575,3.4027,0.0,0.0,0.0,0.0,0.0,0.0,0.0,0.0,3.8112,0.0,4.2613,4.3889,4.5454,4.7428,4.811,4.9413,5.1945,5.257,5.3604,5.5455,5.5682,5.6284,5.7262,5.7262,5.7531,5.7891,5.7778,5.7674,5.7714,5.7571,5.7427,5.7134,5.7134,5.7134,5.7134,5.7134,5.751,5.8233,5.8288,5.8951,5.9995,6.1045,6.127,6.1164,6.1496,6.079,5.9622,2.9617,3.0141,3.0718,3.1043,3.1479,3.2193,3.3292,3.3775,3.5138,3.8303,4.0014,4.1302,4.2127,4.1551,4.1419,4.2158,3.8906,3.679,3.6741,3.4329,3.2856,3.2795,3.1234,3.0797,3.1776,3.0271,2.9324,2.9139,2.8029,2.7413,2.737,2.737,2.8005,2.9236,3.1077,3.316,3.5272,3.6043,3.8465,4.1834,4.2683,4.2955,4.3308,4.7131,4.858,4.8729,5.0256,5.114,5.122,0.0,4.9105,4.9016,0.0,4.5885,4.6436,4.4154,0.0,0.0,0.0,0.0,0.0,0.0,4.2175,0.0,0.0,0.0,3.7351,3.4776,0.0,0.0,0.0,0.0,0.0,0.0,0.0,0.0,3.2251,3.3623,3.5622,3.8191,4.0148,4.1819,4.3216,4.3756,4.5247,4.8205,4.8215,4.9813,5.3719,5.4676,5.5651,5.6931,5.6959,5.7262,5.7891,5.7293,5.7158,5.7424,5.6852,5.6537,5.6509,5.6509,5.6509,5.6509,5.6509,5.6996,5.7772,5.6967,5.7512,5.8949,6.025,6.0883,6.0988,6.0228,5.9652,5.9197,2.9435,3.0118,3.0602,3.056,3.0721,3.1318,3.2627,3.5785,3.8326,3.9092,4.1572,4.3085,4.2672,4.2456,4.232,4.2406,4.0209,3.8506,0.0,0.0,3.4065,3.3756,3.2372,3.1636,3.1548,3.0455,2.958,2.8954,2.8261,2.7867,2.7696,2.7889,2.9423,3.2075,3.2584,3.5114,3.8851,3.7361,3.8241,4.0654,4.0772,4.0885,0.0,4.6328,4.8275,4.8583,4.9296,5.0174,5.0658,0.0,4.817,0.0,0.0,0.0,0.0,4.5252,0.0,0.0,0.0,0.0,0.0,0.0,0.0,0.0,3.9043,0.0,3.7197,0.0,0.0,0.0,0.0,0.0,0.0,0.0,3.1204,0.0,0.0,0.0,3.2366,0.0,0.0,0.0,3.9969,4.0722,4.2311,4.5195,4.5787,4.756,5.1115,5.246,5.3545,5.4358,5.4569,5.4995,5.5659,5.5615,5.5917,5.6591,5.6335,5.625,5.6394,5.6394,5.6394,5.6394,5.6394,5.6594,5.6967,5.6566,5.691,5.7682,5.8397,5.8965,5.9385,5.9418,5.9017,5.8329,2.9191,0.0,3.0279,3.0054,3.0262,3.1134,3.3201,3.7201,3.9982,3.9865,4.2281,4.3713,4.2959,4.3062,4.3257,4.3306,4.172,4.0316,0.0,3.6933,3.5562,3.5717,3.3879,3.2781,3.2511,3.1424,3.0357,2.928,2.8758,2.8361,2.8106,2.8231,2.9981,3.3065,3.3461,3.6221,4.043,3.8629,3.8966,4.0792,4.0595,4.0933,4.2039,4.5836,4.7871,4.8618,4.849,4.9117,4.9829,4.7831,4.7511,0.0,4.7307,0.0,4.5521,0.0,0.0,0.0,4.3893,0.0,0.0,0.0,0.0,0.0,0.0,0.0,0.0,0.0,0.0,0.0,0.0,0.0,0.0,0.0,0.0,3.0388,0.0,0.0,0.0,0.0,0.0,0.0,0.0,3.7345,3.9017,4.2417,0.0,4.5051,4.8936,5.0525,5.1607,5.2226,5.2719,5.3288,5.3954,5.4221,5.4817,5.5757,5.5641,5.5729,5.5991,5.5991,5.5991,5.5991,5.6106,5.6193,5.6308,5.6193,5.6394,5.6766,5.6936,5.7247,5.781,5.8558,5.8414,5.7725,2.8701,2.9348,2.9769,2.9571,3.0331,3.2144,3.5665,3.687,3.8199,4.0356,4.1242,4.2349,4.3952,4.4092,4.4824,4.6695,0.0,4.2857,4.3282,0.0,3.7847,3.9433,3.6054,3.4711,3.6011,3.3746,3.1858,3.0533,2.9346,2.8653,2.8373,2.815,0.0,0.0,3.3205,3.5736,3.7611,3.9799,4.2089,4.4106,4.3228,4.389,4.5453,0.0,4.6923,4.8842,4.8345,0.0,0.0,4.8066,4.7721,0.0,0.0,0.0,0.0,0.0,0.0,0.0,0.0,0.0,0.0,4.0708,0.0,0.0,0.0,0.0,3.8847,0.0,0.0,0.0,0.0,0.0,0.0,0.0,0.0,0.0,0.0,0.0,0.0,0.0,0.0,0.0,0.0,3.3126,3.4823,0.0,3.9368,4.1597,4.7522,4.9262,5.0454,5.1337,5.2173,5.2922,5.3592,5.3592,5.4074,5.5026,5.4758,5.4758,5.5026,5.5026,5.5026,5.5085,5.5379,5.5729,5.599,5.5671,5.5903,5.6394,5.6135,5.6193,5.6566,5.7501,5.781,5.7725,0.0,2.9509,2.9511,2.926,2.9897,3.1609,3.5034,3.8119,4.0686,4.2491,4.3562,4.4845,4.6656,4.6052,4.6025,4.7288,0.0,4.4888,4.4475,4.1855,0.0,4.1813,3.8717,3.7105,0.0,3.4949,3.3014,3.1589,3.012,2.9423,2.9501,2.9128,2.9593,0.0,3.338,3.5872,3.832,3.9605,4.0894,4.21,4.1797,4.2952,4.4854,0.0,4.6501,4.7103,4.6626,4.6919,0.0,4.667,4.6217,4.6128,4.7169,4.6436,4.5325,4.6059,4.5921,4.5393,0.0,0.0,4.5119,4.1856,0.0,0.0,0.0,0.0,0.0,0.0,0.0,0.0,0.0,0.0,0.0,0.0,0.0,0.0,0.0,0.0,0.0,0.0,0.0,0.0,0.0,0.0,0.0,0.0,3.7494,0.0,4.5461,4.7087,4.8652,5.0276,5.0819,5.1786,5.3227,5.3288,5.3773,5.4758,5.4667,5.4446,5.4148,5.4564,5.4536,5.4148,5.471,5.5054,5.532,5.5203,5.5437,5.5845,5.5961,5.6048,5.6193,5.6936,5.722,5.7163,2.961,2.9939,3.0137,2.9715,3.0782,3.2853,3.6273,3.9459,4.2065,4.3695,4.4613,4.5818,4.7342,4.6617,4.6458,4.7554,4.6795,4.5947,4.5172,4.3648,0.0,4.3142,4.0968,0.0,3.9042,3.6939,3.4778,3.2809,3.1434,3.0481,2.9973,2.9686,2.9947,0.0,3.3126,3.5293,3.7513,3.9575,4.08,4.1263,0.0,4.2459,0.0,0.0,4.5571,4.5761,0.0,4.535,4.5922,4.5722,4.5351,4.5305,4.6986,4.6401,4.5158,4.5913,4.5875,4.5473,4.4514,4.5054,0.0,4.2547,4.1972,0.0,3.8354,0.0,0.0,0.0,0.0,0.0,0.0,0.0,0.0,0.0,0.0,0.0,0.0,2.8513,0.0,0.0,0.0,0.0,0.0,0.0,3.0821,3.4544,3.5426,0.0,0.0,4.5171,4.6914,4.8513,4.9708,5.0777,5.1819,5.225,5.2843,5.3593,5.3812,5.3822,5.3677,5.4089,5.4121,5.3854,5.4165,5.4366,5.4516,5.4516,5.4692,5.5012,5.547,5.5729,5.5932,5.648,5.6823,5.688,2.9526,3.0646,3.1681,3.0979,3.2862,3.5658,3.916,4.0737,4.2229,4.3975,4.4584,4.531,4.6326,4.6057,4.6306,4.761,4.6906,4.6176,4.5775,4.4908,0.0,0.0,4.2847,4.1994,4.134,3.9546,3.7129,3.4302,3.3093,3.1604,2.9773,2.9842,2.9671,2.9415,3.2427,3.4214,3.5165,3.9626,4.1623,4.1852,4.2249,4.2642,4.3061,4.3537,4.418,4.4823,4.3999,4.398,4.441,4.5211,4.5145,4.4965,4.6301,4.6598,4.6433,4.5969,4.6462,4.6726,4.5034,4.487,4.4781,4.2766,4.2303,0.0,0.0,0.0,4.0684,0.0,0.0,0.0,0.0,0.0,0.0,0.0,0.0,0.0,0.0,0.0,0.0,0.0,0.0,0.0,0.0,2.8012,2.9475,3.2796,3.3327,0.0,0.0,4.34,4.5251,4.62,4.8759,4.9868,4.9438,5.0568,5.138,5.1683,5.2242,5.2815,5.3396,5.3423,5.3604,5.391,5.3685,5.3582,5.3641,5.3668,5.3871,5.416,5.4803,5.5203,5.5554,5.6193,5.6595,5.688,3.133,3.316,3.4799,3.5021,3.526,3.6295,3.8787,4.0433,4.2287,4.4913,4.5565,4.656,4.8651,4.7817,4.7444,4.8127,4.7692,0.0,0.0,0.0,0.0,4.7029,4.4955,4.3665,4.3544,4.0069,3.7746,3.6645,3.332,3.1467,3.093,3.09,3.0287,2.9415,3.2259,3.4021,3.5021,3.8276,4.0695,4.2219,4.2388,4.2289,4.2229,0.0,4.3356,4.364,4.3699,4.3798,4.3855,4.373,4.3801,4.4071,4.5029,4.5288,4.5384,4.6146,4.6359,4.6359,4.6423,4.6131,4.5479,4.4273,4.326,4.2103,0.0,0.0,0.0,0.0,0.0,0.0,0.0,0.0,0.0,0.0,0.0,0.0,0.0,0.0,0.0,2.9498,0.0,0.0,0.0,2.7305,2.8902,3.2342,3.2551,0.0,0.0,0.0,4.2723,4.4967,4.6425,4.7693,4.8712,4.9271,4.9837,5.0383,5.105,5.1189,5.0907,5.1421,5.1368,5.1111,5.1922,5.2517,5.2993,5.3424,5.3974,5.4477,5.4852,5.5203,5.5554,5.5961,5.6423,5.688,3.3225,3.5388,3.744,3.8111,3.7909,3.823,4.0032,4.1285,4.2837,4.5137,4.6045,4.7066,4.8359,4.8233,4.8086,4.8355,4.815,0.0,4.7788,0.0,0.0,4.7136,4.6106,4.5215,4.4607,4.1576,0.0,3.7436,0.0,3.1932,3.0867,3.0621,3.0053,2.926,3.1704,3.3203,3.4167,3.7597,4.0177,4.2072,4.1915,4.2053,0.0,4.2464,4.2876,4.3315,4.3221,4.322,4.3339,4.2924,4.3004,4.3462,4.405,4.4428,4.4654,4.5106,4.5405,4.5555,4.5779,4.5779,4.554,4.4757,4.4308,4.3685,4.2168,4.2483,4.2811,0.0,4.214,4.2163,0.0,0.0,0.0,0.0,0.0,0.0,0.0,0.0,0.0,0.0,2.8584,0.0,0.0,2.6868,2.8225,3.051,3.1121,0.0,0.0,0.0,4.1028,4.312,4.4998,4.6389,4.7327,4.8166,4.8634,4.8877,4.9706,5.0041,4.9963,5.028,5.0433,5.0404,5.0803,5.1228,5.1583,5.2323,5.2951,5.348,5.4595,5.4976,5.4956,5.5586,5.5964,5.6364,3.5315,3.7412,3.9453,4.0182,4.0249,4.0634,4.1888,4.2606,4.3539,4.4985,4.6328,4.7237,4.7382,4.8087,4.8543,4.8543,4.8502,4.8128,4.734,4.7858,4.7585,4.6075,4.6706,4.6447,4.5131,4.3235,4.0781,0.0,3.5065,3.2601,3.0261,2.9974,2.9506,2.8982,3.1045,3.2457,3.3518,3.7459,4.0077,4.1695,4.1502,4.2073,4.2962,4.2308,4.2695,4.3539,4.2684,4.2665,4.3022,4.2594,4.2697,4.3081,4.3386,4.3843,4.405,4.3843,4.4201,4.4654,4.4504,4.488,4.5201,4.4832,4.5289,4.5384,4.4004,4.36,4.3677,4.3915,4.2637,4.2086,0.0,0.0,0.0,0.0,0.0,0.0,0.0,0.0,0.0,0.0,0.0,0.0,0.0,0.0,0.0,0.0,0.0,0.0,0.0,0.0,3.9656,4.1263,4.3968,4.5523,4.5757,4.7142,4.7733,4.743,4.8365,4.9022,4.9541,4.9541,4.9842,5.0412,4.9988,4.9828,4.9972,5.088,5.1449,5.1999,5.3889,5.4352,5.4079,5.4958,5.5223,5.5309,3.7699,3.9224,4.033,4.0098,4.0758,4.1649,4.2638,4.3198,4.4123,4.5861,4.7278,4.8461,4.9174,4.9342,4.9446,4.9446,4.9196,0.0,0.0,0.0,0.0,4.7815,4.7289,4.6727,4.6075,4.3242,4.0903,0.0,3.5314,3.252,3.0603,3.0621,2.9952,2.891,3.0855,3.3255,3.5892,3.8166,0.0,4.1733,4.2525,4.2698,4.258,4.3125,4.3301,4.3105,4.26,4.2683,4.3022,4.2594,4.2697,4.3004,4.3081,4.3386,4.3843,4.4428,4.4428,4.4504,4.5405,4.533,4.4891,4.4983,4.5124,4.5123,4.4661,4.4886,4.5225,4.5263,4.4799,4.4228,4.3877,0.0,0.0,0.0,0.0,0.0,0.0,0.0,0.0,0.0,0.0,2.8866,0.0,0.0,0.0,0.0,0.0,0.0,0.0,0.0,3.6996,0.0,4.2611,0.0,0.0,0.0,4.6572,4.6572,4.7163,4.7573,4.7666,4.7666,4.7751,4.787,4.8581,4.9001,4.9324,5.0201,5.1035,5.1859,5.2513,5.3005,5.3382,5.3837,5.3839,5.3806,4.0754,4.1404,4.1779,4.1779,4.2097,4.2702,4.3834,4.4663,4.5312,4.5882,4.6927,4.7942,4.863,4.9279,4.9657,4.9401,4.9383,4.9322,4.9067,4.8213,4.7796,4.8004,4.715,4.6405,4.6016,4.3854,4.1739,3.9868,3.6282,3.3569,3.184,3.0938,3.0063,2.9412,3.1493,3.3903,0.0,0.0,0.0,4.2084,4.2544,4.3157,4.3679,4.3212,4.3209,4.3313,4.2404,4.2268,4.2408,4.2146,4.239,4.2697,4.2927,4.331,4.3691,4.405,4.4071,4.3974,4.4579,4.4485,4.4124,4.4176,4.4458,4.4772,4.4752,4.5018,4.5094,4.4901,4.4753,4.4261,4.2772,4.0966,0.0,0.0,0.0,0.0,0.0,0.0,0.0,0.0,0.0,0.0,0.0,0.0,0.0,0.0,0.0,0.0,0.0,0.0,3.5723,0.0,0.0,0.0,4.4159,0.0,4.5793,4.5793,4.6456,4.6815,4.6993,4.6993,4.7053,4.7231,4.7692,4.8058,4.8439,4.9515,5.0404,5.1219,5.1809,5.2248,5.2515,5.3189,5.322,5.3132,4.289,4.2962,4.2927,4.3289,4.3217,4.3559,4.4783,4.587,4.6441,4.6269,4.699,4.7589,4.8108,4.9048,4.9572,4.923,4.9401,4.9401,4.8973,4.8042,4.7526,4.7443,4.666,4.6101,4.567,4.4584,4.2816,0.0,3.7611,3.5127,3.3077,3.1574,3.0843,3.077,0.0,0.0,0.0,0.0,4.0801,4.2541,4.2525,4.3338,4.4422,4.3098,4.2876,4.3317,4.2308,4.1955,4.1975,4.1911,4.2139,4.2447,4.2774,4.3233,4.3615,4.3615,4.3615,4.3594,4.3491,4.3427,4.3383,4.3276,4.3695,4.4273,4.4638,4.4633,4.45,4.4208,4.412,4.3551,4.165,4.0884,0.0,0.0,0.0,0.0,0.0,0.0,0.0,0.0,0.0,0.0,2.7901,0.0,0.0,0.0,0.0,0.0,3.1113,3.2409,3.4697,0.0,0.0,4.1247,4.283,0.0,4.5049,4.5049,4.5803,4.6301,4.6626,4.6686,4.684,4.7027,4.7087,4.7324,4.7788,4.8701,4.9499,5.0162,5.0999,5.1353,5.151,5.2404,5.2603,5.2574,4.2331,4.2727,4.2948,4.3008,4.336,4.3957,4.4883,4.6112,4.7208,4.8066,4.8596,4.9064,4.9425,4.9594,4.9657,4.9657,4.9315,4.8973,4.8544,4.762,4.6878,4.6562,4.6352,4.6084,4.5739,4.5157,4.378,0.0,0.0,3.674,3.3389,3.3225,3.3316,0.0,0.0,0.0,0.0,3.9488,4.1093,4.3052,4.3069,4.3128,4.3229,4.3109,4.2793,4.2502,4.2428,4.2329,4.2348,4.2376,4.237,4.237,4.2447,4.2984,4.3615,4.3615,4.3615,4.3511,4.3097,4.2952,4.2927,4.2801,4.31,4.3518,4.4133,4.4096,4.3963,4.4244,4.3884,4.3,4.115,4.1557,4.0956,0.0,0.0,0.0,0.0,0.0,3.2849,3.1536,0.0,0.0,0.0,2.7612,0.0,0.0,2.7822,0.0,3.0674,3.0829,3.3294,3.8577,3.87,3.9783,4.2062,4.3516,4.4232,4.4232,4.5327,4.5878,4.5878,4.618,4.6361,4.6421,4.6746,4.7197,4.7703,4.7814,4.825,4.8943,4.9546,4.9975,5.0261,5.0877,5.1266,5.1598,4.3571,4.3614,4.3898,4.4118,4.4154,4.4531,4.5988,4.6421,4.7093,4.8225,4.8802,4.9144,4.9315,4.9572,4.9361,4.8581,4.8893,4.8575,4.7257,4.6828,4.6421,4.5971,4.5943,4.5861,4.5719,4.5507,4.4546,0.0,0.0,3.8895,3.6596,3.5715,3.5451,0.0,0.0,3.8379,3.9824,4.0937,4.2368,4.3816,4.3585,4.3791,4.42,4.3654,4.3219,4.2843,4.308,4.3019,4.2857,4.2833,4.2766,4.2774,4.2774,4.3157,4.3615,4.3615,4.3615,4.3573,4.3387,4.3102,4.2805,4.2815,4.2935,4.317,4.3254,4.3331,4.3433,4.2983,4.2427,4.1781,4.0987,4.0772,4.0073,3.8358,0.0,0.0,0.0,0.0,0.0,3.2669,0.0,3.0782,0.0,0.0,0.0,0.0,0.0,0.0,3.0321,3.1011,0.0,3.6948,0.0,3.9522,4.1117,4.288,4.3978,4.4561,4.539,4.5878,4.612,4.624,4.6421,4.6626,4.6746,4.7019,4.7442,4.7645,4.7997,4.8431,4.8895,4.9469,5.001,5.0292,5.0683,5.1155,4.4784,4.4683,4.48,4.5114,4.4912,4.5238,4.6781,4.6789,4.7015,4.8073,4.8458,4.8716,4.8716,4.8973,4.8702,4.7549,4.8106,4.7874,4.6425,4.6385,4.6121,4.5493,4.5754,0.0,4.5474,4.5778,4.5236,4.4029,4.258,4.111,3.9571,3.8227,3.7808,0.0,3.9141,4.0098,4.1152,4.2187,4.3116,4.3978,4.3644,4.3835,4.4198,4.3579,4.3121,4.2971,4.3508,4.3508,4.3268,4.3359,4.3428,4.3341,4.3045,4.331,4.3615,4.3615,4.3511,4.3387,4.3242,4.2865,4.2387,4.2262,4.2507,4.2721,4.2651,4.2718,4.2503,4.1455,4.1011,4.0638,4.0277,3.9651,3.9034,3.8366,0.0,0.0,0.0,3.4847,0.0,0.0,3.2199,3.1389,3.1345,3.0217,0.0,0.0,0.0,0.0,0.0,0.0,0.0,0.0,0.0,0.0,4.0514,4.222,4.3553,4.4451,4.5232,4.5817,4.618,4.6266,4.6446,4.6686,4.6686,4.69,4.7205,4.7442,4.7821,4.823,4.8548,4.9068,4.9613,4.984,5.0179,5.0683,4.5694,4.571,4.5657,4.568,4.5664,4.5974,4.684,4.6987,4.7181,4.7615,4.7701,4.7701,4.7701,4.7701,4.752,4.7037,4.6988,4.6808,4.6372,4.6333,4.5878,0.0,0.0,4.5868,4.5066,4.588,4.584,4.4981,0.0,0.0,4.1545,4.0651,4.0321,4.0527,4.1367,4.1992,4.2441,4.2891,4.3066,4.3167,4.3086,4.2799,4.2427,4.2427,4.2383,4.2524,4.331,4.3618,4.3771,4.4065,4.4211,4.4138,4.33,4.331,4.3615,4.3615,4.3284,4.2828,4.2393,4.2011,4.1534,4.1007,4.1452,4.2159,4.2511,4.2102,4.1286,3.9674,3.9876,3.993,3.8552,3.8439,3.8126,3.6826,0.0,0.0,0.0,0.0,0.0,3.3691,3.2305,3.188,3.3032,3.1462,0.0,0.0,0.0,0.0,0.0,0.0,0.0,3.6976,3.7596,0.0,4.027,4.1662,4.2747,4.3614,4.4756,4.5514,4.5817,4.612,4.6301,4.6326,4.6326,4.6636,4.7205,4.7205,4.756,4.823,4.8548,4.8721,4.8779,4.9412,4.9783,5.0066,4.6619,4.6856,4.6987,4.6662,4.6895,4.7021,4.6987,4.7007,4.7094,4.7181,4.692,4.6745,4.6745,4.7354,4.7348,0.0,4.6835,4.6516,0.0,4.568,4.564,4.5039,4.5529,4.5748,4.5469,4.6008,4.6122,4.5881,0.0,0.0,0.0,4.1999,4.1914,4.2266,4.2539,4.291,4.3281,4.3144,4.3229,4.3453,4.2835,4.2544,4.2525,4.306,4.3273,4.3437,4.493,4.5445,4.5356,4.5209,4.4985,4.4523,4.3683,4.3462,4.3615,4.3615,4.3511,4.3359,4.3201,4.2963,4.2647,4.1895,4.2039,4.23,4.1969,4.1779,4.122,3.9358,3.969,3.9808,3.8274,3.8379,3.8303,3.6984,3.6883,0.0,3.5218,0.0,3.4358,3.4857,3.3697,3.3293,3.4211,3.3124,0.0,0.0,0.0,0.0,0.0,0.0,0.0,0.0,3.804,0.0,4.0571,4.1935,4.2891,4.3359,4.4074,4.4705,4.5271,4.5764,4.618,4.6626,4.6361,4.6636,4.7205,4.7205,4.7442,4.788,4.7997,4.8172,4.8373,4.8579,4.8983,4.9472,4.7561,4.7738,4.7788,4.7094,4.7268,4.7268,4.6832,4.6745,4.6745,4.6745,4.6483,4.6308,4.6308,4.6832,0.0,4.6134,4.6489,4.6363,4.5312,4.5664,4.5723,4.5293,4.5687,4.5865,4.5718,4.5952,0.0,4.6041,4.5311,4.4502,4.348,4.324,4.3216,4.332,4.332,4.3379,4.3457,4.3183,4.3052,4.298,4.2561,4.2308,4.2327,4.3298,4.3731,4.3894,4.5409,4.6025,4.5955,4.5441,4.5076,4.4754,4.3912,4.3615,4.3615,4.3615,4.3366,4.311,4.3192,4.2962,4.2632,4.2171,4.2231,4.2144,4.1313,4.1452,4.1086,3.8891,3.9004,3.913,3.7753,3.7628,3.7456,3.6818,3.6588,3.6174,3.5346,0.0,0.0,0.0,0.0,0.0,0.0,3.482,3.4751,0.0,0.0,0.0,0.0,0.0,0.0,3.6584,3.8651,4.0243,4.1147,4.2075,4.2721,4.3211,4.3866,4.4375,4.4639,4.5448,4.5939,4.624,4.6301,4.6636,4.7205,4.7205,4.7442,4.788,4.788,4.7938,4.8055,4.8289,4.8521,4.8868,4.8442,4.8458,4.8199,4.7268,4.7094,4.6987,4.6357,4.6337,4.6337,4.6269,4.625,4.6269,4.6396,4.6396,4.6239,4.5848,0.0,0.0,4.5828,4.6094,4.6133,4.5742,4.6094,4.6091,4.5693,4.5673,4.5688,4.5627,4.5225,4.482,4.437,4.437,4.4123,4.3711,4.3672,4.3437,4.3086,4.3047,4.2558,4.1836,4.2266,4.2171,4.1911,4.3238,4.3733,4.3935,4.5076,4.556,4.5616,4.5015,4.482,4.4712,4.3892,4.3615,4.3615,4.3615,4.309,4.2479,4.2785,4.2301,4.1699,4.1969,4.2018,4.1763,4.0848,4.1158,4.0953,3.8423,3.8144,3.8032,3.7148,3.6416,3.6034,3.6302,3.6016,3.5556,3.5035,0.0,0.0,0.0,0.0,0.0,3.4238,3.6402,3.7201,0.0,0.0,0.0,0.0,0.0,3.5279,3.7701,3.9313,4.075,4.1918,4.1942,4.2324,4.3079,4.3948,4.4132,4.3832,4.5108,4.5536,4.5244,4.5924,4.656,4.7077,4.7129,4.7508,4.812,4.8114,4.7938,4.7762,4.8373,4.8347,4.8178,4.889,4.8973,4.8716,4.8199,4.8372,4.8077,4.6551,4.6577,4.6577,4.5907,4.608,4.6457,4.6793,4.6832,4.6967,4.7215,4.6686,4.6444,4.6694,4.6425,4.625,4.6152,4.625,4.6142,4.5699,4.5699,4.5497,4.5127,4.5091,4.4872,4.437,4.4041,4.3793,4.3691,4.3359,4.3164,4.3047,4.2715,4.2285,4.1836,4.2266,4.2189,4.1975,4.322,4.412,4.4757,4.5333,4.5953,4.6356,4.5243,4.4884,4.4651,4.3864,4.3615,4.3691,4.3974,4.3676,4.3364,4.3614,4.3346,4.2861,4.2542,4.2441,4.2183,4.1237,4.1361,4.1129,3.9196,3.8719,3.8453,3.7619,3.6915,3.6391,3.6136,3.5681,3.5153,3.469,3.4175,0.0,0.0,3.5109,3.5504,3.6547,3.6971,3.6763,0.0,0.0,3.534,3.4142,3.5246,3.6498,3.778,3.9163,4.0258,4.1017,4.1423,4.1744,4.1922,4.2396,4.2445,4.2149,4.3986,4.4565,4.4136,4.5235,4.5775,4.6001,4.6119,4.6707,4.7456,4.7221,4.7172,4.7324,4.7257,4.721,4.7172,4.9017,4.9059,4.8973,4.8458,4.8274,4.7707,4.6458,4.6154,4.6029,4.5989,4.6181,4.6597,4.7228,4.7354,4.7528,4.7961,4.6987,4.6483,4.7007,4.6571,4.6308,4.6308,4.6308,4.6191,4.5976,4.5781,4.5339,4.473,4.4793,4.4557,4.4041,4.3628,4.3366,4.3191,4.3152,4.2919,4.2531,4.2439,4.2285,4.2109,4.2103,4.1984,4.1948,4.319,4.3755,4.396,4.4936,4.5436,4.5518,4.4823,4.4563,4.4428,4.3843,4.3615,4.3649,4.3799,4.359,4.3339,4.3863,4.3536,4.2942,4.271,4.2721,4.2618,4.1654,4.1717,4.155,4.0126,3.9493,3.8947,3.8204,3.7262,3.6427,3.6085,3.5424,3.481,3.4376,3.3987,3.4219,3.5391,3.5681,3.6306,3.7725,3.8245,3.7993,3.6919,3.7035,0.0,3.5146,3.627,3.7196,3.7599,3.8896,3.9837,4.0479,4.0763,4.0905,4.0905,4.1318,4.1354,4.1081,4.2903,4.3479,4.3117,4.4383,4.4978,4.5214,4.5598,4.6178,4.6869,4.6671,4.6636,4.6755,4.6661,4.6458,4.6391,4.8973,4.9059,4.8973,4.8458,4.7788,4.6992,4.6352,4.5694,4.5425,4.6207,4.6333,4.6769,4.7727,4.7788,4.7941,4.8458,4.7248,4.6658,4.7094,4.6658,4.6396,4.6308,4.6308,4.6269,4.6211,4.5714,4.5129,4.4408,4.4408,4.409,4.356,4.3311,4.2933,4.2466,4.2754,4.2486,4.1814,4.2117,4.2239,4.2201,4.1933,4.1871,4.189,4.3012,4.2981,4.258,4.3954,4.4317,4.4061,4.3989,4.3974,4.4071,4.3615,4.3497,4.3504,4.3485,4.3152,4.2972,4.3679,4.3321,4.2721,4.2791,4.2958,4.2922,4.2236,4.2097,4.1949,4.1019,4.0272,3.955,3.8962,3.7627,3.651,3.6158,3.5352,3.4639,3.4207,0.0,3.4482,3.5634,3.6161,3.694,3.8338,3.9382,3.9522,3.8568,3.878,3.8378,3.7039,3.7475,3.7659,3.7531,3.8628,3.9521,4.0106,4.0106,4.0106,4.013,4.0611,4.0703,4.037,4.19,4.2413,4.2102,4.336,4.4112,4.451,4.5003,4.5632,4.6229,4.6169,4.6155,4.624,4.6155,4.5874,4.5494,4.8544,4.8802,4.8973,4.8458,4.8311,4.7784,4.6478,4.6207,4.6187,4.6247,4.6675,4.7264,4.8138,4.8286,4.8458,4.8973,4.8047,4.7528,4.7615,4.7181,4.6745,4.6308,4.6308,4.6133,4.5781,4.4922,4.4461,4.4326,4.4326,4.3925,4.3082,4.3419,4.3208,4.2371,4.2087,4.1878,4.1764,4.1745,4.1637,4.139,4.2011,4.2087,4.1764,4.196,4.225,4.2365,4.2308,4.2702,4.3187,4.2819,4.3136,4.3615,4.3233,4.3043,4.309,4.338,4.3141,4.2826,4.3257,4.3225,4.3163,4.3441,4.325,4.2877,4.2682,4.2326,4.1879,4.1363,4.0784,4.0319,3.9933,3.864,3.7462,3.6734,3.5743,3.498,3.4466,0.0,3.5285,3.6005,3.6879,3.7882,3.9182,3.9001,3.8966,3.9262,3.8931,3.8286,3.736,3.7929,3.8199,3.7995,3.8576,3.9167,3.9861,3.9861,3.9861,3.9861,4.02,4.0048,3.9564,4.0999,4.1412,4.1007,4.2161,4.2995,4.3507,4.3844,4.4575,4.5556,4.5473,4.5635,4.5817,4.5574,4.4981,4.4342,4.8372,4.8544,4.8634,4.8472,4.8004,4.7334,4.6518,4.5892,4.5808,4.6313,4.6545,4.7145,4.8264,4.8204,4.8248,4.8666,4.814,4.7573,4.7338,4.7113,4.6723,4.5969,4.5969,4.5883,4.5683,4.5316,4.4826,4.4318,4.4087,4.3526,4.2686,4.2667,4.2273,4.1729,4.1665,4.1553,4.1346,4.1612,4.1714,4.177,4.1756,4.1617,4.1346,4.1429,4.1229,4.1119,4.1378,4.1719,4.203,4.2064,4.2467,4.2984,4.3004,4.2774,4.257,4.2791,4.2961,4.3035,4.3203,4.3197,4.3167,4.3228,4.3122,4.288,4.275,4.2523,4.2249,4.2001,4.155,4.1122,4.0684,3.9543,3.8498,3.8071,3.6531,0.0,3.5299,3.5119,3.5264,3.6007,3.6996,3.8118,3.9523,3.9546,3.9604,3.9894,3.9778,3.9279,3.819,3.8444,3.8484,3.8281,3.8757,3.9108,3.9249,3.9426,3.9544,3.9544,3.9661,3.9603,3.9308,4.0188,4.0481,4.027,4.1609,4.2351,4.2656,4.3511,4.4298,4.4928,4.4805,4.4963,4.5208,4.4902,4.4269,4.354,4.8027,4.8286,4.8335,4.8093,4.7585,4.7022,4.6441,4.5757,4.5633,4.657,4.6637,4.7028,4.8438,4.8127,4.7982,4.8334,4.8045,4.7588,4.7069,4.6956,4.6615,4.5718,4.5712,4.5713,4.582,4.5734,4.5299,4.4434,4.4013,4.3338,4.2349,4.1985,4.1556,4.1101,4.1398,4.1361,4.1082,4.1331,4.162,4.1863,4.1129,4.0833,4.0916,4.0805,4.048,4.0086,4.0683,4.0873,4.0898,4.1269,4.1618,4.2062,4.2467,4.2312,4.2031,4.213,4.2583,4.2984,4.3062,4.3075,4.3108,4.3056,4.2904,4.2772,4.2815,4.2605,4.2438,4.2438,4.2143,4.1756,4.133,4.0392,3.9606,3.9187,0.0,3.6136,3.607,3.5656,3.5577,3.6202,3.7191,3.8286,3.9556,3.9931,4.013,4.013,4.0363,4.0013,3.899,3.8812,3.8537,3.8201,3.8834,3.9049,3.8812,3.9108,3.9308,3.9308,3.9308,3.9308,3.9308,3.9567,3.9813,4.0047,4.1153,4.1816,4.2221,4.3216,4.3929,4.4317,4.424,4.4409,4.4631,4.4264,4.3706,4.3177,4.7094,4.7768,4.8093,4.7208,4.7401,4.7381,4.6433,4.6252,4.6564,4.75,4.7261,4.7499,4.8914,4.8603,4.8334,4.8376,4.8334,4.7982,4.7051,4.7031,4.6637,4.5783,4.5667,4.5907,4.625,4.5812,4.5354,4.4895,4.4459,4.3608,4.2352,4.2326,4.1918,4.1089,4.1126,4.1126,4.1089,4.0687,4.0536,4.0469,4.001,4.0077,4.0397,4.0,4.0169,4.0455,4.0086,3.9968,3.9954,4.0035,4.0294,4.0744,4.1152,4.1178,4.1157,4.1509,4.1825,4.2202,4.2511,4.2791,4.2989,4.3398,4.295,4.2645,4.3013,4.2688,4.2321,4.2321,4.2298,4.2189,4.1824,4.1289,4.0593,3.9293,0.0,0.0,3.6551,3.6772,3.7038,3.7082,3.7822,3.8633,3.9308,3.9626,3.9802,3.9802,3.9861,3.9684,3.9308,3.8716,3.8118,3.7495,3.8395,3.8812,3.8812,3.9108,3.9308,3.9308,3.9308,3.9308,3.9308,3.9308,3.9739,4.0416,4.0582,4.1322,4.2433,4.2588,4.308,4.3879,4.3864,4.4013,4.4275,4.377,4.3553,4.3372,4.7007,4.7528,4.7773,4.7081,4.7175,4.7175,4.6786,4.6481,4.6675,4.7599,4.7009,4.6948,4.8107,4.7817,4.7548,4.7548,4.7548,4.7279,4.6658,4.6372,4.5963,4.53,4.5241,4.5215,4.5117,4.5199,4.4683,4.3727,4.3311,4.2603,4.1519,4.1626,4.1376,4.106,4.106,4.106,4.106,4.0572,4.0403,4.0403,3.9876,3.9801,3.9988,3.9844,3.9959,4.0115,3.9984,3.9869,3.9887,3.9879,3.9971,4.0216,4.0588,4.0723,4.0762,4.1117,4.1244,4.1313,4.1711,4.2423,4.3071,4.2995,4.2838,4.2653,4.288,4.2772,4.257,4.257,4.2402,4.2108,4.1731,4.1005,4.0434,4.0182,0.0,3.8101,3.768,3.7392,3.7207,3.7207,3.7888,3.8619,3.9249,3.9626,3.9802,3.9802,3.9954,3.9837,3.9308,3.8894,3.8358,3.7758,3.8395,3.8693,3.8537,3.9072,3.9308,3.9308,3.9308,3.9308,3.9308,3.9308,3.9643,4.0246,4.081,4.1466,4.2265,4.2778,4.32,4.349,4.374,4.3888,4.3989,4.3774,4.3388,4.2956,4.6745,4.7181,4.7341,4.6869,4.6895,4.6922,4.6611,4.6575,4.6683,4.7213,4.6866,4.6844,4.761,4.7134,4.6866,4.6948,4.6866,4.666,4.6287,4.5779,4.5351,4.5,4.4848,4.4766,4.459,4.4883,4.4458,4.3386,4.3052,4.2423,4.1666,4.1452,4.1294,4.1294,4.1145,4.106,4.106,4.0469,4.0216,4.0131,3.9519,3.9444,3.9802,3.9802,3.9956,4.0281,4.0171,4.0021,3.9913,3.9702,3.9626,3.9588,3.9962,4.0221,4.0403,4.0841,4.0884,4.0878,4.108,4.1989,4.2704,4.2527,4.2479,4.2449,4.2604,4.2517,4.2448,4.261,4.2163,4.1684,4.1598,4.0869,4.0364,4.0548,3.9519,3.8667,3.8551,3.8044,3.7665,3.7606,3.8156,3.8716,3.9131,3.9567,3.9743,3.9684,3.9896,3.9779,3.9072,3.8834,3.8477,3.7938,3.8276,3.8514,3.8537,3.9072,3.9249,3.9108,3.9249,3.9308,3.9308,3.9308,3.9675,4.0379,4.0907,4.1561,4.221,4.2746,4.3075,4.32,4.3389,4.3553,4.3615,4.3449,4.316,4.2785,4.6308,4.6658,4.6832,4.6396,4.6638,4.6674,4.5828,4.6438,4.6876,4.6454,4.674,4.7196,4.7631,4.6886,4.6557,4.6948,4.6599,4.6414,4.6287,4.5454,4.5,4.5024,4.4646,4.459,4.5,4.5019,4.4764,4.4337,4.3895,4.343,4.2989,4.2153,4.1695,4.1695,4.1294,4.106,4.106,4.0113,3.9689,3.9604,3.8666,3.8837,3.9689,3.9689,4.03,4.1089,4.062,4.0198,3.9858,3.9373,3.897,3.8719,3.9193,3.9566,3.9935,4.076,4.0946,4.085,4.0836,4.1316,4.186,4.1971,4.1933,4.187,4.2212,4.1948,4.1719,4.2224,4.1535,4.0984,4.1466,4.1145,4.064,4.0195,4.0103,3.9799,3.8939,3.8812,3.8693,3.844,3.8633,3.8789,3.8789,3.9426,3.9684,3.9308,3.9626,3.939,3.844,3.844,3.8261,3.7938,3.7938,3.8156,3.8812,3.9108,3.9108,3.8812,3.9108,3.9308,3.9308,3.9308,3.9859,4.0823,4.0823,4.1397,4.2275,4.2275,4.2529,4.2822,4.2822,4.3012,4.3255,4.2676,4.2817,4.3255,4.6832,4.692,4.692,4.6832,4.6402,4.608,4.6114,4.6091,4.6256,4.6857,4.6701,4.6556,4.6783,4.6536,4.6146,4.5595,4.6106,4.6352,4.6287,4.5779,4.5515,4.5493,4.4822,4.4297,4.4101,4.4414,4.4181,4.3452,4.3318,4.301,4.2572,4.2291,4.2049,4.1695,4.1528,4.1378,4.106,4.0469,3.9961,3.9689,3.9433,3.9433,3.9774,4.0046,4.0554,4.1042,4.0932,4.052,3.9913,3.9703,3.9208,3.8719,3.9193,3.9523,3.9834,4.0105,4.0117,3.995,3.9938,3.9746,3.9982,4.1309,4.1812,4.2066,4.2535,4.2517,4.2448,4.261,4.1823,4.1114,4.1069,4.0341,3.9698,3.9561,3.9538,3.935,3.8894,3.8812,3.8752,3.8693,3.8458,3.843,3.8605,3.8861,3.8919,3.8803,3.9242,3.9308,3.9072,3.9012,3.8894,3.8514,3.8514,3.8395,3.8178,3.8693,3.899,3.9167,3.9249,3.9308,3.9308,3.9308,3.9859,4.0823,4.0823,4.1397,4.2275,4.2275,4.2339,4.2466,4.2696,4.2886,4.2925,4.2786,4.2809,4.2925,4.6528,4.6489,4.6489,4.6489,4.5876,4.5582,4.6009,4.5892,4.5931,4.6432,4.627,4.6066,4.6106,4.584,4.541,4.5066,4.5554,4.5922,4.6044,4.5617,4.5372,4.5372,4.473,4.4233,4.3958,4.4067,4.3901,4.3297,4.3297,4.3214,4.2902,4.2569,4.2235,4.1965,4.163,4.1294,4.106,4.0572,4.0126,3.9729,3.972,3.9596,3.9599,4.0192,4.0523,4.0685,4.0851,4.029,3.9593,3.9593,3.9171,3.8621,3.8929,3.9198,3.9395,3.9501,3.9513,3.9425,3.9355,3.9191,3.9273,4.0497,4.1154,4.1674,4.2257,4.2345,4.2269,4.2166,4.1561,4.0984,4.0678,4.0197,3.9776,3.9451,3.9547,3.9396,3.8894,3.8771,3.8716,3.8716,3.8465,3.8399,3.8573,3.8757,3.8872,3.8872,3.9007,3.9199,3.9428,3.9428,3.9249,3.8927,3.8807,3.8537,3.8118,3.8358,3.8514,3.8775,3.8894,3.8953,3.8953,3.8953,3.9385,4.0159,4.0281,4.0914,4.1851,4.1977,4.2155,4.2339,4.2529,4.2593,4.2593,4.2593,4.2506,4.2379,4.5887,4.5809,4.5742,4.5828,4.5332,4.5104,4.5529,4.5619,4.5597,4.5555,4.5635,4.5633,4.5576,4.4862,4.4534,4.4882,4.4964,4.5189,4.5576,4.5311,4.5067,4.5067,4.4638,4.4412,4.4452,4.3958,4.3711,4.3628,4.3628,4.3628,4.3546,4.2818,4.2402,4.2318,4.1444,4.1089,4.1005,4.0548,4.018,3.9808,3.9711,3.9527,3.9321,4.0108,4.0159,3.9968,4.0272,3.9905,3.9226,3.919,3.8915,3.8609,3.871,3.8704,3.8652,3.9038,3.92,3.9141,3.8989,3.9191,3.9405,3.9597,4.0149,4.0841,4.1614,4.1719,4.1525,4.1211,4.0989,4.0769,4.0377,4.0494,4.0411,3.9651,3.9779,3.9716,3.8917,3.8684,3.8584,3.8584,3.8619,3.8596,3.8596,3.8928,3.9203,3.9249,3.893,3.9039,3.956,3.9583,3.9484,3.9264,3.8898,3.8614,3.8447,3.8065,3.7923,3.7938,3.8261,3.838,3.838,3.838,3.8649,3.9136,3.9446,4.0134,4.108,4.1439,4.1863,4.2212,4.2212,4.2212,4.2212,4.2212,4.1998,4.1742,4.6627,4.6433,4.6259,4.6694,4.5785,4.5019,4.5104,4.4853,4.467,4.4636,4.4962,4.5064,4.4718,4.4534,4.4288,4.4041,4.4636,4.5068,4.5128,4.5429,4.5589,4.5589,4.4785,4.4541,4.4862,4.4123,4.3546,4.3234,4.3234,4.3068,4.2652,4.2485,4.2216,4.1863,4.1295,4.0916,4.0584,4.0171,3.9905,3.9837,3.9868,3.9767,3.971,3.9914,3.9997,3.9932,4.0024,3.9648,3.919,3.9258,3.8808,3.8223,3.8928,3.8916,3.8728,3.8759,3.8906,3.9037,3.8735,3.8566,3.8596,3.8932,3.9287,3.9866,4.11,4.1588,4.1647,4.1351,4.1325,4.1211,4.0563,4.014,3.9719,3.928,3.8965,3.8792,3.8812,3.8566,3.8498,3.8712,3.843,3.8225,3.8225,3.8316,3.8426,3.8574,3.8559,3.8822,3.956,3.934,3.9559,4.0395,3.9596,3.9103,3.894,3.8065,3.7889,3.832,3.838,3.838,3.838,3.838,3.8649,3.9097,3.9562,4.014,4.0725,4.1171,4.1396,4.1508,4.1508,4.1508,4.1508,4.1508,4.1508,4.1421,4.6383,4.617,4.6111,4.6346,4.5582,4.5044,4.5297,4.4806,4.4452,4.4616,4.4698,4.4616,4.4452,4.437,4.4288,4.4041,4.411,4.4297,4.4683,4.4703,4.4902,4.5331,4.4906,4.4765,4.5046,4.437,4.3793,4.338,4.3234,4.2985,4.2735,4.2299,4.1965,4.1695,4.124,4.0888,4.0455,4.0318,3.9951,3.9541,3.9768,3.9658,3.9268,3.9695,3.9593,3.93,3.9483,3.9281,3.8915,3.8951,3.8679,3.8291,3.8588,3.869,3.8574,3.8377,3.853,3.8839,3.8569,3.8447,3.8438,3.8691,3.8904,3.9276,4.0539,4.11,4.1226,4.081,4.1126,4.1226,4.0472,4.0213,3.991,3.9355,3.8969,3.8627,3.838,3.8156,3.8118,3.8413,3.8128,3.7943,3.8191,3.832,3.8447,3.8694,3.8797,3.9215,4.0017,3.9831,3.9966,4.0423,4.011,3.9615,3.894,3.8631,3.8521,3.8586,3.8001,3.789,3.8232,3.8232,3.8498,3.8962,3.9392,3.9855,4.0408,4.0781,4.1091,4.1315,4.1315,4.1315,4.1315,4.1315,4.1164,4.1035,4.6032,4.5954,4.5989,4.5811,4.546,4.5227,4.548,4.4833,4.4452,4.4882,4.4616,4.4452,4.4534,4.4452,4.433,4.4189,4.3608,4.349,4.4114,4.384,4.4078,4.4846,4.4905,4.4845,4.4804,4.4536,4.4123,4.3463,4.3151,4.2902,4.2735,4.1965,4.1574,4.1519,4.1202,4.0777,4.0253,4.0336,3.995,3.9263,3.952,3.9281,3.8805,3.941,3.9226,3.8597,3.9006,3.8915,3.8719,3.8719,3.8642,3.8567,3.8307,3.8311,3.8451,3.8178,3.8375,3.8569,3.8504,3.8405,3.8346,3.8651,3.8543,3.8681,3.9801,4.0323,4.0472,4.0012,4.064,4.0988,4.0204,4.0237,4.0181,3.9405,3.9037,3.8564,3.8005,3.7703,3.7672,3.8046,3.7789,3.771,3.8216,3.8315,3.8476,3.872,3.8891,3.9379,4.0248,4.023,4.0211,4.0196,4.0453,4.0104,3.89,3.9239,3.9239,3.8775,3.766,3.7548,3.8226,3.8164,3.8382,3.8838,3.9029,3.9418,3.9941,4.0199,4.0529,4.0906,4.0906,4.0993,4.1057,4.1122,4.0971,4.0625,4.684,4.7188,4.7221,4.6438,4.5916,4.5416,4.4705,4.417,4.3958,4.4452,4.4452,4.4534,4.4882,4.4616,4.4129,4.3366,4.3512,4.3499,4.3218,4.3528,4.3919,4.4333,4.4427,4.4215,4.3859,4.4217,4.3793,4.2569,4.2485,4.2151,4.1397,4.1229,4.0961,4.0713,4.0944,4.0435,3.9392,3.9795,3.9659,3.9208,3.8915,3.8951,3.9116,3.8896,3.8731,3.8658,3.8615,3.8933,3.9193,3.9193,3.8984,3.8728,3.8956,3.8571,3.8159,3.8448,3.8574,3.8627,3.8588,3.8268,3.7987,3.8366,3.7907,3.7616,3.8681,3.9386,3.9757,3.9387,4.0149,4.0625,3.9866,3.9621,3.9405,3.8963,3.8196,3.7703,3.7878,3.7632,3.7528,3.7887,3.7648,3.7489,3.7555,3.7561,3.7483,3.7201,3.7488,3.8209,3.9508,3.9239,3.95,4.049,4.0724,4.031,3.9361,3.9506,3.9316,3.8775,3.8309,3.8287,3.8666,3.8415,3.8458,3.8797,3.8679,3.883,3.9131,3.9346,3.9408,3.9473,3.9473,3.967,3.9953,4.0344,4.0409,4.0279,4.6273,4.6615,4.6731,4.6141,4.5817,4.5433,4.4498,4.4241,4.4041,4.4041,4.4205,4.437,4.4288,4.3906,4.3526,4.3086,4.2798,4.2624,4.2645,4.2641,4.2913,4.3632,4.3612,4.3535,4.338,4.3599,4.317,4.2029,4.2258,4.2093,4.1474,4.1451,4.1368,4.1219,4.1609,4.1234,4.0285,4.0223,3.9882,3.9197,3.8792,3.867,3.8878,3.8713,3.856,3.864,3.8877,3.9272,3.9666,3.9666,3.9334,3.9032,3.9183,3.8812,3.8355,3.8574,3.8574,3.8516,3.8281,3.7968,3.7808,3.7709,3.7425,3.7213,3.7683,3.8196,3.866,3.9078,3.9604,3.9801,3.9473,3.8895,3.8501,3.8523,3.7721,3.7214,3.7555,3.7495,3.7435,3.7616,3.7495,3.7314,3.7154,3.7187,3.7154,3.7053,3.7598,3.8192,3.8731,3.9078,3.9531,4.0047,4.0268,4.0248,3.9902,3.99,3.9772,3.9646,3.9517,3.9237,3.8913,3.8786,3.8809,3.9002,3.8957,3.8977,3.9129,3.919,3.921,3.921,3.921,3.9257,3.9347,3.9477,3.9518,3.9449]}]]